[[{"header":{"parameterUnit":"m.s-1","parameterCategory":1,"la1":30.6,"la2":28.766,"lo1":-90.7593,"lo2":-88.6598,"dx":0.0162,"dy":0.0183,"nx":116,"ny":114,"refTime":"2023-02-12T06:00:00:Z","depth":0,"parameterNumber":2,"parameterNumberName":"U-component_of_WINDS"},"data":[0.0,0.0,0.0,0.0,0.0,0.0,0.0,0.0,0.0,0.0,0.0,0.0,0.0,0.0,0.0,0.0,0.0,0.0,0.0,0.0,0.0,0.0,0.0,0.0,0.0,0.0,0.0,0.0,0.0,0.0,0.0,0.0,0.0,0.0,0.0,0.0,0.0,0.0,0.0,0.0,0.0,0.0,0.0,0.0,0.0,0.0,0.0,0.0,0.0,0.0,0.0,0.0,0.0,0.0,0.0,0.0,0.0,0.0,0.0,0.0,0.0,0.0,0.0,0.0,0.0,0.0,0.0,0.0,0.0,0.0,0.0,0.0,0.0,0.0,0.0,0.0,0.0,0.0,0.0,0.0,0.0,0.0,0.0,0.0,0.0,0.0,0.0,0.0,0.0,0.0,0.0,0.0,0.0,0.0,0.0,0.0,0.0,0.0,0.0,0.0,0.0,0.0,0.0,0.0,0.0,0.0,0.0,0.0,0.0,0.0,0.0,0.0,0.0,0.0,0.0,0.0,0.0,0.0,0.0,0.0,0.0,0.0,0.0,0.0,0.0,0.0,0.0,0.0,0.0,0.0,0.0,0.0,0.0,0.0,0.0,0.0,0.0,0.0,0.0,0.0,0.0,0.0,0.0,0.0,0.0,0.0,0.0,0.0,0.0,0.0,0.0,0.0,0.0,0.0,0.0,0.0,0.0,0.0,0.0,0.0,0.0,0.0,0.0,0.0,0.0,0.0,0.0,0.0,0.0,0.0,0.0,0.0,0.0,0.0,0.0,0.0,0.0,0.0,0.0,0.0,0.0,0.0,0.0,0.0,0.0,0.0,0.0,0.0,0.0,0.0,0.0,0.0,0.0,0.0,0.0,0.0,0.0,0.0,0.0,0.0,0.0,0.0,0.0,0.0,0.0,0.0,0.0,0.0,0.0,0.0,0.0,0.0,0.0,0.0,0.0,0.0,0.0,0.0,0.0,0.0,0.0,0.0,0.0,0.0,0.0,0.0,0.0,0.0,0.0,0.0,0.0,0.0,0.0,0.0,0.0,0.0,0.0,0.0,0.0,0.0,0.0,0.0,0.0,0.0,0.0,0.0,0.0,0.0,0.0,0.0,0.0,0.0,0.0,0.0,0.0,0.0,0.0,0.0,0.0,0.0,0.0,0.0,0.0,0.0,0.0,0.0,0.0,0.0,0.0,0.0,0.0,0.0,0.0,0.0,0.0,0.0,0.0,0.0,0.0,0.0,0.0,0.0,0.0,0.0,0.0,0.0,0.0,0.0,0.0,0.0,0.0,0.0,0.0,0.0,0.0,0.0,0.0,0.0,0.0,0.0,0.0,0.0,0.0,0.0,0.0,0.0,0.0,0.0,0.0,0.0,0.0,0.0,0.0,0.0,0.0,0.0,0.0,0.0,0.0,0.0,0.0,0.0,0.0,0.0,0.0,0.0,0.0,0.0,0.0,0.0,0.0,0.0,0.0,0.0,0.0,0.0,0.0,0.0,0.0,0.0,0.0,0.0,0.0,0.0,0.0,0.0,0.0,0.0,0.0,0.0,0.0,0.0,0.0,0.0,0.0,0.0,0.0,0.0,0.0,0.0,0.0,0.0,0.0,0.0,0.0,0.0,0.0,0.0,0.0,0.0,0.0,0.0,0.0,0.0,0.0,0.0,0.0,0.0,0.0,0.0,0.0,0.0,0.0,0.0,0.0,0.0,0.0,0.0,0.0,0.0,0.0,0.0,0.0,0.0,0.0,0.0,0.0,0.0,0.0,0.0,0.0,0.0,0.0,0.0,0.0,0.0,0.0,0.0,0.0,0.0,0.0,0.0,0.0,0.0,0.0,0.0,0.0,0.0,0.0,0.0,0.0,0.0,0.0,0.0,0.0,0.0,0.0,0.0,0.0,0.0,0.0,0.0,0.0,0.0,0.0,0.0,0.0,0.0,0.0,0.0,0.0,0.0,0.0,0.0,0.0,0.0,0.0,0.0,0.0,0.0,0.0,0.0,0.0,0.0,0.0,0.0,0.0,0.0,0.0,0.0,0.0,0.0,0.0,0.0,0.0,0.0,0.0,0.0,0.0,0.0,0.0,0.0,0.0,0.0,0.0,0.0,0.0,0.0,0.0,0.0,0.0,0.0,0.0,0.0,0.0,0.0,0.0,0.0,0.0,0.0,0.0,0.0,0.0,0.0,0.0,0.0,0.0,0.0,0.0,0.0,0.0,0.0,0.0,0.0,0.0,0.0,0.0,0.0,0.0,0.0,0.0,0.0,0.0,0.0,0.0,0.0,0.0,0.0,0.0,0.0,0.0,0.0,0.0,0.0,0.0,0.0,0.0,0.0,0.0,0.0,0.0,0.0,0.0,0.0,0.0,0.0,0.0,0.0,0.0,0.0,0.0,0.0,0.0,0.0,0.0,0.0,0.0,0.0,0.0,0.0,0.0,0.0,0.0,0.0,0.0,0.0,0.0,0.0,0.0,0.0,0.0,0.0,0.0,0.0,0.0,0.0,0.0,0.0,0.0,0.0,0.0,0.0,0.0,0.0,0.0,0.0,0.0,0.0,0.0,0.0,0.0,0.0,0.0,0.0,0.0,0.0,0.0,0.0,0.0,0.0,0.0,0.0,0.0,0.0,0.0,0.0,0.0,0.0,0.0,0.0,0.0,0.0,0.0,0.0,0.0,0.0,0.0,0.0,0.0,0.0,0.0,0.0,0.0,0.0,0.0,0.0,0.0,0.0,0.0,0.0,0.0,0.0,0.0,0.0,0.0,0.0,0.0,0.0,0.0,0.0,0.0,0.0,0.0,0.0,0.0,0.0,0.0,0.0,0.0,0.0,0.0,0.0,0.0,0.0,0.0,0.0,0.0,0.0,0.0,0.0,0.0,0.0,0.0,0.0,0.0,0.0,0.0,0.0,0.0,0.0,0.0,0.0,0.0,0.0,0.0,0.0,0.0,0.0,0.0,0.0,0.0,0.0,0.0,0.0,0.0,0.0,0.0,0.0,0.0,0.0,0.0,0.0,0.0,0.0,0.0,0.0,0.0,0.0,0.0,0.0,0.0,0.0,0.0,0.0,0.0,0.0,0.0,0.0,0.0,0.0,0.0,0.0,0.0,0.0,0.0,0.0,0.0,0.0,0.0,0.0,0.0,0.0,0.0,0.0,0.0,0.0,0.0,0.0,0.0,0.0,0.0,0.0,0.0,0.0,0.0,0.0,0.0,0.0,0.0,0.0,0.0,0.0,0.0,0.0,0.0,0.0,0.0,0.0,0.0,0.0,0.0,0.0,0.0,0.0,0.0,0.0,0.0,0.0,0.0,0.0,0.0,0.0,0.0,0.0,0.0,0.0,0.0,0.0,0.0,0.0,0.0,0.0,0.0,0.0,0.0,0.0,0.0,0.0,0.0,0.0,0.0,0.0,0.0,0.0,0.0,0.0,0.0,0.0,0.0,0.0,0.0,0.0,0.0,0.0,0.0,0.0,0.0,0.0,0.0,0.0,0.0,0.0,0.0,0.0,0.0,0.0,0.0,0.0,0.0,0.0,0.0,0.0,0.0,0.0,0.0,0.0,0.0,0.0,0.0,0.0,0.0,0.0,0.0,0.0,0.0,0.0,0.0,0.0,0.0,0.0,0.0,0.0,0.0,0.0,0.0,0.0,0.0,0.0,0.0,0.0,0.0,0.0,0.0,0.0,0.0,0.0,0.0,0.0,0.0,0.0,0.0,0.0,0.0,0.0,0.0,0.0,0.0,0.0,0.0,0.0,0.0,0.0,0.0,0.0,0.0,0.0,0.0,0.0,0.0,0.0,0.0,0.0,0.0,0.0,0.0,0.0,0.0,0.0,0.0,0.0,0.0,0.0,0.0,0.0,0.0,0.0,0.0,0.0,0.0,0.0,0.0,0.0,0.0,0.0,0.0,0.0,0.0,0.0,0.0,0.0,0.0,0.0,0.0,0.0,0.0,0.0,0.0,0.0,0.0,0.0,0.0,0.0,0.0,0.0,0.0,0.0,0.0,0.0,0.0,0.0,0.0,0.0,0.0,0.0,0.0,0.0,0.0,0.0,0.0,0.0,0.0,0.0,0.0,0.0,0.0,0.0,0.0,0.0,0.0,0.0,0.0,0.0,0.0,0.0,0.0,0.0,0.0,0.0,0.0,0.0,0.0,0.0,0.0,0.0,0.0,0.0,0.0,0.0,0.0,0.0,0.0,0.0,0.0,0.0,0.0,0.0,0.0,0.0,0.0,0.0,0.0,0.0,0.0,0.0,0.0,0.0,0.0,0.0,0.0,0.0,0.0,0.0,0.0,0.0,0.0,0.0,0.0,0.0,0.0,0.0,0.0,0.0,0.0,0.0,0.0,0.0,0.0,0.0,0.0,0.0,0.0,0.0,0.0,0.0,0.0,0.0,0.0,0.0,0.0,0.0,0.0,0.0,0.0,0.0,0.0,0.0,0.0,0.0,0.0,0.0,0.0,0.0,0.0,0.0,0.0,0.0,0.0,0.0,0.0,0.0,0.0,0.0,0.0,0.0,0.0,0.0,0.0,0.0,0.0,0.0,0.0,0.0,0.0,0.0,0.0,0.0,0.0,0.0,0.0,0.0,0.0,0.0,0.0,0.0,0.0,0.0,0.0,0.0,0.0,0.0,0.0,0.0,0.0,0.0,0.0,0.0,0.0,0.0,0.0,0.0,0.0,0.0,0.0,0.0,0.0,0.0,0.0,0.0,0.0,0.0,0.0,0.0,0.0,0.0,0.0,0.0,0.0,0.0,0.0,0.0,0.0,0.0,0.0,0.0,0.0,0.0,0.0,0.0,0.0,0.0,0.0,0.0,0.0,0.0,0.0,0.0,0.0,0.0,0.0,0.0,0.0,0.0,0.0,0.0,0.0,0.0,0.0,0.0,0.0,0.0,0.0,0.0,0.0,0.0,0.0,0.0,0.0,0.0,0.0,0.0,0.0,0.0,0.0,0.0,0.0,0.0,0.0,0.0,0.0,0.0,0.0,0.0,0.0,0.0,0.0,0.0,0.0,0.0,0.0,0.0,0.0,0.0,0.0,0.0,0.0,0.0,0.0,0.0,0.0,0.0,0.0,0.0,0.0,0.0,0.0,0.0,0.0,0.0,0.0,0.0,0.0,0.0,0.0,0.0,0.0,0.0,0.0,0.0,0.0,0.0,0.0,0.0,0.0,0.0,0.0,0.0,0.0,0.0,0.0,0.0,0.0,0.0,0.0,0.0,0.0,0.0,0.0,0.0,0.0,0.0,0.0,0.0,0.0,0.0,0.0,0.0,0.0,0.0,0.0,0.0,0.0,0.0,0.0,0.0,0.0,0.0,0.0,0.0,0.0,0.0,0.0,0.0,0.0,0.0,0.0,0.0,0.0,0.0,0.0,0.0,0.0,0.0,0.0,0.0,0.0,0.0,0.0,0.0,0.0,0.0,0.0,0.0,0.0,0.0,0.0,0.0,0.0,0.0,0.0,0.0,0.0,0.0,0.0,0.0,0.0,0.0,0.0,0.0,0.0,0.0,0.0,0.0,0.0,0.0,0.0,0.0,0.0,0.0,0.0,0.0,0.0,0.0,0.0,0.0,0.0,0.0,0.0,0.0,0.0,0.0,0.0,0.0,0.0,0.0,0.0,0.0,0.0,0.0,0.0,0.0,0.0,0.0,0.0,0.0,0.0,0.0,0.0,0.0,0.0,0.0,0.0,0.0,0.0,0.0,0.0,0.0,0.0,0.0,0.0,0.0,0.0,0.0,0.0,0.0,0.0,0.0,0.0,0.0,0.0,0.0,0.0,0.0,0.0,0.0,0.0,0.0,0.0,0.0,0.0,0.0,0.0,0.0,0.0,0.0,0.0,0.0,0.0,0.0,0.0,0.0,0.0,0.0,0.0,0.0,0.0,0.0,0.0,0.0,0.0,0.0,0.0,0.0,0.0,0.0,0.0,0.0,0.0,0.0,0.0,0.0,0.0,0.0,0.0,0.0,0.0,0.0,0.0,0.0,0.0,0.0,0.0,0.0,0.0,0.0,0.0,0.0,0.0,0.0,0.0,0.0,0.0,0.0,0.0,0.0,0.0,0.0,0.0,0.0,0.0,0.0,-2.1108,0.0,0.0,0.0,0.0,0.0,0.0,0.0,0.0,0.0,0.0,0.0,0.0,0.0,0.0,0.0,0.0,0.0,0.0,0.0,0.0,0.0,0.0,0.0,0.0,0.0,0.0,0.0,0.0,0.0,0.0,0.0,0.0,0.0,0.0,0.0,0.0,0.0,0.0,0.0,0.0,0.0,0.0,0.0,0.0,0.0,0.0,0.0,0.0,0.0,0.0,0.0,0.0,0.0,0.0,0.0,0.0,0.0,0.0,0.0,0.0,0.0,0.0,0.0,0.0,0.0,0.0,0.0,0.0,0.0,0.0,0.0,0.0,0.0,0.0,0.0,0.0,0.0,0.0,0.0,0.0,0.0,0.0,0.0,0.0,0.0,0.0,0.0,0.0,0.0,0.0,0.0,0.0,0.0,0.0,0.0,0.0,0.0,0.0,0.0,0.0,0.0,0.0,0.0,0.0,0.0,0.0,0.0,0.0,0.0,0.0,0.0,0.0,0.0,0.0,0.0,0.0,-2.0591,0.0,0.0,0.0,0.0,0.0,0.0,0.0,0.0,0.0,0.0,0.0,0.0,0.0,0.0,0.0,0.0,0.0,0.0,0.0,0.0,0.0,0.0,0.0,0.0,0.0,0.0,0.0,0.0,0.0,0.0,0.0,0.0,0.0,0.0,0.0,0.0,0.0,0.0,0.0,0.0,0.0,0.0,0.0,0.0,0.0,0.0,0.0,0.0,0.0,0.0,0.0,0.0,0.0,0.0,0.0,0.0,0.0,0.0,0.0,0.0,0.0,0.0,0.0,0.0,0.0,0.0,0.0,0.0,0.0,0.0,0.0,0.0,0.0,0.0,0.0,0.0,0.0,0.0,0.0,0.0,0.0,0.0,0.0,0.0,0.0,0.0,0.0,0.0,0.0,0.0,0.0,0.0,0.0,0.0,0.0,0.0,0.0,0.0,0.0,0.0,0.0,0.0,0.0,0.0,0.0,0.0,0.0,0.0,-2.8434,-2.8622,-2.845,-2.7636,-2.6585,-2.528,-2.2923,-2.114,-1.9924,-2.0181,0.0,0.0,0.0,0.0,0.0,0.0,0.0,0.0,0.0,0.0,0.0,0.0,0.0,0.0,0.0,0.0,0.0,0.0,0.0,0.0,0.0,0.0,0.0,0.0,0.0,0.0,0.0,0.0,0.0,0.0,0.0,0.0,0.0,0.0,0.0,0.0,0.0,0.0,0.0,0.0,0.0,0.0,0.0,0.0,0.0,0.0,0.0,0.0,0.0,0.0,0.0,0.0,0.0,0.0,0.0,0.0,0.0,0.0,0.0,0.0,0.0,0.0,0.0,0.0,0.0,0.0,0.0,0.0,0.0,0.0,0.0,0.0,0.0,0.0,0.0,0.0,0.0,0.0,0.0,0.0,0.0,0.0,0.0,0.0,0.0,0.0,-2.33,-2.3219,0.0,0.0,0.0,0.0,0.0,0.0,0.0,0.0,0.0,0.0,0.0,0.0,0.0,-2.7316,-2.8592,-2.9696,-3.0248,-3.0248,-3.0197,-2.9847,-2.9154,-2.8806,-2.8498,-2.8233,-2.7705,0.0,-2.1846,-2.0751,0.0,0.0,0.0,0.0,0.0,0.0,0.0,0.0,0.0,0.0,0.0,0.0,0.0,0.0,0.0,0.0,0.0,0.0,0.0,0.0,0.0,0.0,0.0,0.0,0.0,0.0,0.0,0.0,0.0,0.0,0.0,0.0,0.0,0.0,0.0,0.0,0.0,0.0,0.0,0.0,0.0,0.0,0.0,0.0,0.0,0.0,0.0,0.0,0.0,0.0,0.0,0.0,0.0,0.0,0.0,0.0,0.0,0.0,0.0,0.0,0.0,0.0,0.0,0.0,0.0,0.0,0.0,0.0,0.0,0.0,0.0,0.0,0.0,0.0,0.0,0.0,0.0,0.0,0.0,0.0,0.0,0.0,0.0,0.0,0.0,-2.4559,-2.4982,-2.4036,-2.5076,-2.5671,0.0,0.0,0.0,0.0,0.0,0.0,0.0,0.0,0.0,-2.6342,-2.8211,-2.9299,-2.9506,-3.1127,-3.1938,-3.1955,-3.2194,-3.1874,-3.1163,-3.0815,-3.0391,-2.9918,-2.9769,-2.8168,-2.5595,-2.3825,-2.2489,-2.1496,0.0,0.0,0.0,0.0,-1.8837,-1.8303,0.0,0.0,0.0,0.0,0.0,0.0,0.0,0.0,0.0,0.0,0.0,0.0,0.0,0.0,0.0,0.0,0.0,0.0,0.0,0.0,0.0,0.0,0.0,0.0,0.0,0.0,0.0,0.0,0.0,0.0,0.0,0.0,0.0,0.0,0.0,0.0,0.0,0.0,0.0,0.0,0.0,0.0,0.0,0.0,0.0,0.0,0.0,0.0,0.0,0.0,0.0,0.0,0.0,0.0,0.0,0.0,0.0,0.0,0.0,0.0,0.0,0.0,0.0,0.0,0.0,0.0,0.0,0.0,0.0,0.0,0.0,0.0,0.0,0.0,0.0,0.0,0.0,-2.5353,-2.6154,-2.4946,-2.6433,-2.7139,0.0,0.0,0.0,0.0,0.0,0.0,-2.6765,-2.7727,-2.8345,-2.8535,-3.0317,-3.1162,-3.0955,-3.2645,-3.3576,-3.3783,-3.3912,-3.3677,-3.3148,-3.2604,-3.1992,-3.1337,-3.1182,-3.0253,-2.875,-2.6488,-2.4331,-2.2342,-2.1549,-2.077,-2.0113,-1.9833,-1.9402,-1.8954,0.0,0.0,0.0,0.0,0.0,0.0,0.0,0.0,0.0,0.0,0.0,0.0,0.0,0.0,0.0,0.0,0.0,0.0,0.0,0.0,0.0,0.0,0.0,0.0,0.0,0.0,0.0,0.0,0.0,0.0,0.0,0.0,0.0,0.0,0.0,0.0,0.0,0.0,0.0,0.0,0.0,0.0,0.0,0.0,0.0,0.0,0.0,0.0,0.0,0.0,0.0,0.0,0.0,0.0,0.0,0.0,0.0,0.0,0.0,0.0,0.0,0.0,0.0,0.0,0.0,0.0,0.0,0.0,0.0,0.0,0.0,0.0,0.0,0.0,0.0,0.0,0.0,0.0,0.0,-2.5652,-2.779,0.0,0.0,0.0,0.0,-2.8772,-2.8941,-2.9351,-3.0018,-3.0347,-3.0851,-3.1558,-3.2369,-3.3473,-3.4887,-3.5025,-3.5439,-3.6128,-3.5199,-3.4703,-3.4669,-3.3563,-3.298,-3.2788,-3.261,-3.1658,-3.012,-2.7396,-2.5589,-2.4461,-2.2599,-2.1981,-2.1975,-2.0297,-1.9686,-1.9439,0.0,0.0,0.0,0.0,0.0,0.0,0.0,0.0,0.0,0.0,0.0,0.0,0.0,0.0,0.0,0.0,0.0,0.0,0.0,0.0,0.0,0.0,0.0,0.0,0.0,0.0,0.0,0.0,0.0,0.0,0.0,0.0,0.0,0.0,0.0,0.0,0.0,0.0,0.0,0.0,0.0,0.0,0.0,0.0,0.0,0.0,0.0,0.0,0.0,0.0,0.0,0.0,0.0,0.0,0.0,0.0,0.0,0.0,0.0,0.0,0.0,0.0,0.0,0.0,0.0,0.0,0.0,0.0,0.0,0.0,0.0,0.0,0.0,0.0,0.0,0.0,0.0,0.0,0.0,-2.9574,-3.1318,0.0,-3.0928,-3.0891,-3.102,-3.1299,-3.1518,-3.188,-3.2462,-3.3206,-3.3714,-3.3973,-3.4697,-3.5594,-3.6663,-3.6663,-3.6801,-3.706,-3.6068,-3.5297,-3.4769,-3.3626,-3.3005,-3.2881,-3.2237,-3.1365,-3.0304,-2.8904,-2.7173,-2.529,-2.3792,-2.2819,-2.2183,-2.1179,-2.0765,-2.0556,0.0,0.0,0.0,0.0,0.0,0.0,0.0,0.0,0.0,0.0,0.0,0.0,0.0,0.0,0.0,0.0,0.0,0.0,0.0,0.0,0.0,0.0,0.0,0.0,0.0,0.0,0.0,0.0,0.0,0.0,0.0,0.0,0.0,0.0,0.0,0.0,0.0,0.0,0.0,0.0,0.0,0.0,-2.0709,0.0,0.0,0.0,0.0,0.0,0.0,0.0,0.0,0.0,0.0,0.0,0.0,0.0,0.0,0.0,0.0,0.0,0.0,0.0,0.0,0.0,0.0,0.0,0.0,0.0,0.0,0.0,0.0,0.0,0.0,0.0,0.0,0.0,0.0,0.0,-3.2117,-3.2934,-3.4699,-3.5423,-3.4346,-3.4228,-3.4377,-3.475,-3.4824,-3.5164,-3.5794,-3.6155,-3.6232,-3.5973,-3.6439,-3.6818,-3.7077,-3.7094,-3.7094,-3.7077,-3.6101,-3.5313,-3.4769,-3.3678,-3.3058,-3.2881,-3.2291,-3.1418,-3.0397,-2.9935,-2.8439,-2.6257,-2.5028,-2.39,-2.2848,-2.2251,-2.1934,-2.1807,0.0,0.0,0.0,0.0,0.0,0.0,0.0,0.0,0.0,0.0,0.0,0.0,0.0,0.0,0.0,0.0,0.0,0.0,0.0,0.0,0.0,0.0,0.0,0.0,0.0,0.0,0.0,0.0,0.0,0.0,0.0,0.0,0.0,0.0,0.0,0.0,0.0,0.0,0.0,0.0,0.0,0.0,-2.2885,0.0,0.0,0.0,0.0,0.0,0.0,0.0,0.0,0.0,0.0,0.0,0.0,0.0,0.0,0.0,0.0,0.0,0.0,0.0,0.0,0.0,0.0,0.0,0.0,0.0,0.0,0.0,0.0,0.0,0.0,0.0,0.0,0.0,-2.9599,-3.2307,-3.4667,-3.5535,-3.7772,-3.859,-3.7002,-3.8192,-3.9081,-3.9118,-3.8982,-3.9226,-3.9996,-3.9168,-3.8328,-3.7542,-3.7508,-3.7146,-3.6387,-3.637,-3.6353,-3.6335,-3.5316,-3.4849,-3.4785,-3.3729,-3.315,-3.2897,-3.2881,-3.1958,-3.0458,-3.0428,-2.932,-2.7523,-2.6323,-2.5123,-2.4096,-2.3446,-2.3189,-2.3014,0.0,0.0,0.0,0.0,0.0,0.0,0.0,0.0,0.0,0.0,0.0,0.0,0.0,0.0,0.0,0.0,0.0,0.0,0.0,0.0,0.0,0.0,0.0,0.0,0.0,0.0,0.0,0.0,0.0,0.0,0.0,0.0,0.0,0.0,0.0,0.0,0.0,0.0,0.0,0.0,0.0,0.0,-2.3787,0.0,0.0,0.0,0.0,0.0,0.0,0.0,0.0,0.0,0.0,0.0,0.0,0.0,0.0,0.0,0.0,0.0,0.0,0.0,0.0,0.0,0.0,0.0,0.0,0.0,0.0,0.0,0.0,0.0,0.0,0.0,0.0,-3.3596,-3.321,-3.5473,-3.7629,-3.8887,-4.0325,-4.0959,-4.0318,-4.0603,-4.1045,-4.1637,-4.129,-4.1017,-4.0876,-4.03,-3.9451,-3.8346,-3.8284,-3.818,-3.7956,-3.7956,-3.7698,-3.7163,-3.6169,-3.5346,-3.4769,-3.3678,-3.3096,-3.3027,-3.2298,-3.1703,-3.1211,-3.0628,-2.9591,-2.8175,-2.6924,-2.6014,-2.5276,-2.4259,-2.3164,-2.2243,0.0,0.0,0.0,0.0,0.0,0.0,0.0,0.0,0.0,0.0,0.0,0.0,0.0,0.0,0.0,0.0,0.0,0.0,0.0,0.0,0.0,0.0,0.0,0.0,0.0,0.0,0.0,0.0,0.0,0.0,0.0,0.0,0.0,0.0,0.0,0.0,0.0,0.0,0.0,0.0,0.0,0.0,-2.5965,-2.4635,-2.476,-2.56,-2.5298,-2.6,-2.6836,-2.5397,0.0,0.0,0.0,0.0,0.0,0.0,0.0,0.0,0.0,0.0,0.0,0.0,0.0,0.0,0.0,0.0,0.0,0.0,0.0,0.0,0.0,0.0,0.0,0.0,-3.5353,-3.7432,-3.7921,-3.9157,-4.0438,-4.1597,-4.2487,-4.294,-4.2791,-4.2623,-4.2724,-4.3175,-4.2727,-4.2177,-4.1683,-4.1197,-4.0368,-3.9122,-3.906,-3.8905,-3.8594,-3.8284,-3.7905,-3.7473,-3.6152,-3.5247,-3.4769,-3.3678,-3.315,-3.3081,-3.2407,-3.1958,-3.1542,-3.1034,-3.0087,0.0,0.0,0.0,0.0,0.0,-2.3784,-2.2857,0.0,0.0,0.0,0.0,0.0,0.0,0.0,0.0,0.0,0.0,0.0,0.0,0.0,0.0,0.0,0.0,0.0,0.0,0.0,0.0,0.0,0.0,0.0,0.0,0.0,0.0,0.0,0.0,0.0,0.0,0.0,0.0,0.0,0.0,0.0,0.0,0.0,0.0,0.0,0.0,0.0,0.0,-2.8724,-2.6814,-2.6672,-2.7398,-2.6689,-2.6714,-2.705,-2.6803,0.0,0.0,0.0,0.0,0.0,0.0,0.0,0.0,0.0,0.0,0.0,0.0,0.0,0.0,0.0,0.0,0.0,0.0,0.0,0.0,0.0,0.0,0.0,0.0,-3.8999,-4.1074,-4.2928,-4.3014,-4.3149,-4.3801,-4.4297,-4.4626,-4.4665,-4.4337,-4.4122,-4.4077,-4.3513,-4.2978,-4.2426,0.0,0.0,0.0,0.0,-3.9474,-3.8715,-3.7974,-3.756,-3.7473,-3.5744,-3.4864,-3.4785,-3.3832,-3.3309,-3.3096,-3.2951,-3.2431,-3.1734,-3.1559,-3.0704,-2.9378,-2.8105,-2.6877,-2.5819,-2.5222,-2.4639,-2.4027,0.0,0.0,0.0,0.0,0.0,0.0,0.0,0.0,0.0,0.0,0.0,0.0,0.0,0.0,0.0,0.0,0.0,0.0,0.0,0.0,0.0,0.0,0.0,0.0,0.0,0.0,0.0,0.0,0.0,0.0,0.0,0.0,0.0,0.0,0.0,0.0,0.0,0.0,0.0,0.0,0.0,0.0,-2.9813,-3.0173,-3.0165,-2.9913,-2.9744,-3.0655,-3.1676,-2.9813,-3.0238,-3.1309,-2.9946,0.0,0.0,0.0,0.0,0.0,0.0,0.0,0.0,0.0,0.0,0.0,0.0,0.0,0.0,0.0,0.0,0.0,0.0,0.0,0.0,-3.9296,-4.1303,-4.3361,-4.5763,-4.6052,-4.5934,-4.5651,-4.566,-4.5889,-4.6365,-4.55,-4.4911,-4.5013,-4.4235,-4.3493,-4.2959,-4.2544,-4.1967,-4.1173,-4.0863,-4.0284,-3.9491,-3.875,-3.8077,-3.7473,0.0,0.0,-3.4769,-3.4234,-3.371,-3.3256,-3.3005,-3.2819,-3.264,-3.2322,-3.1166,-2.9407,-2.7642,-2.6558,-2.5819,-2.5222,-2.4527,-2.3971,0.0,0.0,0.0,0.0,0.0,0.0,0.0,0.0,0.0,0.0,0.0,0.0,0.0,0.0,0.0,0.0,0.0,0.0,0.0,0.0,0.0,0.0,0.0,0.0,0.0,0.0,0.0,0.0,0.0,0.0,0.0,0.0,0.0,0.0,0.0,0.0,0.0,0.0,0.0,0.0,0.0,0.0,-3.0774,-3.1206,-3.1004,-3.0568,-3.1123,-3.1444,-3.1505,-3.0826,-3.1011,-3.1418,-3.0719,-2.9669,-2.8613,0.0,0.0,0.0,0.0,0.0,0.0,0.0,0.0,0.0,0.0,0.0,0.0,0.0,0.0,-3.2617,0.0,0.0,-3.9585,-4.2566,-4.4143,-4.5451,-4.6721,-4.6913,-4.6954,-4.7078,-4.6825,-4.6751,-4.7078,-4.6302,-4.5681,-4.5324,-4.4767,-4.4073,-4.3141,-4.26,-4.2098,-4.1516,-4.1117,-4.0491,-3.9698,-3.8957,-3.8215,-3.7473,-3.6229,-3.5345,-3.4769,-3.4317,-3.3797,-3.3309,-3.3112,-3.2951,-3.2843,-3.2231,-3.1384,-3.0337,-2.813,-2.6726,-2.5819,-2.5222,-2.4759,-2.45,0.0,0.0,0.0,0.0,0.0,0.0,0.0,0.0,0.0,0.0,0.0,0.0,0.0,0.0,0.0,0.0,0.0,0.0,0.0,0.0,0.0,0.0,0.0,0.0,0.0,0.0,0.0,0.0,0.0,0.0,0.0,0.0,0.0,0.0,0.0,0.0,0.0,0.0,0.0,0.0,0.0,0.0,-3.1662,-3.14,-3.1016,-3.0783,-3.1834,-3.1184,-3.0007,-3.114,-3.0983,-3.0444,-3.1039,-3.0453,-2.9457,-2.8896,-2.783,0.0,0.0,0.0,0.0,0.0,0.0,0.0,0.0,0.0,-2.9936,-3.2506,-3.3796,-3.5596,-3.9266,-4.0675,-4.2225,-4.5173,-4.62,-4.6721,-4.6894,-4.6913,-4.7201,-4.8009,-4.7484,-4.7112,-4.7283,-4.6679,-4.5992,-4.5342,-4.499,-4.4331,-4.3284,-4.2619,-4.2074,-4.1648,-4.1163,-4.0578,-3.9939,-3.9181,-3.8508,-3.7905,-3.6608,-3.5701,-3.5174,-3.453,-3.3949,-3.345,-3.315,-3.3083,-3.2975,-3.2068,-3.1537,-3.1056,-2.8828,-2.7262,-2.6158,-2.5439,-2.51,-2.5032,0.0,0.0,0.0,0.0,0.0,0.0,0.0,0.0,0.0,0.0,0.0,0.0,0.0,0.0,0.0,0.0,0.0,0.0,0.0,0.0,0.0,0.0,0.0,0.0,0.0,0.0,0.0,0.0,0.0,0.0,0.0,0.0,0.0,0.0,0.0,0.0,0.0,0.0,0.0,0.0,0.0,0.0,-3.2441,-3.1839,-3.1601,-3.1663,-3.2581,-3.1486,-2.9908,-3.1672,-3.1324,-3.0565,-3.3013,-3.2246,-3.0578,-3.1197,0.0,-2.6792,-2.6768,-2.6232,-2.6074,-2.7627,-2.8073,-2.893,0.0,0.0,-3.3571,-3.6166,-3.7927,-3.9572,-4.1532,-4.307,-4.4432,-4.5592,-4.5761,-4.6009,-4.6797,-4.6913,-4.7201,-4.8009,-4.695,-4.6443,-4.7226,-4.6173,-4.5398,-4.5305,-4.4581,-4.399,-4.3719,-4.294,-4.2382,-4.2115,-4.1346,-4.0836,-4.075,-3.9974,-3.9526,-3.9439,-3.7981,-3.6994,-3.6472,-3.5257,-3.4464,-3.3949,-3.3256,-3.3185,-3.3557,-3.2659,-3.1637,-3.0453,-2.9159,-2.8163,-2.7366,-2.6212,-2.5453,-2.5086,0.0,0.0,0.0,0.0,0.0,0.0,0.0,0.0,0.0,0.0,0.0,0.0,0.0,0.0,0.0,0.0,0.0,0.0,0.0,0.0,0.0,0.0,0.0,0.0,0.0,0.0,0.0,0.0,0.0,0.0,0.0,0.0,0.0,0.0,0.0,0.0,0.0,0.0,0.0,0.0,0.0,0.0,-3.2004,-3.17,-3.0558,-2.9292,-3.0476,-2.9715,0.0,0.0,-2.9961,-2.9832,-3.205,-3.1755,-3.0578,-3.0404,-2.8623,0.0,-2.6247,-2.667,-2.7399,0.0,-2.94,-3.1018,-3.2968,-3.4178,-3.5798,-3.8882,-4.0389,-4.1825,-4.4065,-4.4888,-4.5529,0.0,-4.6417,-4.649,-4.6855,-4.6913,-4.6663,-4.597,-4.5682,-4.6058,-4.741,-4.6751,-4.6015,-4.5511,-4.496,-4.4397,-4.3822,-4.316,-4.2619,-4.2198,-4.1578,-4.0891,-4.0198,-3.9871,-3.9474,-3.9043,-3.7991,-3.7103,-3.6248,-3.5708,-3.5149,-3.4625,-3.4218,-3.4166,-3.4198,-3.3332,-3.2684,-3.197,-2.9616,-2.8526,-2.8048,-2.6082,-2.567,-2.5995,0.0,0.0,0.0,0.0,0.0,0.0,0.0,0.0,0.0,0.0,0.0,0.0,0.0,0.0,0.0,0.0,0.0,0.0,0.0,0.0,0.0,0.0,0.0,0.0,0.0,0.0,0.0,0.0,0.0,0.0,0.0,0.0,0.0,0.0,0.0,0.0,0.0,0.0,0.0,0.0,0.0,0.0,-3.1282,-3.0648,-2.9073,-2.7381,-2.8574,-2.7606,0.0,0.0,-2.7905,-2.7996,-3.0229,-3.046,-2.9786,-2.9418,-2.8089,-2.6689,-2.64,0.0,0.0,-2.9539,-3.1643,-3.3768,-3.4647,-3.6345,-3.8473,-4.0952,-4.2076,-4.3278,-4.5403,-4.5638,-4.5789,-4.6571,-4.6634,-4.6581,-4.6547,-4.6336,-4.572,-4.4451,-4.4479,-4.5168,-4.6623,-4.6436,-4.596,-4.5322,-4.4966,-4.4508,-4.3855,-4.3338,-4.2865,-4.244,-4.1803,-4.1076,-4.0175,-4.0101,-3.975,-3.9215,-3.8456,-3.7598,-3.6662,-3.5956,-3.5402,-3.5106,-3.4763,-3.4623,-3.4632,-3.3748,-3.3176,-3.2581,-2.9773,-2.8695,-2.8397,-2.5936,-2.5561,-2.6226,0.0,0.0,0.0,0.0,0.0,0.0,0.0,0.0,0.0,0.0,0.0,0.0,0.0,0.0,0.0,0.0,0.0,0.0,0.0,0.0,0.0,0.0,0.0,0.0,0.0,0.0,0.0,0.0,0.0,0.0,0.0,0.0,0.0,0.0,0.0,0.0,0.0,0.0,0.0,0.0,0.0,0.0,-3.0439,-2.8464,-2.7406,-2.7107,-2.7794,0.0,0.0,0.0,-2.5279,-2.4637,-2.8018,-2.8591,0.0,-2.9032,-2.8163,0.0,0.0,0.0,-3.0155,-3.2621,-3.5213,-3.736,-3.8238,-4.0385,-4.224,-4.2337,-4.306,-4.3938,-4.4852,-4.4928,-4.5068,-4.5813,-4.5873,-4.5781,-4.5659,-4.4913,-4.4355,-4.4316,-4.3643,-4.3489,0.0,-4.4455,-4.4458,-4.4439,-4.4188,-4.4011,-4.3897,-4.3371,-4.3069,-4.2995,-4.2015,-4.1472,-4.1455,-4.1053,-4.0836,-4.0802,-4.0008,-3.925,-3.8463,-3.5971,-3.4931,-3.509,-3.4279,-3.4203,-3.4632,-3.3748,-3.2658,-3.1375,-2.9442,-2.8685,-2.8394,-2.5887,-2.5032,-2.5141,0.0,0.0,0.0,0.0,0.0,0.0,0.0,0.0,0.0,0.0,0.0,0.0,0.0,0.0,0.0,0.0,0.0,0.0,0.0,0.0,0.0,0.0,0.0,0.0,0.0,0.0,0.0,0.0,0.0,0.0,0.0,0.0,0.0,0.0,0.0,0.0,0.0,0.0,0.0,0.0,0.0,0.0,-2.9416,-2.8108,-2.6234,-2.4307,0.0,0.0,0.0,0.0,0.0,0.0,-2.57,0.0,0.0,-2.6676,0.0,0.0,0.0,0.0,-3.3279,-3.4763,-3.6667,-3.8375,-3.9214,-4.0503,-4.1537,-4.1537,-4.1303,-4.1205,-4.1498,-4.1944,-4.2517,-4.3258,-4.4272,-4.5104,-4.5543,-4.5336,-4.4951,-4.4374,-4.4566,0.0,0.0,0.0,0.0,-4.4638,-4.443,-4.4151,-4.3897,-4.3682,-4.3373,-4.3014,-4.2342,-4.1821,-4.1516,-4.1071,-4.0888,-4.0871,-3.9247,-3.7848,-3.6776,-3.6008,-3.5658,-3.5623,-3.5377,-3.5291,-3.5105,-3.3891,-3.3146,-3.2536,-3.0193,-2.9075,-2.8455,-2.6343,-2.5342,-2.5032,0.0,0.0,0.0,0.0,0.0,0.0,0.0,0.0,0.0,0.0,0.0,0.0,0.0,0.0,0.0,0.0,0.0,0.0,0.0,0.0,0.0,0.0,0.0,0.0,0.0,0.0,0.0,0.0,0.0,0.0,0.0,0.0,0.0,0.0,0.0,0.0,0.0,0.0,0.0,0.0,0.0,0.0,-2.652,-2.5582,-2.3779,0.0,0.0,0.0,0.0,0.0,0.0,0.0,0.0,0.0,0.0,0.0,0.0,0.0,0.0,-3.336,-3.5864,-3.7422,-3.8902,-4.0084,-4.0603,-4.1166,-4.1225,-3.9995,-3.9292,-3.8804,-3.8492,-3.8857,-3.9669,-4.1021,-4.2322,-4.3537,-4.4588,-4.4716,-4.4605,-4.4335,-4.4528,-4.4605,0.0,0.0,0.0,-4.4768,-4.4546,-4.426,-4.3942,-4.3851,-4.3634,-4.3321,-4.2559,-4.2074,-4.1735,-4.1163,-4.0888,-4.0871,-3.9264,-3.7858,-3.6688,-3.6479,-3.6146,-3.5607,-3.558,-3.5338,-3.4793,-3.3767,-3.326,-3.2803,-3.0483,-2.9233,-2.849,-2.6605,-2.5508,-2.5005,0.0,0.0,0.0,0.0,0.0,0.0,0.0,0.0,0.0,0.0,0.0,0.0,0.0,0.0,0.0,0.0,0.0,0.0,0.0,0.0,0.0,0.0,0.0,0.0,0.0,0.0,0.0,0.0,0.0,0.0,0.0,0.0,0.0,0.0,0.0,0.0,0.0,0.0,0.0,0.0,0.0,0.0,-2.2252,-2.1399,0.0,0.0,0.0,0.0,0.0,0.0,0.0,0.0,0.0,0.0,0.0,0.0,0.0,-3.0459,-3.3985,-3.6148,-3.8042,-4.0605,-4.1795,-4.2301,-4.2226,-4.2142,-4.1127,-3.7789,-3.7067,-3.6774,0.0,0.0,-3.6797,-3.9234,-4.036,-4.1507,-4.3156,-4.3335,-4.3585,0.0,0.0,0.0,0.0,0.0,0.0,-4.4792,0.0,-4.4289,-4.4017,-4.3883,-4.3804,-4.3804,-4.2808,-4.2239,-4.2198,-4.1346,-4.0853,-4.0802,-4.0043,-3.9112,-3.8083,-3.7352,-3.6316,-3.5106,-3.4919,-3.4431,-3.3671,-3.3393,-3.2921,-3.2158,-3.0271,-2.9174,-2.8446,-2.659,-2.5508,-2.5005,0.0,0.0,0.0,0.0,0.0,0.0,0.0,0.0,0.0,0.0,0.0,0.0,0.0,0.0,0.0,0.0,0.0,0.0,0.0,0.0,0.0,0.0,0.0,0.0,0.0,0.0,0.0,0.0,0.0,0.0,0.0,0.0,0.0,0.0,0.0,0.0,0.0,0.0,0.0,0.0,0.0,0.0,-2.2678,0.0,0.0,0.0,0.0,0.0,0.0,0.0,0.0,0.0,0.0,0.0,-2.7642,0.0,0.0,-3.5557,-3.8604,-4.0637,-4.2058,-4.2839,-4.2226,-4.1091,-3.9845,-3.8551,-3.7028,-3.4842,-3.3886,-3.3163,0.0,0.0,0.0,-3.8429,-4.0982,0.0,-4.5722,-4.5976,0.0,-4.7048,0.0,-4.6682,-4.6278,-4.624,0.0,0.0,-4.4849,-4.4572,-4.4318,-4.4017,-4.3851,-4.3804,-4.316,-4.2598,-4.2198,-4.1346,-4.0578,-3.9991,-3.9802,-3.9046,-3.7879,-3.727,-3.6525,-3.5742,-3.4628,-3.3995,-3.3593,-3.2376,-3.1797,-3.1451,-2.9577,-2.8506,-2.7781,-2.6434,-2.5508,-2.5005,0.0,0.0,0.0,0.0,0.0,0.0,0.0,0.0,0.0,0.0,0.0,0.0,0.0,0.0,0.0,0.0,0.0,0.0,0.0,0.0,0.0,0.0,0.0,0.0,0.0,0.0,0.0,0.0,0.0,0.0,0.0,0.0,0.0,0.0,0.0,0.0,0.0,0.0,0.0,0.0,0.0,0.0,0.0,0.0,0.0,0.0,0.0,0.0,0.0,0.0,0.0,-2.6337,-2.7727,-2.9049,-3.0763,-3.416,0.0,-3.8595,-4.1762,-4.3325,-4.4139,-4.4633,-4.288,-4.0722,-3.942,-3.7204,-3.4725,-3.2246,-3.1348,0.0,-2.9865,-3.1895,0.0,0.0,0.0,0.0,-4.5438,-4.615,-4.6778,0.0,-4.8105,0.0,-4.7471,-4.7105,-4.6627,0.0,-4.5239,-4.4676,-4.4411,-4.4079,-4.3883,-4.3804,-4.3267,-4.2619,-4.1906,-4.1255,-4.0664,-4.0215,-4.0215,-3.9723,-3.8734,-3.7853,-3.6976,-3.6034,0.0,-3.3708,-3.3286,-3.2331,-3.1882,-3.172,-3.0342,-2.9327,-2.838,-2.7144,-2.6159,-2.5342,0.0,0.0,0.0,0.0,0.0,0.0,0.0,0.0,0.0,0.0,0.0,0.0,0.0,0.0,0.0,0.0,0.0,0.0,0.0,0.0,0.0,0.0,0.0,0.0,0.0,0.0,0.0,0.0,0.0,0.0,0.0,0.0,0.0,0.0,0.0,0.0,0.0,0.0,0.0,0.0,0.0,0.0,0.0,0.0,0.0,0.0,0.0,0.0,0.0,0.0,-2.6761,-2.8667,-3.0501,-3.2403,-3.4543,-3.7557,-3.9154,-4.0718,-4.4299,-4.5241,-4.5382,-4.6089,-4.3619,-4.0706,-3.9559,-3.656,-3.3124,-2.9904,0.0,-2.9064,-2.842,-2.9767,-3.2115,-3.558,0.0,-4.0031,-4.4244,-4.5475,-4.6471,-4.7932,-4.8298,-4.8355,-4.8125,-4.7471,-4.7009,-4.6913,-4.5592,-4.4701,-4.4465,-4.4091,-4.3883,-4.3804,-4.3267,-4.2541,-4.1604,-4.1209,-4.0965,-4.0888,-4.0888,-4.0614,-4.0086,-3.8706,-3.7411,-3.6214,-3.4695,0.0,-3.2897,-3.261,-3.2384,-3.2182,-3.1359,-3.0327,-2.9188,-2.7915,-2.6754,-2.5729,0.0,0.0,0.0,0.0,0.0,0.0,0.0,0.0,0.0,0.0,0.0,0.0,0.0,0.0,0.0,0.0,0.0,0.0,0.0,0.0,0.0,0.0,0.0,0.0,0.0,0.0,0.0,0.0,0.0,0.0,0.0,0.0,0.0,0.0,0.0,0.0,0.0,0.0,0.0,0.0,0.0,0.0,0.0,0.0,0.0,0.0,0.0,0.0,0.0,0.0,-2.9186,-3.0925,-3.2214,-3.4805,-3.7943,-4.096,-4.2563,-4.4126,-4.7753,-4.8288,-4.7742,-4.7293,-4.4059,-4.0229,-3.7315,-3.3456,0.0,0.0,-2.7446,-2.7622,-2.8205,-3.0255,-3.3207,-3.7299,-3.9302,-4.1806,-4.5974,-4.7191,-4.7778,0.0,-4.9375,-4.9683,-4.824,-4.7971,0.0,0.0,-4.5592,-4.4776,-4.4726,-4.425,-4.3929,-4.3804,-4.3267,-4.2714,-4.2074,-4.1604,-4.1237,-4.0888,-4.0888,-4.0823,-4.0676,-3.8744,-3.7533,-3.6835,-3.4729,0.0,-3.3011,-3.2151,-3.1743,-3.1566,-2.978,-2.8628,-2.7886,-2.6629,-2.5758,-2.5118,0.0,0.0,0.0,0.0,0.0,0.0,0.0,0.0,0.0,0.0,0.0,0.0,0.0,0.0,0.0,0.0,0.0,0.0,0.0,0.0,0.0,0.0,0.0,0.0,0.0,0.0,0.0,0.0,0.0,0.0,0.0,0.0,0.0,0.0,0.0,0.0,0.0,0.0,0.0,0.0,0.0,0.0,0.0,0.0,0.0,0.0,0.0,0.0,0.0,0.0,-2.9058,-3.1218,-3.3528,-3.6572,-3.9738,-4.1958,-4.3981,-4.609,-4.8735,-4.8964,-4.8393,-4.8107,-4.4119,-3.9517,-3.6653,0.0,0.0,0.0,-2.6685,-2.7266,-2.8086,-2.9959,0.0,-3.6334,-3.7579,-3.9847,-4.4886,-4.5907,-4.6778,-4.8567,-4.951,-4.9702,0.0,-4.799,-4.7317,-4.6932,-4.5592,-4.48,-4.48,-4.425,-4.3897,-4.3804,-4.3051,-4.2501,-4.2198,-4.1534,-4.1071,-4.0888,-4.0888,-4.0888,-4.0819,-3.8464,-3.7285,-3.697,-3.4194,0.0,-3.3018,-3.1795,-3.1622,-3.1975,-3.0271,-2.9252,-2.8523,-2.727,-2.6256,-2.5397,0.0,0.0,0.0,0.0,0.0,0.0,0.0,0.0,0.0,0.0,0.0,0.0,0.0,0.0,0.0,0.0,0.0,0.0,0.0,0.0,0.0,0.0,0.0,0.0,0.0,0.0,0.0,0.0,0.0,0.0,0.0,0.0,0.0,0.0,0.0,0.0,0.0,0.0,0.0,0.0,0.0,0.0,0.0,0.0,0.0,0.0,0.0,0.0,0.0,0.0,-2.8061,-3.0154,-3.3204,-3.6789,-4.0147,-4.1579,-4.4113,-4.6839,-4.8587,-4.8762,-4.8386,-4.8139,-4.3802,-3.8931,-3.6321,-3.2402,0.0,0.0,-2.639,-2.7242,-2.8056,-2.9435,-3.1579,0.0,-3.5596,-3.7501,-4.2986,-4.4066,-4.5297,0.0,-4.8798,0.0,-4.8875,-4.7682,0.0,-4.6913,-4.5592,0.0,-4.4624,-4.4151,-4.3883,-4.3804,-4.3014,-4.2444,-4.2198,-4.1332,-4.0845,-4.0629,-4.0457,-4.0388,-4.0336,-3.8176,-3.7085,-3.6738,-3.3986,0.0,0.0,-3.1648,-3.1587,-3.209,-3.0815,-2.9855,-2.9059,-2.7896,-2.6751,-2.5619,0.0,0.0,0.0,0.0,0.0,0.0,0.0,0.0,0.0,0.0,0.0,0.0,0.0,0.0,0.0,0.0,0.0,0.0,0.0,0.0,0.0,0.0,0.0,0.0,0.0,0.0,0.0,0.0,0.0,0.0,0.0,0.0,0.0,0.0,0.0,0.0,0.0,0.0,0.0,0.0,0.0,0.0,0.0,0.0,0.0,0.0,0.0,0.0,0.0,0.0,0.0,-2.7474,-2.9493,-3.3977,-3.8733,-4.002,0.0,0.0,-4.7838,-4.8425,-4.8221,-4.6704,-4.2985,-3.8843,-3.5556,0.0,0.0,-2.6078,-2.639,-2.7242,-2.8056,-2.8968,-3.0911,-3.496,0.0,-3.7102,-4.1428,-4.3335,-4.4412,-4.472,0.0,0.0,-4.7201,-4.699,0.0,-4.6913,-4.5592,0.0,-4.4109,-4.3942,-4.3883,-4.3804,-4.3582,-4.3069,-4.2198,-4.1479,-4.0651,-3.9802,-3.9112,-3.8801,-3.8767,-3.7868,-3.6961,-3.6058,-3.5018,0.0,0.0,-3.1894,-3.1431,-3.0865,-2.9882,-2.883,-2.7813,-2.705,-2.6056,-2.5061,0.0,0.0,0.0,0.0,0.0,0.0,0.0,0.0,0.0,0.0,0.0,0.0,0.0,0.0,0.0,0.0,0.0,0.0,0.0,0.0,0.0,0.0,0.0,0.0,0.0,0.0,0.0,0.0,0.0,0.0,0.0,0.0,0.0,0.0,0.0,0.0,0.0,0.0,0.0,0.0,0.0,0.0,0.0,0.0,0.0,0.0,0.0,0.0,0.0,0.0,0.0,0.0,-2.6668,-2.9582,0.0,0.0,-4.0531,-4.3882,-4.6134,-4.7287,-4.7533,-4.6392,-4.2096,-3.7526,-3.5226,0.0,0.0,-2.5941,-2.639,-2.7237,-2.7998,-2.8818,-3.0222,-3.2825,0.0,0.0,-3.82,-3.9758,-4.145,-4.3989,-4.5201,0.0,0.0,0.0,-4.5994,-4.5674,-4.5128,0.0,-4.4036,-4.3929,-4.3883,-4.3804,-4.3444,-4.2796,-4.1839,-4.1522,-4.069,-3.9391,-3.9316,-3.9026,-3.856,-3.7501,-3.678,-3.6306,-3.4079,0.0,0.0,-3.0811,-3.0342,-3.0682,-2.941,-2.8662,-2.8127,-2.7083,-2.6229,-2.5508,0.0,0.0,0.0,0.0,0.0,0.0,0.0,0.0,0.0,0.0,0.0,0.0,0.0,0.0,0.0,0.0,0.0,0.0,0.0,0.0,0.0,0.0,0.0,0.0,0.0,0.0,0.0,0.0,0.0,0.0,0.0,0.0,0.0,0.0,0.0,0.0,0.0,0.0,0.0,0.0,0.0,0.0,0.0,0.0,0.0,0.0,0.0,0.0,0.0,0.0,0.0,0.0,0.0,0.0,0.0,0.0,-3.7842,-4.1412,-4.4044,-4.5647,-4.6341,-4.5269,-4.1049,-3.6591,0.0,0.0,0.0,-2.6214,-2.678,-2.7602,-2.8314,-2.9123,-3.0125,0.0,0.0,-3.2795,-3.5911,-3.7084,-3.8911,0.0,0.0,-4.3855,0.0,-4.5663,-4.5381,-4.4825,-4.48,0.0,-4.4036,-4.3929,-4.3772,-4.3453,-4.3008,-4.225,-4.1086,-4.0806,-3.9997,-3.8709,-3.8676,-3.8422,-3.7887,-3.6789,-3.6146,-3.5893,-3.3317,0.0,0.0,-3.0054,-2.9593,-3.012,-2.896,-2.8347,-2.7913,-2.701,-2.6101,-2.53,0.0,0.0,0.0,0.0,0.0,0.0,0.0,0.0,0.0,0.0,0.0,0.0,0.0,0.0,0.0,0.0,0.0,0.0,0.0,0.0,0.0,0.0,0.0,0.0,0.0,0.0,0.0,0.0,0.0,0.0,0.0,0.0,0.0,0.0,0.0,0.0,0.0,0.0,0.0,0.0,0.0,0.0,0.0,0.0,0.0,0.0,0.0,0.0,0.0,0.0,0.0,0.0,0.0,0.0,0.0,0.0,-3.4923,-3.8926,-4.1613,-4.3598,-4.4516,-4.2856,-3.9841,-3.6386,0.0,0.0,-2.6997,-2.6997,-2.7678,-2.8499,-2.9149,-3.0003,-3.0831,-3.158,-3.1698,0.0,-3.5161,-3.6219,-3.7373,0.0,0.0,-4.1219,-4.297,-4.4624,-4.5381,-4.4825,-4.48,0.0,-4.4036,-4.3929,-4.3495,-4.2654,-4.2404,-4.1522,-3.9846,-3.9095,-3.8316,-3.7534,-3.6697,-3.6335,-3.6301,-3.5542,-3.4932,-3.4361,0.0,0.0,0.0,-3.0085,-2.9387,-2.8763,-2.8508,-2.771,-2.6745,-2.6678,-2.5604,-2.4137,0.0,0.0,0.0,0.0,0.0,0.0,0.0,0.0,0.0,0.0,0.0,0.0,0.0,0.0,0.0,0.0,0.0,0.0,0.0,0.0,0.0,0.0,0.0,0.0,0.0,0.0,0.0,0.0,0.0,0.0,0.0,0.0,0.0,0.0,0.0,0.0,0.0,0.0,0.0,0.0,0.0,0.0,0.0,0.0,0.0,0.0,0.0,0.0,0.0,0.0,0.0,0.0,0.0,0.0,0.0,0.0,0.0,0.0,-3.7209,-3.8759,-3.9375,-3.8305,-3.5423,-3.2421,-3.0771,0.0,0.0,-2.6117,-2.7288,-2.8148,-2.7679,-2.9246,-3.0444,-2.9993,-3.0929,0.0,0.0,0.0,0.0,-3.9777,-4.2412,-4.4201,0.0,0.0,-4.5438,-4.5096,-4.4896,0.0,-4.3503,-4.323,-4.2939,-4.2617,-4.2451,-4.1574,-3.9883,-3.9607,-3.8783,-3.7521,-3.7234,-3.6559,-3.5542,-3.5301,-3.4823,0.0,0.0,0.0,0.0,-2.9289,-2.8638,-2.8701,-2.7566,-2.7408,-2.7655,-2.6021,-2.5329,-2.5076,0.0,0.0,0.0,0.0,0.0,0.0,0.0,0.0,0.0,0.0,0.0,0.0,0.0,0.0,0.0,0.0,0.0,0.0,0.0,0.0,0.0,0.0,0.0,0.0,0.0,0.0,0.0,0.0,0.0,0.0,0.0,0.0,0.0,0.0,0.0,0.0,0.0,0.0,0.0,0.0,0.0,0.0,-2.5601,0.0,0.0,0.0,0.0,0.0,0.0,0.0,0.0,0.0,0.0,0.0,0.0,0.0,0.0,0.0,0.0,-3.5299,-3.6026,-3.5218,-3.2881,0.0,0.0,0.0,0.0,0.0,0.0,-2.7702,-2.7354,-2.8592,-2.9532,-2.9165,-3.0006,-3.1237,0.0,0.0,0.0,-3.9642,0.0,0.0,0.0,-4.4451,-4.4498,-4.4122,-4.3965,0.0,-4.2632,-4.2393,-4.21,-4.1724,-4.1562,-4.0758,-3.9278,-3.8779,-3.7948,-3.684,-3.6429,-3.5697,-3.4766,-3.4473,-3.4076,0.0,0.0,0.0,0.0,-2.8881,-2.8115,-2.7982,-2.6914,-2.6765,-2.6916,-2.5375,-2.4681,-2.4303,0.0,0.0,0.0,0.0,0.0,0.0,0.0,0.0,0.0,0.0,0.0,0.0,0.0,0.0,0.0,0.0,0.0,0.0,0.0,0.0,0.0,0.0,0.0,0.0,0.0,0.0,0.0,0.0,-2.7511,-2.8382,-2.8406,0.0,0.0,0.0,0.0,0.0,0.0,-2.5696,-2.5709,-2.5687,-2.5623,-2.5609,0.0,0.0,0.0,0.0,0.0,0.0,0.0,0.0,0.0,0.0,0.0,0.0,0.0,0.0,0.0,0.0,0.0,0.0,0.0,0.0,0.0,0.0,0.0,0.0,0.0,0.0,0.0,0.0,0.0,-2.8113,-2.8395,-2.9002,-2.9209,-3.0121,0.0,-3.391,0.0,0.0,-4.0969,0.0,-4.1816,-4.2643,-4.2947,-4.2363,-4.2318,0.0,-4.1556,-4.1526,-4.1059,-4.0081,-3.9914,-3.9282,-3.814,-3.6982,-3.6185,-3.5726,-3.464,-3.4059,-3.3973,-3.3179,-3.28,0.0,0.0,0.0,0.0,-2.8721,-2.7876,-2.6879,-2.6507,-2.5864,-2.5081,-2.4786,-2.3716,-2.2392,0.0,0.0,0.0,0.0,0.0,0.0,0.0,0.0,0.0,0.0,0.0,0.0,0.0,0.0,0.0,0.0,0.0,0.0,0.0,0.0,0.0,0.0,0.0,0.0,0.0,0.0,0.0,-2.7569,-2.9333,-3.0224,-3.0292,-3.1797,0.0,0.0,0.0,0.0,-2.5703,-2.5703,-2.5702,-2.5702,-2.5681,-2.568,0.0,0.0,0.0,0.0,-2.6371,-2.6598,0.0,0.0,0.0,0.0,0.0,0.0,0.0,0.0,-2.5645,0.0,0.0,0.0,0.0,0.0,0.0,0.0,0.0,0.0,0.0,0.0,0.0,0.0,0.0,0.0,-2.9043,-2.9148,-3.0254,-3.1506,-3.2737,0.0,0.0,-4.0104,-4.2874,-4.3932,-4.1989,-4.3143,-4.3633,-4.2677,0.0,-4.1912,-4.1027,-4.0784,-3.9993,-3.8479,-3.8349,-3.8007,-3.7353,-3.678,-3.5972,-3.4953,-3.4397,-3.3766,-3.3162,-3.2403,-3.1748,0.0,0.0,0.0,-2.8921,-2.7627,-2.713,-2.7147,-2.5644,-2.5497,-2.5925,-2.4025,-2.3403,-2.3336,0.0,0.0,0.0,0.0,0.0,0.0,0.0,0.0,0.0,0.0,0.0,0.0,0.0,0.0,0.0,0.0,0.0,0.0,0.0,0.0,0.0,0.0,0.0,0.0,0.0,0.0,0.0,0.0,0.0,-3.1439,0.0,0.0,0.0,0.0,0.0,0.0,-2.5703,-2.5703,-2.5703,-2.5703,-2.5703,0.0,0.0,0.0,0.0,0.0,-2.6189,-2.6344,0.0,-2.7783,-2.7618,-2.6949,0.0,0.0,0.0,0.0,-2.5498,0.0,0.0,0.0,0.0,0.0,0.0,0.0,0.0,0.0,0.0,0.0,0.0,0.0,0.0,0.0,0.0,0.0,-3.0527,0.0,0.0,0.0,-3.9777,-4.095,-4.2374,-4.3028,0.0,-4.2489,-4.2115,-4.1036,0.0,-4.0163,-3.9113,-3.8816,-3.8284,-3.7373,-3.7302,-3.7147,-3.6872,-3.6028,-3.5292,-3.4648,-3.3704,-3.2871,-3.2106,-3.1545,-3.0869,0.0,0.0,0.0,-2.8311,-2.7288,-2.6737,-2.639,-2.5098,-2.4874,-2.5083,-2.3172,-2.2597,-2.2526,0.0,0.0,0.0,0.0,0.0,0.0,0.0,0.0,0.0,0.0,0.0,0.0,0.0,0.0,0.0,0.0,0.0,0.0,0.0,0.0,0.0,0.0,0.0,0.0,0.0,0.0,0.0,0.0,0.0,0.0,0.0,0.0,0.0,0.0,0.0,0.0,-2.5703,-2.5703,-2.5703,-2.5703,-2.5703,0.0,0.0,0.0,0.0,0.0,0.0,0.0,0.0,-2.7686,-2.7721,-2.7212,-2.7807,0.0,0.0,0.0,0.0,0.0,0.0,0.0,0.0,0.0,0.0,0.0,0.0,0.0,0.0,0.0,0.0,0.0,0.0,0.0,0.0,0.0,0.0,0.0,-3.5776,-3.7719,-3.9488,-4.1373,-4.1296,0.0,-4.2431,-4.1277,-4.006,0.0,0.0,-3.801,-3.7061,-3.6715,-3.6552,-3.6519,-3.6259,-3.6122,-3.6044,-3.4942,-3.4232,-3.3888,-3.2517,-3.1532,-3.0919,-3.0508,-2.9972,-2.9317,0.0,0.0,-2.7588,-2.6947,-2.6151,-2.5266,-2.4571,-2.4122,-2.3736,-2.2361,-2.1744,-2.1403,0.0,0.0,0.0,0.0,0.0,0.0,0.0,0.0,0.0,0.0,0.0,0.0,0.0,0.0,0.0,0.0,0.0,0.0,0.0,0.0,0.0,0.0,0.0,0.0,0.0,0.0,0.0,0.0,0.0,0.0,-3.4766,-3.7715,-3.6172,0.0,0.0,-2.6387,-2.5703,-2.5703,-2.5703,-2.5703,-2.5703,0.0,0.0,0.0,0.0,0.0,0.0,0.0,0.0,-2.7949,-2.8202,-2.7968,-2.731,0.0,0.0,0.0,0.0,0.0,0.0,0.0,0.0,0.0,0.0,0.0,0.0,0.0,0.0,0.0,0.0,0.0,0.0,0.0,-2.9944,0.0,0.0,-3.5892,0.0,0.0,-4.1912,-4.0816,0.0,-4.2701,-4.0123,-4.0258,-4.006,0.0,0.0,-3.7527,-3.7024,-3.6321,-3.5848,-3.569,-3.4309,-3.3566,-3.3542,-3.3405,-3.2481,-3.0783,-3.0192,-2.9851,-2.973,-2.9074,-2.8696,-2.8506,0.0,-2.673,-2.6725,-2.508,-2.449,-2.4543,-2.3438,-2.3318,-2.3616,-2.1887,-2.1872,-2.2525,0.0,0.0,0.0,0.0,0.0,0.0,0.0,0.0,0.0,0.0,0.0,0.0,0.0,0.0,0.0,0.0,0.0,0.0,0.0,0.0,0.0,0.0,0.0,0.0,0.0,0.0,0.0,0.0,0.0,-3.6758,-3.8184,-3.6953,-3.4414,-3.0762,0.0,-2.6074,-2.5703,-2.5703,-2.5703,-2.5703,0.0,0.0,0.0,0.0,0.0,0.0,0.0,0.0,0.0,0.0,-2.7598,-2.7519,-2.7087,0.0,0.0,0.0,0.0,0.0,0.0,0.0,0.0,0.0,0.0,0.0,0.0,0.0,0.0,0.0,0.0,0.0,0.0,0.0,-3.1091,-3.2392,0.0,-3.793,-3.8988,-4.0239,-4.0912,0.0,0.0,-4.1162,-4.0046,-3.9892,0.0,0.0,0.0,0.0,-3.5363,-3.435,-3.3768,-3.3676,-3.2817,-3.1931,-3.1014,-3.0837,-3.0749,-3.0697,-3.0251,-2.9548,-2.8568,-2.8034,-2.7351,-2.6523,0.0,-2.5605,-2.5678,-2.4412,-2.4,-2.406,-2.3068,-2.2907,-2.2998,-2.1242,-2.0448,-2.0161,0.0,0.0,0.0,0.0,0.0,0.0,0.0,0.0,0.0,0.0,0.0,0.0,0.0,0.0,0.0,0.0,0.0,0.0,0.0,0.0,0.0,0.0,0.0,0.0,0.0,0.0,0.0,-3.6309,-3.6719,-3.8184,-4.0488,-3.5469,-3.2226,0.0,0.0,-2.5898,-2.5703,-2.5703,-2.5703,-2.5703,0.0,0.0,0.0,0.0,0.0,0.0,0.0,0.0,0.0,0.0,0.0,0.0,0.0,0.0,0.0,0.0,0.0,-2.5665,-2.5863,0.0,0.0,0.0,0.0,0.0,0.0,0.0,0.0,0.0,0.0,0.0,0.0,-3.0056,0.0,-3.5258,-3.7613,-3.8969,-3.8892,-3.9642,-4.0335,-4.0758,-4.0065,-3.9738,-4.0181,0.0,0.0,0.0,0.0,0.0,-3.3309,-3.2353,-3.1749,-3.148,-3.1107,-3.0312,-2.9024,-2.8544,-2.8943,-3.0202,-2.9589,-2.8641,-2.7408,-2.697,-2.6109,-2.4988,-2.4798,-2.4729,-2.4671,-2.376,-2.344,-2.3341,-2.2563,-2.2092,-2.179,-2.0763,-1.9362,-1.7977,0.0,0.0,0.0,0.0,0.0,0.0,0.0,0.0,0.0,0.0,0.0,0.0,0.0,0.0,0.0,0.0,0.0,0.0,0.0,0.0,0.0,0.0,0.0,0.0,0.0,-3.3574,-3.4531,-3.7207,-3.8828,-3.9336,-3.8691,-3.4336,-3.1367,-2.9609,0.0,-2.6465,-2.5703,-2.5703,-2.5703,-2.5703,-2.5703,0.0,0.0,0.0,0.0,0.0,0.0,0.0,0.0,0.0,0.0,0.0,0.0,0.0,0.0,0.0,0.0,-2.5879,-2.6679,-2.7578,0.0,0.0,0.0,0.0,0.0,0.0,0.0,0.0,0.0,0.0,0.0,-3.0049,-3.1894,-3.6118,-3.7533,-3.8892,-4.12,0.0,-4.2547,-4.1797,-4.0931,-4.0142,0.0,0.0,0.0,0.0,0.0,0.0,-3.1358,-3.1212,-3.0695,-2.9613,-2.8793,-2.8307,-2.819,-2.7315,-2.6999,-2.7287,-2.6197,-2.5865,-2.6191,-2.5488,-2.5109,-2.4971,-2.4201,-2.3935,-2.3867,-2.2524,-2.1987,-2.1954,-2.1239,-2.0381,-1.9664,-2.0651,-1.9677,-1.7977,0.0,0.0,0.0,0.0,0.0,0.0,0.0,0.0,0.0,0.0,0.0,0.0,0.0,0.0,0.0,0.0,0.0,0.0,0.0,0.0,0.0,0.0,0.0,-3.0703,-3.3086,-3.4902,-3.7109,-3.9726,-3.9844,-3.8906,-3.6914,-3.3691,0.0,0.0,0.0,-2.7324,-2.6504,-2.6504,-2.6504,-2.6465,-2.5918,-2.5703,0.0,0.0,0.0,0.0,0.0,0.0,0.0,0.0,0.0,0.0,0.0,0.0,0.0,0.0,0.0,0.0,-2.6094,-2.7184,0.0,0.0,0.0,0.0,0.0,0.0,0.0,0.0,0.0,0.0,0.0,0.0,-3.3575,-3.5739,-3.8034,-3.9719,-4.0181,-4.1431,-4.1777,-4.0412,-3.995,-3.9008,0.0,0.0,0.0,0.0,0.0,0.0,-3.0581,-2.9433,-2.8558,-2.8053,-2.7587,-2.7063,-2.6483,-2.6131,-2.5873,-2.5679,-2.5756,-2.5498,-2.4913,-2.4634,-2.417,-2.3557,-2.3264,-2.3117,-2.3095,-2.2161,-2.1796,-2.1745,-2.0889,-2.0154,-1.956,-1.971,-1.9013,-1.811,0.0,0.0,0.0,0.0,0.0,0.0,0.0,0.0,0.0,0.0,0.0,0.0,0.0,0.0,0.0,0.0,0.0,0.0,0.0,0.0,0.0,0.0,0.0,-3.0137,-3.2168,-3.4746,-3.707,-3.9141,-3.8262,-3.6934,-3.5117,0.0,0.0,0.0,0.0,0.0,0.0,-2.7226,-2.6992,-2.6914,-2.6055,-2.5703,0.0,0.0,0.0,0.0,0.0,0.0,0.0,0.0,0.0,0.0,0.0,0.0,0.0,0.0,0.0,0.0,-2.5703,-2.6539,0.0,0.0,0.0,0.0,0.0,0.0,0.0,0.0,0.0,0.0,0.0,0.0,0.0,0.0,-3.7527,-3.9259,-3.8926,-3.9873,-4.0065,-3.8642,-3.8257,0.0,0.0,0.0,0.0,0.0,0.0,0.0,0.0,-2.7966,-2.7081,-2.6366,-2.6469,-2.608,-2.5171,-2.5134,-2.4962,-2.4678,-2.5135,-2.4945,-2.4173,-2.3868,-2.3337,-2.2712,-2.2712,-2.2642,-2.249,-2.2015,-2.1678,-2.1417,-2.0745,-2.017,-1.9639,-1.9244,-1.8693,-1.8163,0.0,0.0,0.0,0.0,0.0,0.0,0.0,0.0,0.0,0.0,0.0,0.0,0.0,0.0,0.0,0.0,0.0,0.0,0.0,0.0,0.0,0.0,0.0,-2.9492,-3.207,-3.293,-3.3789,-3.4687,-3.3828,-3.3379,-3.332,0.0,0.0,0.0,0.0,0.0,0.0,0.0,-2.7012,-2.6934,-2.6074,-2.5723,-2.5703,0.0,0.0,0.0,0.0,0.0,0.0,0.0,0.0,0.0,0.0,0.0,0.0,0.0,0.0,-2.5703,-2.5703,0.0,0.0,0.0,0.0,0.0,0.0,0.0,0.0,0.0,0.0,0.0,0.0,0.0,0.0,-3.4121,-3.5732,-3.7146,-3.7882,-3.7969,-3.7661,-3.6776,0.0,0.0,0.0,0.0,0.0,0.0,0.0,0.0,0.0,-2.6944,-2.6491,-2.4572,-2.528,-2.5263,-2.4394,-2.4339,-2.4266,-2.4192,-2.3919,-2.3929,-2.4156,-2.3145,-2.2712,-2.2712,-2.2712,-2.2517,-2.2164,-2.1911,-2.1417,-2.0794,-2.0711,-2.0289,-1.969,-1.9566,-1.8936,-1.8202,0.0,0.0,0.0,0.0,0.0,0.0,0.0,0.0,0.0,0.0,0.0,0.0,0.0,0.0,0.0,0.0,0.0,0.0,0.0,0.0,0.0,0.0,0.0,0.0,0.0,0.0,-3.0508,-3.3789,-3.2969,-3.2246,0.0,0.0,0.0,-2.9972,0.0,0.0,0.0,0.0,-2.8456,-2.7825,-2.7617,-2.7168,-2.6602,0.0,0.0,0.0,0.0,0.0,0.0,0.0,0.0,0.0,0.0,0.0,0.0,0.0,-2.5703,-2.5703,-2.5703,0.0,0.0,0.0,0.0,0.0,0.0,0.0,0.0,0.0,0.0,0.0,0.0,0.0,0.0,-3.4428,-3.5834,-3.6756,-3.6373,-3.6844,-3.6652,-3.5116,0.0,0.0,0.0,0.0,0.0,0.0,0.0,0.0,0.0,-2.5844,-2.5284,-2.4517,-2.4723,-2.4706,-2.4394,-2.4394,-2.4303,-2.4192,-2.3978,-2.3775,-2.3608,-2.319,-2.2893,-2.2712,-2.2712,-2.2642,-2.2517,-2.2015,-2.1417,-2.0794,-2.0561,-2.0392,-2.0135,-1.95,-1.9147,-1.8846,0.0,0.0,0.0,0.0,0.0,0.0,0.0,0.0,0.0,0.0,0.0,0.0,0.0,0.0,0.0,0.0,0.0,0.0,0.0,0.0,0.0,0.0,0.0,0.0,0.0,-2.7598,-2.8965,0.0,0.0,0.0,0.0,0.0,0.0,-3.0626,0.0,-3.1806,0.0,0.0,-2.9036,-2.8209,-2.8261,-2.7773,-2.6992,0.0,0.0,0.0,0.0,0.0,0.0,0.0,0.0,0.0,0.0,0.0,0.0,0.0,-2.5449,-2.5254,0.0,0.0,0.0,0.0,0.0,0.0,0.0,0.0,0.0,0.0,0.0,0.0,0.0,-3.4237,0.0,-3.4037,-3.4855,-3.5165,-3.4265,-3.4594,-3.4254,0.0,0.0,0.0,0.0,0.0,0.0,0.0,0.0,0.0,0.0,-2.4904,-2.4313,-2.4113,-2.3733,-2.363,-2.3929,-2.3578,-2.3544,-2.3787,-2.3176,-2.2815,-2.2629,-2.2947,-2.302,-2.285,-2.2427,-2.234,-2.2429,-2.1652,-2.1187,-2.0958,-2.0679,-2.041,-2.0185,-1.9711,-1.9258,-1.886,0.0,0.0,0.0,0.0,0.0,0.0,0.0,0.0,0.0,0.0,0.0,0.0,0.0,0.0,0.0,0.0,0.0,0.0,0.0,0.0,0.0,0.0,0.0,0.0,0.0,0.0,0.0,0.0,0.0,0.0,0.0,0.0,-3.1984,-3.2006,0.0,-3.2162,0.0,-2.9692,-2.8864,-2.8088,-2.8239,-2.7773,-2.6992,-2.6992,0.0,0.0,0.0,0.0,0.0,0.0,0.0,0.0,0.0,0.0,0.0,0.0,-2.5078,0.0,0.0,0.0,0.0,0.0,0.0,0.0,0.0,0.0,0.0,0.0,0.0,0.0,-3.4625,-3.3842,-3.3256,-3.3128,-3.3147,-3.2822,-3.1817,-3.1685,0.0,0.0,0.0,0.0,0.0,0.0,0.0,0.0,0.0,0.0,0.0,-2.4169,-2.3606,-2.3403,-2.251,-2.2365,-2.3089,-2.2317,-2.2303,-2.3061,-2.1972,-2.1424,-2.1441,-2.2433,-2.2867,-2.2807,-2.1881,-2.1696,-2.191,-2.0905,-2.0737,-2.1052,-2.0734,-2.0307,-1.9858,-1.9884,-1.931,-1.8511,0.0,0.0,0.0,0.0,0.0,0.0,0.0,0.0,0.0,0.0,0.0,0.0,0.0,0.0,0.0,0.0,0.0,0.0,0.0,0.0,0.0,0.0,0.0,0.0,0.0,0.0,0.0,0.0,0.0,0.0,0.0,0.0,0.0,-3.1036,0.0,-3.0903,-2.8589,-2.851,-2.7944,-2.7172,-2.792,-2.7699,-2.6916,-2.6916,-2.6383,0.0,0.0,0.0,0.0,0.0,0.0,0.0,0.0,-2.5703,-2.5703,-2.5703,-2.5078,0.0,0.0,0.0,0.0,0.0,0.0,0.0,0.0,0.0,0.0,0.0,0.0,-3.5415,-3.4587,-3.3816,-3.3088,-3.2436,-3.2298,-3.1724,-3.0155,-2.998,0.0,0.0,0.0,0.0,0.0,0.0,0.0,0.0,0.0,0.0,-2.411,-2.3896,-2.3434,-2.2665,-2.2323,-2.2237,-2.2406,-2.2117,-2.2057,0.0,-2.1924,-2.1677,-2.1461,-2.1302,-2.1121,-2.0973,-2.0746,-2.0592,-2.0441,-1.9984,-1.9717,-1.9567,-1.9272,-1.8967,-1.8794,-1.9055,-1.8897,-1.8599,0.0,0.0,0.0,0.0,0.0,0.0,0.0,0.0,0.0,0.0,0.0,0.0,0.0,0.0,0.0,0.0,0.0,0.0,0.0,0.0,0.0,0.0,0.0,0.0,0.0,0.0,0.0,0.0,0.0,0.0,0.0,0.0,0.0,-3.0689,0.0,-3.0447,-2.8004,-2.8106,-2.7623,-2.6882,-2.7814,-2.7675,-2.6891,-2.6891,-2.6334,-2.5552,-2.5593,0.0,0.0,0.0,0.0,0.0,0.0,0.0,-2.5703,-2.5703,-2.5078,-2.4589,0.0,0.0,0.0,0.0,0.0,0.0,0.0,0.0,0.0,0.0,-3.3759,-3.4167,-3.3355,-3.2565,-3.1807,-3.1031,-3.0512,-2.9776,-2.8434,0.0,0.0,0.0,0.0,0.0,0.0,0.0,0.0,0.0,0.0,-2.3861,-2.3352,-2.2899,-2.2435,-2.1939,-2.1393,-2.1273,-2.162,-2.1139,-2.1053,-2.1371,-2.0954,-2.0558,-2.0228,-2.059,-2.0615,-2.0377,-2.0033,-1.9925,-2.001,-1.9301,-1.9061,-1.9111,-1.881,-1.8499,-1.8222,-1.8416,-1.8175,-1.785,0.0,0.0,0.0,0.0,0.0,0.0,0.0,0.0,0.0,0.0,0.0,0.0,0.0,0.0,0.0,0.0,0.0,0.0,0.0,0.0,0.0,0.0,0.0,0.0,0.0,0.0,0.0,0.0,0.0,0.0,0.0,0.0,0.0,-3.0626,0.0,0.0,-2.7976,-2.7755,-2.722,-2.665,-2.742,-2.7303,-2.6656,-2.6656,-2.6179,-2.5511,-2.5561,-2.5551,-2.5517,-2.5552,0.0,0.0,0.0,0.0,-2.5703,-2.5703,-2.5078,-2.4588,0.0,0.0,0.0,0.0,0.0,0.0,0.0,0.0,0.0,0.0,-3.1787,-3.2192,-3.1576,-3.0831,-3.0041,-2.9277,-2.8557,-2.7776,-2.69,0.0,0.0,0.0,0.0,0.0,0.0,0.0,0.0,0.0,0.0,-2.2735,-2.2581,-2.1837,-2.135,-2.1216,-2.0382,-2.0214,-2.0796,-2.007,-1.9999,-2.0585,-1.9812,-1.9216,-1.8842,-1.9911,-2.0254,-1.9981,-1.9378,-1.9356,-1.9695,-1.866,-1.848,-1.8849,-1.8473,-1.808,-1.7669,-1.7775,-1.7359,-1.6875,0.0,0.0,0.0,0.0,0.0,0.0,0.0,0.0,0.0,0.0,0.0,0.0,0.0,0.0,0.0,0.0,0.0,0.0,0.0,0.0,0.0,0.0,0.0,0.0,0.0,0.0,0.0,0.0,0.0,0.0,0.0,0.0,0.0,0.0,0.0,0.0,0.0,-2.6455,-2.5778,-2.5681,-2.5812,-2.58,-2.5696,-2.5696,-2.5611,-2.5507,-2.5515,-2.5515,-2.5495,-2.5511,-2.5521,0.0,0.0,0.0,-2.5694,-2.5702,-2.5077,0.0,0.0,0.0,0.0,0.0,0.0,0.0,0.0,0.0,0.0,0.0,-2.9198,-2.979,-2.9736,-2.9129,-2.8337,-2.7483,-2.7251,-2.6878,0.0,0.0,0.0,0.0,0.0,0.0,0.0,0.0,0.0,0.0,-2.2921,-2.2466,-2.1716,-2.1554,-2.118,-2.0469,-2.0202,-2.0058,-2.0055,-1.9818,-1.9731,-1.975,-1.9415,-1.9086,-1.8807,-1.8813,-1.8679,-1.8504,-1.84,-1.8396,-1.8417,-1.7796,-1.7583,-1.7609,-1.7077,-1.662,-1.6331,-1.6849,-1.6723,-1.6398,0.0,0.0,0.0,0.0,0.0,0.0,0.0,0.0,0.0,0.0,0.0,0.0,0.0,0.0,0.0,0.0,0.0,0.0,0.0,0.0,0.0,0.0,0.0,0.0,0.0,0.0,0.0,0.0,0.0,0.0,0.0,-2.8136,-2.8999,0.0,0.0,0.0,0.0,0.0,0.0,-2.5511,-2.5511,-2.5511,-2.5511,-2.5511,-2.5511,-2.5511,-2.5511,-2.5511,-2.5492,-2.549,-2.5493,-2.551,-2.5561,0.0,0.0,0.0,0.0,0.0,0.0,0.0,0.0,0.0,0.0,0.0,0.0,0.0,0.0,0.0,-2.7239,-2.7342,-2.7897,-2.7755,-2.7288,-2.641,-2.6273,0.0,0.0,0.0,0.0,0.0,0.0,0.0,0.0,0.0,0.0,0.0,-2.1727,-2.122,-2.0853,-2.0835,-2.0677,-2.0312,-2.0162,-2.004,-1.9888,-1.9762,-1.9649,-1.9545,-1.928,-1.9034,-1.8789,-1.8601,-1.8383,-1.8211,-1.8211,-1.8108,-1.7939,-1.7566,-1.7313,-1.7142,-1.6738,-1.6355,-1.6026,-1.6302,-1.6085,-1.5792,0.0,0.0,0.0,0.0,0.0,0.0,0.0,0.0,0.0,0.0,0.0,0.0,0.0,0.0,0.0,0.0,0.0,0.0,0.0,0.0,0.0,0.0,0.0,0.0,0.0,0.0,0.0,0.0,0.0,0.0,-2.8196,-2.8131,-2.8994,0.0,-2.9016,0.0,0.0,0.0,0.0,0.0,0.0,0.0,0.0,0.0,0.0,-2.5201,-2.5414,-2.5511,-2.5511,-2.5511,-2.549,-2.5499,-2.5498,-2.558,0.0,0.0,0.0,0.0,0.0,0.0,0.0,0.0,0.0,0.0,0.0,0.0,0.0,0.0,-2.5809,-2.5721,-2.6459,-2.6649,-2.6468,-2.5805,0.0,0.0,0.0,0.0,0.0,0.0,0.0,0.0,0.0,0.0,0.0,0.0,-2.0729,-2.032,-2.0302,-2.0294,-2.0289,-2.0312,-2.0208,-2.0079,-1.995,-1.9786,-1.963,-1.9497,-1.9292,-1.9099,-1.8896,-1.8697,-1.8485,-1.8298,-1.8232,-1.8087,-1.7895,-1.7542,-1.7288,-1.7068,-1.6738,-1.6355,-1.5996,-1.5996,-1.5697,-1.5341,0.0,0.0,0.0,0.0,0.0,0.0,0.0,0.0,0.0,0.0,0.0,0.0,0.0,0.0,0.0,0.0,0.0,0.0,0.0,0.0,0.0,0.0,0.0,0.0,0.0,0.0,0.0,0.0,0.0,0.0,-2.8193,-2.8126,-2.8991,-3.0554,-2.9636,-2.8315,-2.676,0.0,0.0,0.0,0.0,0.0,0.0,0.0,0.0,0.0,-2.5201,-2.5511,-2.5511,-2.5511,-2.5492,-2.5507,-2.5499,-2.5504,-2.5521,0.0,0.0,0.0,0.0,0.0,0.0,0.0,0.0,0.0,0.0,0.0,0.0,0.0,-2.4999,-2.5556,-2.5735,-2.5765,-2.5746,0.0,0.0,0.0,0.0,0.0,0.0,0.0,0.0,0.0,0.0,0.0,0.0,0.0,-2.0461,-2.0371,-2.0308,-2.0296,-2.0308,-2.0292,-2.0285,-2.0225,-2.0088,-1.9832,-1.9643,-1.9504,-1.9504,-1.9368,-1.9168,-1.8965,-1.8771,-1.8565,-1.8301,-1.819,-1.813,-1.7612,-1.7384,-1.7337,-1.6815,-1.6355,-1.5996,-1.5996,-1.5697,-1.5253,0.0,0.0,0.0,0.0,0.0,0.0,0.0,0.0,0.0,0.0,0.0,0.0,0.0,0.0,0.0,0.0,0.0,0.0,0.0,0.0,0.0,0.0,0.0,0.0,0.0,0.0,0.0,0.0,0.0,-2.6269,-2.7359,-2.7298,-2.7581,-2.8171,-2.8357,-2.8122,-2.7464,-2.6401,0.0,0.0,0.0,0.0,0.0,0.0,0.0,0.0,0.0,-2.5511,-2.5511,-2.5511,-2.5511,-2.5492,-2.5503,-2.5506,-2.5515,0.0,0.0,0.0,0.0,0.0,0.0,0.0,0.0,0.0,0.0,0.0,-2.3499,-2.4115,-2.4509,-2.4743,-2.4782,-2.5294,0.0,0.0,0.0,0.0,0.0,0.0,0.0,0.0,0.0,0.0,0.0,0.0,0.0,0.0,0.0,-2.0453,-2.0437,-2.0349,-2.0289,-2.0308,-1.9673,-1.901,-1.8304,-1.8681,-1.8821,-1.8739,-1.9249,-1.939,-1.9202,-1.9135,-1.8913,-1.8585,-1.8487,-1.8368,-1.8222,-1.7641,-1.7432,-1.7408,-1.6841,-1.6421,-1.6191,-1.6052,-1.5769,-1.5448,0.0,0.0,0.0,0.0,0.0,0.0,0.0,0.0,0.0,0.0,0.0,0.0,0.0,0.0,0.0,0.0,0.0,0.0,0.0,0.0,0.0,0.0,0.0,0.0,0.0,0.0,0.0,0.0,0.0,0.0,0.0,0.0,-2.6979,-2.7258,-2.7466,-2.7406,0.0,0.0,0.0,-2.5511,0.0,0.0,-2.5105,0.0,0.0,0.0,-2.5395,-2.5511,-2.5511,-2.5511,-2.5318,-2.5105,-2.5414,0.0,0.0,0.0,0.0,0.0,0.0,0.0,0.0,0.0,0.0,0.0,0.0,0.0,-2.2622,-2.3216,-2.3605,-2.3836,-2.3858,0.0,0.0,0.0,0.0,0.0,0.0,0.0,0.0,0.0,0.0,0.0,0.0,0.0,0.0,0.0,0.0,0.0,-2.05,-2.0391,-2.0185,-1.9864,-1.95,-1.8696,-1.7414,-1.8124,-1.8315,-1.7969,-1.8739,-1.9029,-1.8907,-1.9054,-1.8982,-1.8734,-1.8585,-1.843,-1.827,-1.7777,-1.7549,-1.7439,-1.6926,-1.6501,-1.6191,-1.6052,-1.5784,-1.5433,0.0,0.0,0.0,0.0,0.0,0.0,0.0,0.0,0.0,0.0,0.0,0.0,0.0,0.0,0.0,0.0,0.0,0.0,0.0,0.0,0.0,0.0,0.0,0.0,0.0,0.0,0.0,0.0,0.0,0.0,0.0,0.0,-2.7284,0.0,-2.7071,-2.6227,-2.555,0.0,-2.6199,-2.5511,0.0,-2.4989,-2.4331,0.0,0.0,0.0,-2.5201,-2.5511,0.0,-2.5511,0.0,0.0,0.0,0.0,0.0,0.0,0.0,0.0,0.0,0.0,0.0,0.0,0.0,0.0,0.0,0.0,-2.1604,-2.1636,-2.2314,-2.2901,0.0,0.0,0.0,0.0,0.0,0.0,0.0,0.0,0.0,0.0,0.0,0.0,0.0,0.0,0.0,0.0,-2.0594,-2.0566,-2.0503,-2.0445,-1.9962,-1.9023,-1.9831,-1.9408,-1.7625,-1.8327,-1.8237,-1.7337,-1.8031,-1.8321,-1.8308,-1.8797,-1.8996,-1.8945,-1.8566,-1.8368,-1.829,-1.8014,-1.7732,-1.7462,-1.7126,-1.6607,-1.5996,-1.5996,-1.5697,-1.5253,0.0,0.0,0.0,0.0,0.0,0.0,0.0,0.0,0.0,0.0,0.0,0.0,0.0,0.0,0.0,0.0,0.0,0.0,0.0,0.0,0.0,0.0,0.0,0.0,0.0,0.0,0.0,0.0,0.0,0.0,0.0,0.0,0.0,0.0,-2.5945,-2.5718,-2.5511,-2.5743,0.0,-2.5511,-2.5511,-2.5356,0.0,0.0,0.0,0.0,0.0,-2.5511,-2.5511,0.0,-2.5337,-2.5182,0.0,0.0,0.0,0.0,0.0,0.0,-2.551,0.0,0.0,0.0,0.0,0.0,0.0,0.0,0.0,-2.2354,-2.2699,-2.2708,0.0,0.0,0.0,0.0,0.0,0.0,0.0,0.0,0.0,0.0,0.0,0.0,0.0,0.0,0.0,0.0,-2.0602,-2.0599,-2.0568,-2.046,-1.9983,-1.9091,-1.927,-1.8782,-1.7611,-1.8327,-1.851,-1.8193,-1.8888,-1.8855,-1.8167,-1.8889,-1.8772,-1.8018,-1.843,-1.8526,-1.8365,-1.8035,-1.7732,-1.7462,-1.6977,-1.6554,-1.6191,-1.5826,-1.5639,-1.5403,0.0,0.0,0.0,0.0,0.0,0.0,0.0,0.0,0.0,0.0,0.0,0.0,0.0,0.0,0.0,0.0,0.0,0.0,0.0,0.0,0.0,0.0,0.0,0.0,0.0,0.0,0.0,0.0,0.0,0.0,0.0,0.0,0.0,0.0,0.0,0.0,0.0,0.0,0.0,0.0,-2.5511,0.0,0.0,-2.5511,-2.5511,0.0,0.0,0.0,-2.5511,-2.5511,-2.5511,0.0,0.0,0.0,0.0,0.0,0.0,0.0,0.0,0.0,0.0,0.0,0.0,0.0,-2.2074,-2.1211,-2.0598,0.0,-2.0732,-2.0572,0.0,0.0,0.0,0.0,0.0,0.0,0.0,0.0,0.0,0.0,0.0,0.0,0.0,-2.0498,-2.0522,-2.0566,-2.0586,-2.0581,-2.0564,-2.0457,-1.9993,-1.9121,-1.9393,-1.8916,-1.7611,-1.8004,-1.7953,-1.746,-1.7864,-1.7929,-1.7715,-1.8364,-1.8485,-1.8213,-1.8484,-1.8526,-1.8385,-1.8117,-1.7839,-1.7532,-1.715,-1.6696,-1.6274,-1.5996,-1.574,-1.5448,0.0,0.0,0.0,0.0,0.0,0.0,0.0,0.0,0.0,0.0,0.0,0.0,0.0,0.0,0.0,0.0,0.0,0.0,0.0,0.0,0.0,0.0,0.0,0.0,0.0,0.0,0.0,0.0,0.0,0.0,0.0,0.0,0.0,0.0,0.0,0.0,0.0,0.0,0.0,-2.5356,-2.5453,-2.5511,0.0,0.0,-2.5511,-2.5511,-2.5511,-2.5511,-2.5492,-2.5395,-2.5414,0.0,0.0,0.0,0.0,0.0,-2.542,0.0,0.0,0.0,0.0,0.0,0.0,0.0,-2.1043,-2.0031,-1.9193,-1.8384,-1.8159,-1.8094,0.0,0.0,0.0,0.0,0.0,0.0,0.0,0.0,0.0,0.0,0.0,0.0,-2.0484,-2.0506,-2.0492,-2.0502,-2.0566,-2.0579,-2.0506,-2.0449,-2.0056,-1.9267,-1.992,-1.9531,-1.7928,-1.7813,-1.7321,-1.6429,-1.6347,-1.6632,-1.7238,-1.7742,-1.8292,-1.8837,-1.8624,-1.8465,-1.8385,-1.8256,-1.8005,-1.7687,-1.7455,-1.6926,-1.6301,-1.6258,-1.5924,-1.5448,0.0,0.0,0.0,0.0,0.0,0.0,0.0,0.0,0.0,0.0,0.0,0.0,0.0,0.0,0.0,0.0,0.0,0.0,0.0,0.0,0.0,0.0,0.0,0.0,0.0,0.0,0.0,0.0,0.0,0.0,0.0,0.0,0.0,0.0,0.0,0.0,0.0,0.0,0.0,-2.4505,-2.5221,-2.5511,-2.5511,-2.5511,-2.5511,-2.5511,-2.5511,-2.5511,-2.5395,-2.4699,-2.4931,-2.5356,0.0,0.0,0.0,-2.5298,0.0,0.0,0.0,0.0,0.0,0.0,0.0,0.0,-2.2648,-2.2274,-2.19,0.0,-2.0855,-2.0617,-1.992,0.0,0.0,0.0,0.0,0.0,0.0,0.0,0.0,0.0,0.0,0.0,-2.0428,-2.0506,-2.0494,-2.0492,-2.0566,-2.0582,-2.059,-2.0525,-2.0375,-2.0158,-2.0243,-2.0133,-1.9788,-1.9545,-1.9338,-1.9136,-1.8971,-1.854,-1.7932,-1.8669,-1.859,-1.7894,-1.8431,-1.8565,-1.8385,-1.8256,-1.8005,-1.7664,-1.7296,-1.6799,-1.6258,-1.6077,-1.5767,-1.5418,0.0,0.0,0.0,0.0,0.0,0.0,0.0,0.0,0.0,0.0,0.0,0.0,0.0,0.0,0.0,0.0,0.0,0.0,0.0,0.0,0.0,0.0,0.0,0.0,0.0,0.0,0.0,0.0,0.0,0.0,0.0,0.0,0.0,0.0,0.0,0.0,0.0,0.0,-2.5258,-2.4853,-2.4853,0.0,-2.4853,-2.4853,-2.5124,-2.5511,-2.5511,-2.5511,-2.5434,-2.5008,-2.5143,0.0,-2.4467,-2.4196,-2.4292,0.0,-2.4544,-2.4389,0.0,0.0,0.0,-2.4969,0.0,0.0,0.0,-2.1972,-2.1397,-2.0521,-2.036,-2.0211,-1.978,0.0,-1.8948,0.0,0.0,0.0,0.0,0.0,0.0,0.0,0.0,0.0,-1.9818,-2.0247,-2.0509,-2.0506,-2.0523,-2.0566,-2.0601,-2.0538,-2.0471,-2.0453,-2.0355,-2.0288,-2.0246,-1.9678,-1.9372,-1.9292,-1.8718,-1.8193,-1.7733,-1.8284,-1.825,-1.773,-1.8341,-1.8544,-1.8426,-1.8215,-1.8005,-1.7794,-1.7368,-1.6901,-1.6436,-1.616,-1.5896,-1.5551,0.0,0.0,0.0,0.0,0.0,0.0,0.0,0.0,0.0,0.0,0.0,0.0,0.0,0.0,0.0,0.0,0.0,0.0,0.0,0.0,0.0,0.0,0.0,-2.5602,0.0,0.0,0.0,0.0,0.0,0.0,0.0,0.0,0.0,0.0,0.0,0.0,0.0,0.0,0.0,-2.4967,0.0,-2.4302,-2.4447,-2.4464,-2.4909,-2.5495,-2.551,-2.5522,-2.548,-2.5316,-2.536,-2.5345,-2.4489,-2.4094,0.0,0.0,0.0,0.0,0.0,0.0,0.0,0.0,0.0,-2.2939,0.0,0.0,0.0,-1.9522,-1.9355,0.0,0.0,0.0,0.0,0.0,0.0,0.0,0.0,0.0,0.0,0.0,0.0,0.0,0.0,-1.984,-2.0316,-2.049,-2.0501,-2.0527,-2.0604,-2.0547,-2.0506,-2.05,-2.0226,-2.0115,-2.0212,-1.9328,-1.8878,-1.8923,-1.8124,-1.7738,-1.7746,-1.8019,-1.8104,-1.8043,-1.8431,-1.8544,-1.8408,-1.8004,-1.7868,-1.79,-1.7432,-1.6977,-1.657,-1.6285,-1.6024,-1.5712,0.0,0.0,0.0,0.0,0.0,0.0,0.0,0.0,0.0,0.0,0.0,0.0,0.0,0.0,0.0,0.0,0.0,0.0,-2.9156,0.0,0.0,0.0,0.0,0.0,-2.5596,0.0,0.0,0.0,0.0,0.0,0.0,0.0,0.0,0.0,-2.4844,0.0,0.0,0.0,-2.3988,0.0,-2.4016,-2.4719,0.0,-2.5415,-2.5459,-2.5517,-2.5571,-2.5549,-2.5394,0.0,-2.4907,-2.5367,0.0,-2.3709,-2.3345,-2.4892,0.0,0.0,0.0,0.0,0.0,0.0,-2.4776,0.0,-2.2958,0.0,-2.1314,-2.0437,0.0,0.0,0.0,0.0,0.0,0.0,0.0,0.0,-1.7023,0.0,0.0,0.0,0.0,0.0,0.0,-1.9322,-1.9678,-2.0443,-2.0504,-2.0527,-2.0597,-2.0593,-2.0562,-2.05,-1.9683,-1.959,-2.027,-1.9247,-1.9075,-1.9755,-1.9463,-1.9332,-1.9332,-1.9369,-1.9194,-1.8871,-1.8928,-1.8662,-1.8177,-1.75,-1.7401,-1.7687,-1.7216,-1.6866,-1.657,-1.6285,-1.6024,-1.5741,0.0,0.0,0.0,0.0,0.0,0.0,0.0,0.0,0.0,0.0,0.0,0.0,0.0,0.0,0.0,0.0,0.0,-2.8651,0.0,0.0,0.0,0.0,0.0,0.0,0.0,0.0,0.0,0.0,-2.5677,0.0,0.0,0.0,0.0,0.0,-2.4557,0.0,-2.4092,0.0,-2.4127,0.0,0.0,0.0,0.0,-2.5024,-2.5145,-2.5556,-2.5593,-2.5585,-2.5503,0.0,-2.5278,0.0,0.0,0.0,0.0,-2.4593,0.0,0.0,0.0,0.0,0.0,0.0,0.0,0.0,-2.3616,0.0,-2.29,0.0,0.0,0.0,0.0,0.0,0.0,0.0,-1.9444,0.0,0.0,0.0,-1.7866,0.0,0.0,0.0,0.0,0.0,0.0,0.0,-2.0273,-2.0566,-2.0601,-2.0597,-2.059,-2.0562,-1.9604,-1.9497,-2.0341,-1.9362,-1.9258,-2.0001,-1.9858,-1.9495,-1.8958,-1.9281,-1.902,-1.833,-1.8733,-1.8623,-1.817,-1.7776,-1.7659,-1.7641,-1.7002,-1.6686,-1.657,-1.6285,-1.578,-1.5145,0.0,0.0,0.0,0.0,0.0,0.0,0.0,0.0,0.0,0.0,0.0,0.0,-3.2361,-3.2361,0.0,0.0,-3.0671,-2.9505,0.0,0.0,-2.6126,0.0,0.0,0.0,0.0,0.0,0.0,0.0,0.0,0.0,0.0,0.0,0.0,0.0,0.0,-2.4015,-2.3419,0.0,-2.3898,-2.3745,-2.4874,-2.5455,-2.5551,-2.4924,-2.5074,-2.5639,-2.5629,-2.5626,-2.5603,-2.5618,-2.5612,0.0,-2.4603,0.0,-2.3991,0.0,0.0,0.0,-2.5231,0.0,0.0,0.0,0.0,0.0,0.0,0.0,0.0,0.0,0.0,0.0,0.0,0.0,0.0,0.0,0.0,-1.9537,0.0,0.0,0.0,0.0,0.0,0.0,0.0,0.0,0.0,-1.9605,-2.0234,-2.0605,-2.0605,-2.0598,-2.0591,-2.0566,-1.9607,-1.9502,-2.0357,-1.9412,-1.932,-2.005,-1.9918,-1.9473,-1.8808,-1.915,-1.8867,-1.8151,-1.8539,-1.8506,-1.8125,-1.7766,-1.7625,-1.7572,-1.6717,-1.6374,-1.6265,-1.5752,-1.5091,-1.4347,-2.5701,-2.5703,0.0,0.0,0.0,0.0,0.0,0.0,0.0,0.0,0.0,0.0,0.0,0.0,-3.3565,-3.4342,0.0,-2.9758,-3.0593,0.0,-2.6495,0.0,0.0,-2.6456,0.0,0.0,0.0,0.0,0.0,0.0,0.0,0.0,0.0,0.0,0.0,-2.4374,-2.4296,-2.3496,-2.2695,-2.2128,-2.3789,-2.4941,-2.5683,0.0,-2.5666,-2.5709,-2.5702,0.0,0.0,-2.5663,-2.5641,0.0,0.0,0.0,0.0,0.0,0.0,0.0,0.0,0.0,0.0,-2.5492,0.0,0.0,0.0,0.0,-2.1765,0.0,0.0,0.0,0.0,0.0,0.0,0.0,0.0,0.0,0.0,0.0,0.0,0.0,0.0,0.0,0.0,0.0,0.0,-2.0404,-2.0546,-2.0605,-2.0605,-2.0598,-2.0566,-2.0503,-1.9593,-1.9483,-2.0308,-1.9312,-1.9192,-1.9899,-1.9774,-1.9656,-1.956,-1.9383,-1.9178,-1.8927,-1.8644,-1.833,-1.7932,-1.7011,-1.6993,-1.7408,-1.6328,-1.5799,-1.5485,-1.4308,-1.3723,-1.3359,0.0,0.0,0.0,0.0,0.0,0.0,0.0,-3.0702,0.0,0.0,-3.4847,0.0,0.0,-3.6168,-3.5682,0.0,0.0,-3.2438,-3.1603,-2.9136,0.0,-2.7323,-2.7043,-2.6493,0.0,0.0,0.0,0.0,0.0,0.0,0.0,0.0,0.0,0.0,0.0,-2.4077,0.0,0.0,0.0,0.0,0.0,-2.492,-2.5702,0.0,-2.5703,-2.5625,-2.5058,-2.5195,0.0,-2.5036,-2.5213,-2.5527,-2.4665,-2.4179,-2.3866,-2.3599,-2.3298,0.0,0.0,0.0,-2.3254,-2.436,0.0,0.0,0.0,0.0,0.0,0.0,0.0,0.0,0.0,0.0,0.0,0.0,0.0,0.0,0.0,0.0,0.0,0.0,0.0,0.0,0.0,0.0,0.0,-1.9609,-2.0254,-2.0605,-2.0601,-2.0597,-2.0566,-2.05,-1.9593,-1.9483,-2.0283,-1.9384,-1.9301,-2.004,-1.9907,-1.9762,-1.9662,-1.9546,-1.9402,-1.9178,-1.8929,-1.8643,-1.8275,-1.774,-1.7462,-1.7296,-1.6635,-1.5934,-1.522,-1.4272,-1.3202,-1.1951,-2.569,0.0,0.0,0.0,0.0,0.0,0.0,0.0,0.0,0.0,-3.5809,0.0,-3.6991,0.0,-3.6759,0.0,-3.5018,-3.3662,-3.1681,-2.9953,0.0,-2.7327,-2.7322,-2.6805,0.0,0.0,0.0,0.0,0.0,-2.57,0.0,0.0,0.0,0.0,0.0,-2.421,-2.3097,-2.3095,-2.2647,0.0,0.0,-2.4919,0.0,0.0,-2.5701,-2.5623,0.0,-2.5228,-2.5616,-2.505,-2.5244,-2.5496,-2.4302,-2.4149,-2.4175,-2.2988,-2.2868,-2.3091,-2.3019,-2.2595,0.0,-2.3508,-2.274,0.0,-2.3463,0.0,-2.2326,0.0,0.0,0.0,0.0,0.0,0.0,0.0,0.0,0.0,0.0,-2.0377,0.0,0.0,0.0,0.0,0.0,0.0,-1.8698,-1.9615,-1.9955,-2.0227,0.0,0.0,-2.0204,-2.046,-1.9877,-1.9818,-2.0334,-1.9754,-1.9681,-2.0097,-2.0002,-1.9888,-1.9732,-1.9628,-1.9475,-1.9289,-1.8963,-1.8699,-1.8473,-1.8061,-1.7664,-1.7231,-1.6789,-1.5884,-1.476,-1.4031,-1.2432,-1.0328,-2.5718,0.0,0.0,0.0,-2.7167,0.0,0.0,0.0,-3.4257,0.0,-3.5698,-3.6565,-3.4906,-3.6196,-3.681,-3.5914,-3.5061,-3.3464,-3.0879,-3.07,0.0,0.0,-2.7315,-2.7405,-2.5709,0.0,0.0,0.0,0.0,0.0,0.0,0.0,0.0,0.0,-2.5693,0.0,-2.3097,-2.3097,-2.2668,-2.2102,-2.3745,-2.4918,-2.5699,-2.5696,-2.5696,-2.5699,-2.5641,-2.5658,-2.5693,-2.5654,-2.5633,-2.5336,-2.3638,-2.3677,-2.3991,-2.2304,-2.2418,-2.3088,-2.2968,-2.296,-2.2996,-2.2991,0.0,0.0,0.0,0.0,-2.1682,0.0,0.0,0.0,0.0,0.0,0.0,0.0,0.0,0.0,0.0,0.0,0.0,0.0,0.0,0.0,0.0,-1.9951,-2.0406,-2.0399,-1.969,-1.959,0.0,0.0,-1.9591,-2.0327,-2.0385,-2.0386,-2.0332,-2.0302,-2.0238,-2.0101,-2.0105,-1.9992,-1.9811,-1.9612,-1.9448,-1.9289,-1.8735,-1.8531,-1.8473,-1.7936,-1.7539,-1.7206,-1.6725,-1.5556,-1.401,-1.3348,-1.1287,-0.8625,-2.5816,-2.6186,-2.6809,0.0,-2.7433,-2.8268,0.0,0.0,0.0,0.0,-3.6816,-3.7029,-3.6581,-3.748,-3.7262,-3.5112,-3.5303,0.0,0.0,0.0,0.0,-2.7631,-2.7956,-2.7704,-2.6659,-2.6615,-2.6303,-2.5703,0.0,0.0,-2.5707,0.0,0.0,0.0,0.0,0.0,-2.3093,-2.3093,-2.2976,-2.2898,-2.3971,-2.493,-2.5691,0.0,-2.5709,-2.5613,-2.4969,-2.5143,-2.5592,-2.4946,-2.4731,-2.4534,-2.3443,-2.3247,-2.3228,-2.2179,-2.246,-2.2946,-2.2287,-2.253,-2.2994,-2.3001,-2.2835,-2.2718,0.0,0.0,0.0,0.0,0.0,0.0,0.0,0.0,0.0,0.0,0.0,0.0,0.0,0.0,0.0,-2.0306,0.0,-2.0311,-2.0119,-1.9472,-1.9444,-2.0328,-2.0219,-2.0186,0.0,0.0,0.0,-1.9519,-2.0095,-2.0089,-1.9442,-2.0012,-2.0287,-2.0246,-2.0159,-2.0069,-2.0012,-1.9755,-1.9585,-1.9434,-1.9046,-1.8825,-1.8696,-1.8142,-1.7439,-1.6664,-1.612,-1.4625,-1.2517,-1.0973,-0.9423,-0.7928,-2.6303,-2.6907,0.0,-2.962,0.0,0.0,-3.1685,-3.3386,0.0,-3.6518,-3.6708,0.0,-3.6147,-3.6191,-3.5675,-3.4191,-3.4142,0.0,-3.0406,0.0,0.0,-2.7207,-2.7461,-2.7285,-2.6442,-2.6387,0.0,-2.57,0.0,0.0,-2.5707,0.0,0.0,0.0,0.0,-2.4946,-2.3677,-2.3677,-2.3677,-2.3735,-2.4614,-2.5258,0.0,-2.5707,-2.5707,-2.5648,-2.5141,-2.5278,-2.557,-2.469,-2.4397,-2.4183,-2.2955,-2.3072,-2.3443,-2.225,-2.2731,-2.3476,-2.2615,-2.2693,-2.3049,-2.3042,-2.3028,-2.3012,-2.3033,-2.2352,-2.1568,0.0,0.0,0.0,0.0,0.0,0.0,0.0,0.0,0.0,0.0,0.0,0.0,0.0,-2.0386,0.0,-2.0402,-1.9779,-1.9668,-2.0318,-2.0031,-1.9831,0.0,0.0,0.0,-1.9178,-1.9978,-2.0156,-1.9666,-2.0128,-2.0141,-1.9774,-2.0065,-1.9948,-1.9535,-1.9728,-1.9713,-1.9476,-1.9209,-1.9016,-1.8896,-1.8307,-1.745,-1.6335,-1.5016,-1.348,-1.1763,-1.0005,-0.882,-0.7946,-2.7238,0.0,0.0,0.0,0.0,0.0,0.0,-3.4921,0.0,-3.591,0.0,-3.5454,-3.4479,-3.3797,-3.3318,-3.3084,-3.2301,-3.1138,-2.9443,-2.9334,-2.8301,-2.5976,-2.6594,-2.6646,-2.5883,-2.5648,-2.559,0.0,-2.559,0.0,0.0,0.0,0.0,0.0,0.0,0.0,0.0,-2.4397,-2.4397,-2.4475,-2.5356,-2.5707,-2.5707,-2.5707,-2.5707,-2.5707,-2.5707,-2.5707,-2.559,-2.4827,-2.4417,-2.4007,-2.2641,-2.3148,-2.3968,-2.2621,-2.3335,-2.4375,-2.3515,-2.335,-2.3403,-2.3308,-2.3316,-2.3305,-2.3147,-2.2551,-2.1958,-2.1618,-2.1025,-2.0535,0.0,0.0,0.0,0.0,0.0,0.0,0.0,0.0,0.0,0.0,0.0,0.0,-2.056,-2.046,-2.0363,-2.0308,-1.9657,0.0,0.0,0.0,0.0,-1.8952,-1.9898,-2.0355,-2.0225,0.0,-1.9954,-1.9097,-1.9896,-1.9765,-1.8831,-1.9611,-1.9797,-1.9467,-1.9256,-1.9115,-1.9019,-1.841,-1.7403,-1.5989,-1.3801,-1.2365,-1.1372,-0.9965,-0.9014,-0.8211,-2.9046,0.0,0.0,0.0,0.0,-3.3834,-3.4198,-3.4148,-3.4293,-3.4839,-3.4936,-3.4312,-3.2732,-3.3051,-3.282,-3.1376,-3.1111,0.0,0.0,0.0,0.0,-2.6825,-2.6921,-2.6939,-2.6782,-2.5356,-2.4983,-2.5707,-2.4983,-2.5004,0.0,0.0,0.0,0.0,0.0,0.0,-2.4397,-2.4397,0.0,-2.4475,-2.5356,-2.5707,-2.5707,-2.5707,-2.5707,-2.5707,-2.5707,-2.5707,-2.5687,-2.5512,-2.4516,-2.3404,-2.3831,-2.3675,-2.3404,-2.3831,-2.4683,-2.5273,-2.4414,-2.4664,-2.5,-2.4342,-2.4668,-2.4793,-2.3413,-2.3494,-2.324,-2.1138,-2.1124,-2.126,-2.0531,0.0,0.0,0.0,0.0,0.0,0.0,0.0,0.0,0.0,0.0,-2.0669,0.0,-2.0772,-2.0321,-2.0302,0.0,0.0,0.0,0.0,0.0,0.0,-1.9596,0.0,0.0,0.0,-1.9935,-1.9027,-1.9827,-1.9717,-1.882,-1.952,-1.9676,-1.9397,-1.9091,-1.8912,-1.8806,-1.8205,-1.6857,-1.5,-1.3272,-1.1831,-1.0672,-1.0392,-0.9276,-0.7744,-3.1968,0.0,0.0,0.0,0.0,0.0,0.0,-3.4287,-3.4198,-3.464,-3.4304,-3.352,-3.2233,-3.2077,-3.1531,-3.0244,-2.9741,-2.8964,-2.7702,-2.7195,-2.6769,-2.6344,-2.6327,-2.6329,-2.6329,-2.549,-2.5278,-2.5707,-2.5278,-2.5297,0.0,0.0,0.0,0.0,0.0,-2.5473,0.0,0.0,0.0,-2.5102,-2.5531,-2.5707,-2.5707,-2.5707,-2.5707,-2.5707,-2.5707,-2.5707,-2.5629,-2.518,-2.4477,-2.3775,-2.3735,-2.3755,-2.3853,-2.428,-2.5029,-2.5602,-2.519,-2.5351,-2.5564,-2.5176,-2.5349,-2.5395,-2.4617,-2.4364,-2.3825,-2.2193,-2.1774,-2.1439,-2.0556,-2.0439,0.0,0.0,0.0,0.0,0.0,0.0,-2.0593,0.0,0.0,0.0,0.0,0.0,0.0,0.0,0.0,-1.9587,0.0,0.0,0.0,0.0,0.0,0.0,0.0,0.0,0.0,-1.8397,-1.9226,-1.9146,-1.8256,-1.9038,-1.946,-1.958,-1.935,-1.8937,-1.8315,-1.6738,-1.5358,-1.4133,-1.3022,-1.1728,-1.0509,-1.0663,-0.9505,-0.7779,0.0,-3.3504,0.0,0.0,-3.452,-3.3863,-3.4506,-3.4447,-3.4301,-3.4164,-3.3555,-3.2712,-3.166,-3.0934,-3.0174,-2.9297,-2.8486,-2.7709,-2.703,-2.6172,-2.5707,-2.571,-2.5696,-2.5698,-2.5698,-2.5525,-2.541,-2.5412,-2.5412,-2.5412,0.0,0.0,0.0,0.0,0.0,0.0,0.0,0.0,-2.5707,-2.5707,-2.5707,-2.5707,-2.5707,-2.5707,-2.5707,-2.5707,-2.5707,-2.5707,-2.5609,-2.4905,-2.4553,-2.4319,-2.3814,-2.4009,-2.4436,-2.4612,-2.516,-2.5707,-2.5707,-2.5697,-2.5702,-2.5691,-2.5663,-2.5582,-2.5449,-2.4853,-2.4046,-2.3029,-2.2084,-2.1239,-2.0549,-2.0467,0.0,0.0,0.0,0.0,0.0,0.0,0.0,0.0,0.0,0.0,-2.0394,0.0,0.0,0.0,0.0,-1.9142,-1.6902,-1.9033,-1.9626,0.0,0.0,-2.0605,-2.0605,0.0,-1.9335,0.0,-1.8467,-1.8313,-1.7449,-1.8486,-1.9068,-1.9237,-1.9257,-1.8666,-1.7509,-1.5401,-1.4242,-1.3764,-1.3075,-1.1919,-1.0676,-1.0883,-0.9723,-0.7984,0.0,0.0,0.0,0.0,0.0,0.0,-3.4583,-3.3979,-3.3225,-3.2445,-3.227,-3.1588,-2.9927,-2.9674,-2.9264,-2.8407,-2.753,-2.7028,-2.7,-2.6181,-2.5697,-2.571,-2.569,-2.569,-2.569,-2.4929,-2.4522,0.0,-2.4527,-2.453,-2.4534,0.0,0.0,0.0,0.0,0.0,0.0,-2.5707,-2.5707,-2.5707,-2.5707,-2.5707,-2.5707,-2.5707,-2.5707,-2.5707,-2.5707,-2.5707,-2.5687,-2.5609,-2.5043,-2.4514,-2.5238,-2.4965,-2.4553,-2.5356,-2.5648,-2.5707,-2.5707,-2.5709,-2.5709,-2.5707,-2.5709,-2.5481,-2.4706,-2.4453,-2.3924,-2.2255,-2.1214,-2.0588,-2.051,-2.0492,-2.0498,0.0,0.0,0.0,0.0,0.0,-2.0503,-2.0483,0.0,0.0,0.0,-2.041,0.0,0.0,-1.9173,-1.878,-1.7736,-1.9393,-1.9954,-1.9006,0.0,-2.1572,-2.1572,-2.0018,-1.8718,-1.7703,-1.7779,-1.7346,-1.6491,-1.8083,-1.8279,-1.7396,-1.7974,-1.7512,-1.6221,-1.5322,-1.4775,-1.4419,-1.3515,-1.2339,-1.1136,-1.1176,-0.9945,-0.8187,0.0,0.0,0.0,0.0,0.0,0.0,0.0,-3.2967,-3.1938,-3.0547,-3.0923,-3.0862,-2.963,-2.9026,-2.8368,-2.7511,-2.7102,-2.6712,-2.6248,-2.5898,-2.5707,-2.5691,-2.5697,-2.5701,-2.5701,-2.5353,-2.4929,0.0,0.0,-2.4915,-2.4415,-2.5293,0.0,0.0,0.0,-2.5707,-2.5707,-2.5707,-2.5707,-2.5707,-2.5707,-2.5707,-2.5707,-2.5707,-2.5679,-2.5645,-2.5683,-2.5679,-2.5642,-2.5642,-2.5439,-2.5238,-2.559,-2.5453,-2.5258,-2.5609,-2.5707,-2.5707,-2.5707,-2.5707,-2.5707,-2.5707,-2.5317,-2.4829,-2.4484,-2.4002,-2.3261,-2.2049,-2.1107,-2.0495,-2.0495,-2.0502,-2.0507,0.0,0.0,0.0,0.0,0.0,0.0,-2.0501,0.0,-2.0464,0.0,0.0,0.0,0.0,0.0,-1.93,-1.7922,-1.9475,-2.0249,-1.9881,0.0,-2.1178,-2.1685,-1.9972,-1.8678,-1.7799,-1.7282,-1.6847,-1.6505,-1.718,-1.7386,-1.7208,-1.6911,-1.6274,-1.5345,-1.4206,-1.3521,-1.3157,-1.2668,-1.1857,-1.0971,-1.1018,-0.9761,-0.7996,-3.5457,0.0,-3.4817,0.0,-3.4135,-3.3006,-3.3006,-3.1884,-3.0588,-2.9358,-2.9647,-2.9744,-2.9141,-2.8285,-2.7507,-2.6898,-2.6607,-2.6223,-2.5654,-2.5615,-2.5625,-2.5639,-2.5648,0.0,-2.5707,-2.5697,-2.5272,-2.4394,-2.5275,-2.5242,-2.443,0.0,0.0,0.0,-2.5705,-2.5683,-2.5676,-2.5676,-2.5651,-2.5642,-2.5642,-2.5642,-2.5642,-2.5642,-2.5605,-2.558,-2.5613,-2.5601,-2.5532,-2.5532,-2.5574,-2.5619,-2.5654,-2.5681,-2.5648,-2.5395,-2.5492,-2.5648,-2.5395,-2.5492,-2.5707,-2.5707,-2.5043,-2.4397,-2.4397,-2.3549,-2.2499,-2.164,-2.0957,-2.0526,-2.0526,-2.0527,-2.0526,-2.0526,0.0,0.0,0.0,-2.0507,0.0,-2.0502,-2.0498,-2.0497,-2.0498,-2.0499,0.0,0.0,0.0,0.0,-1.8341,-1.9623,0.0,0.0,0.0,0.0,0.0,-1.9612,-1.8321,-1.751,-1.6651,-1.6246,-1.6215,-1.6145,-1.6413,-1.6924,-1.5897,-1.5172,-1.4599,-1.3513,-1.2793,-1.2359,-1.216,-1.1478,-1.0637,-1.0478,-0.9321,-0.7766,-3.519,-3.5292,-3.5386,-3.5405,-3.406,-3.3006,-3.3006,-3.0858,-2.9223,-2.9203,-2.8517,-2.8034,-2.8014,-2.7241,-2.6718,-2.671,-2.5917,-2.5414,-2.5395,-2.5395,-2.5432,0.0,0.0,-2.5551,-2.5699,-2.5699,-2.5274,-2.4407,0.0,0.0,-2.442,0.0,-2.5693,-2.5698,-2.5698,-2.5668,-2.5601,-2.5601,-2.5556,-2.5504,-2.5504,-2.5504,-2.5504,-2.5504,-2.5492,-2.5499,-2.5499,-2.5454,-2.5402,-2.5402,-2.5402,-2.5441,-2.5561,-2.5645,-2.5531,-2.467,-2.5024,-2.5512,-2.4651,-2.5043,-2.5707,-2.5707,-2.5043,-2.4397,-2.4395,-2.3107,-2.1666,-2.0788,-2.0614,-2.0593,-2.0607,-2.0605,-2.0605,-2.0605,0.0,0.0,0.0,-2.0504,0.0,-2.0508,-2.0504,-2.0501,-2.0508,-2.0501,0.0,0.0,0.0,0.0,0.0,0.0,0.0,-2.0497,-2.1331,0.0,-2.0522,-1.8796,-1.7471,-1.6609,-1.5796,-1.5377,-1.5303,-1.5044,-1.5391,-1.6143,-1.495,-1.4234,-1.3896,-1.3528,-1.3087,-1.2579,-1.2293,-1.1417,-1.0245,-0.957,-0.8645,-0.7559,-3.3624,-3.4454,-3.4906,-3.3757,-3.3149,-3.2601,-3.1987,-3.0759,-2.9466,-2.8334,-2.7938,-2.7804,-2.7804,-2.7133,-2.6459,0.0,-2.5561,-2.5387,0.0,-2.5387,-2.5403,-2.5425,-2.5432,-2.5467,-2.5571,-2.5551,-2.5182,-2.4397,0.0,0.0,0.0,-2.5379,-2.5526,-2.5556,-2.5556,-2.5551,-2.5535,-2.5535,-2.5479,-2.5434,-2.5434,-2.5434,-2.5434,-2.5434,-2.5401,-2.5368,-2.5427,-2.5045,-2.4517,-2.4517,-2.4147,-2.3702,-2.3689,-2.4521,-2.5226,-2.3844,-2.4066,-2.4693,-2.4466,-2.459,-2.4805,-2.4805,-2.4161,-2.3359,-2.2769,-2.1752,-2.0876,-2.0646,-2.0607,-2.0607,-2.0605,-2.0605,-2.0605,-2.0605,-2.0572,0.0,-2.0508,0.0,-2.0497,-2.0502,-2.0469,-2.0455,-2.0504,-2.0455,0.0,0.0,0.0,0.0,0.0,0.0,0.0,0.0,-2.1084,0.0,-2.139,-1.9106,-1.7824,-1.7538,-1.6093,-1.5383,-1.5353,-1.524,-1.5254,-1.5369,-1.494,-1.4463,-1.4002,-1.3494,-1.2985,-1.2463,-1.1775,-1.0832,-0.9753,-0.9113,-0.7955,-0.6634,-3.2787,-3.3532,-3.3929,-3.2882,-3.2424,-3.2038,-3.1522,-3.0472,-2.923,-2.7873,-2.7701,-2.7453,-2.6823,-2.6963,0.0,-2.6304,-2.5697,-2.5312,-2.5312,-2.5312,-2.535,-2.5357,-2.5357,-2.5379,-2.546,-2.5467,0.0,-2.4326,-2.4793,-2.5143,-2.5398,-2.5406,-2.5427,-2.546,-2.546,-2.5453,-2.5432,-2.5432,-2.5383,-2.5324,-2.5324,-2.5324,-2.5324,-2.5324,-2.5089,-2.4783,-2.4808,-2.4279,-2.3552,-2.3552,-2.3201,-2.2721,-2.2376,-2.3221,-2.4096,-2.2838,-2.311,-2.3828,-2.3862,-2.3896,-2.3998,-2.431,-2.3491,-2.2379,-2.1516,-2.0887,-2.0516,-2.0543,-2.0562,-2.056,-2.0528,-2.0525,-2.0525,-2.0525,-2.0528,-2.0519,-2.0497,0.0,-2.0483,0.0,0.0,0.0,0.0,-2.0422,-2.0428,0.0,0.0,0.0,0.0,0.0,0.0,-2.1327,-2.0799,0.0,-2.082,-1.9257,-1.8122,-1.7452,-1.6053,-1.5409,-1.5397,-1.5306,-1.5192,-1.505,-1.4762,-1.4353,-1.3859,-1.3207,-1.26,-1.203,-1.1386,-1.0441,-0.9369,-0.877,-0.7675,-0.6442,-3.2473,-3.2622,-3.268,0.0,-3.1874,0.0,-3.1393,-2.9961,-2.8605,-2.7816,-2.7644,-2.7014,-2.5459,-2.667,-2.7606,-2.7606,0.0,0.0,0.0,-2.5191,-2.5236,-2.5293,-2.5293,-2.5303,-2.5302,-2.5302,-2.4942,-2.4184,-2.4184,-2.4602,-2.539,-2.539,-2.5387,-2.5398,-2.5398,-2.534,-2.5301,-2.5301,-2.5265,-2.5201,-2.5201,-2.5201,-2.5201,-2.5201,-2.4654,-2.3894,-2.3894,-2.331,-2.2524,-2.2524,-2.2486,-2.2295,-2.156,-2.1817,-2.2307,-2.1688,-2.2163,-2.2901,-2.2905,-2.2948,-2.3185,-2.4004,-2.2932,-2.1491,-2.0689,-2.0489,-2.0486,-2.0492,-2.0492,-2.0461,-2.0394,-2.0385,-2.0385,-2.0385,-2.0394,-2.0426,-2.048,0.0,-2.046,0.0,0.0,0.0,0.0,-2.0386,-2.0405,0.0,0.0,0.0,0.0,0.0,-2.1426,-2.0621,-2.049,-2.0048,-1.9302,-1.9166,-1.8267,-1.659,-1.5858,-1.5466,-1.5406,-1.5267,-1.5193,-1.5163,-1.454,-1.4033,-1.3595,-1.287,-1.2158,-1.1475,-1.1167,-1.0305,-0.9142,-0.8552,-0.7732,-0.6738,0.0,0.0,-3.2562,-3.0657,-3.0835,-3.1032,-3.0386,-2.9489,-2.8605,-2.7816,-2.7128,-2.6555,-2.6154,-2.646,-2.6708,-2.6708,-2.6345,-2.586,-2.5249,-2.5191,-2.5203,-2.5225,-2.5225,-2.4935,-2.4349,-2.433,-2.4233,-2.4049,-2.4049,-2.4466,-2.525,-2.525,-2.5252,-2.5253,-2.5253,-2.5243,-2.5222,-2.5222,-2.522,-2.5195,-2.5195,-2.5195,-2.5195,-2.5195,-2.4667,-2.39,-2.39,-2.2955,-2.1674,-2.1674,-2.1244,-2.0671,-2.048,-2.0537,-2.0671,-2.0558,-2.1162,-2.1874,-2.1931,-2.1934,-2.2003,-2.2216,-2.1497,-2.0679,-2.0461,-2.0422,-2.0422,-2.043,-2.0385,-2.0332,-2.0336,-2.0311,-2.0311,-2.0311,-2.0316,-2.0346,-2.041,-2.0385,0.0,0.0,-2.0321,-2.0306,-2.0248,-2.0196,-2.0177,0.0,0.0,0.0,0.0,-2.1208,-2.1386,-2.0615,-1.9897,-1.9729,-2.0191,-1.888,-1.7667,-1.6595,-1.6456,-1.6035,-1.539,-1.5317,-1.5257,-1.5196,-1.4929,-1.4551,-1.4089,-1.3561,-1.3059,-1.2549,-1.1873,-1.0633,-0.9223,-0.8725,-0.755,-0.6098,-2.9758,-3.0678,-3.1185,-2.9833,-3.0075,-3.0351,-2.9964,-2.92,-2.8411,-2.7665,-2.6828,-2.6161,-2.5761,-2.6479,-2.6689,-2.5918,-2.586,-2.5497,-2.4664,-2.4224,-2.4006,-2.4006,-2.4006,-2.399,-2.3956,-2.3956,-2.3956,-2.3956,-2.3554,-2.3581,-2.4025,-2.4415,-2.4618,-2.461,-2.5023,-2.5195,-2.5195,-2.5195,-2.5203,-2.5191,-2.5191,-2.4962,-2.4645,-2.5057,-2.4178,-2.2811,-2.3174,-2.2238,-2.0805,-2.0805,-2.0499,-2.0088,-2.0088,-2.0088,-2.0107,-2.0133,-2.051,-2.1001,-2.1434,-2.1295,-2.1004,-2.1004,-2.0673,-2.036,-2.036,-2.036,-2.0341,-2.0346,-2.0319,-2.0289,-2.0257,-2.0203,-2.0046,-1.9675,-1.9877,-1.9977,-1.9675,-1.9908,0.0,-2.0112,-2.0125,-2.0098,-2.0069,-2.0031,-2.0022,-2.0054,-2.086,0.0,-2.0231,-2.1442,-2.1478,-1.996,-1.9788,-1.9744,-1.9865,-1.8919,-1.8038,-1.7199,-1.6859,-1.6245,-1.5409,-1.533,-1.5275,-1.5215,-1.471,-1.4429,-1.4283,-1.3442,-1.3006,-1.2757,-1.1719,-1.0437,-0.9122,-0.8415,-0.6998,-0.5349,-2.9474,-2.9607,-2.9644,-2.9532,-2.9532,-2.9608,-2.9769,-2.9,-2.8135,-2.7449,-2.6635,-2.584,-2.4969,-2.6502,-2.693,-2.5265,-2.5113,-2.4839,-2.4148,-2.3155,-2.2658,-2.2792,-2.2677,-2.2887,-2.3518,-2.3403,-2.3403,-2.3518,-2.2772,-2.2486,-2.262,-2.3365,-2.3709,-2.3747,-2.4484,-2.4809,-2.4828,-2.4943,-2.4924,-2.4828,-2.492,-2.4538,-2.3976,-2.469,-2.3651,-2.1846,-2.239,-2.1607,-2.0289,-2.0127,-2.0088,-2.0088,-2.0088,-2.0088,-2.0088,-2.0088,-2.0133,-2.0345,-2.1092,-2.0785,-2.0269,-2.0269,-2.0276,-2.0289,-2.0289,-2.0289,-2.0289,-2.0289,-2.0269,-2.0215,-2.0164,-2.005,-1.9764,-1.922,-1.9487,-1.9606,-1.9124,0.0,-1.9893,-1.9885,-1.9873,-1.9873,-1.9873,-1.9851,-1.9922,-2.0105,-2.075,-2.09,-2.0349,-2.1671,-2.1343,-1.8925,-1.9657,-1.9632,-1.8691,-1.8818,-1.8492,-1.7667,-1.7004,-1.6236,-1.5377,-1.5332,-1.531,-1.5263,-1.4444,-1.4242,-1.441,-1.3188,-1.274,-1.2698,-1.1256,-1.0048,-0.8978,-0.7708,-0.6147,-0.4546,-2.9131,-2.96,-2.9904,-2.92,-2.9228,-2.9355,-2.9395,-2.8783,-2.803,-2.7257,-2.6449,-2.564,-2.4813,-2.6199,-2.6553,-2.4915,-2.4783,-2.4842,-2.4989,-2.3479,-2.2925,-2.367,-2.2983,-2.2352,-2.1808,-2.1072,-2.1053,-2.1789,-2.1655,-2.1942,-2.2601,-2.2734,-2.2792,-2.2811,-2.2944,-2.3002,-2.304,-2.3785,-2.367,-2.3059,-2.3693,-2.3914,-2.3908,-2.3909,-2.3762,-2.3441,-2.2811,-2.1989,-2.1101,-2.0346,-2.0088,-2.0088,-2.0088,-2.0088,-2.0088,-2.0088,-2.0107,-2.0155,-2.0269,-2.0221,-2.0134,-2.0134,-2.0175,-2.0231,-2.0231,-2.0231,-2.0231,-2.0231,-2.0087,-1.9962,-1.9941,-1.9843,-1.9931,-2.0483,-2.0088,-1.9938,-2.0565,0.0,-1.9816,-1.9821,-1.9821,-1.9786,-1.9732,-1.9625,-1.987,-2.0611,-2.0788,-2.087,-2.0884,-2.1187,-2.0209,-1.7753,-1.8616,-1.8357,-1.6749,-1.7572,-1.7542,-1.6629,-1.6687,-1.6188,-1.5229,-1.5335,-1.5351,-1.5287,-1.5087,-1.5004,-1.4915,-1.3926,-1.3529,-1.3366,-1.1439,-1.0145,-0.9048,-0.6523,-0.4913,-0.3784,-2.8907,-2.9198,-2.9392,-2.9025,-2.9048,-2.9163,-2.9272,-2.8586,-2.7937,-2.7662,-2.6897,-2.6076,-2.5256,-2.633,-2.6453,-2.4839,-2.4309,-2.412,-2.4257,-2.2249,-2.1214,-2.1611,-2.132,-2.12,-2.1287,-2.1779,-2.1973,-2.1827,-2.2384,-2.2315,-2.1694,-2.2318,-2.2299,-2.1787,-2.2764,-2.2897,-2.2457,-2.379,-2.3581,-2.2457,-2.3264,-2.3088,-2.2393,-2.2842,-2.2703,-2.2255,-2.1958,-2.1821,-2.1587,-2.0312,-2.0168,-2.0464,-2.0123,-1.9991,-2.002,-2.0079,-2.0088,-2.0088,-2.0088,-2.0088,-2.0088,-2.0088,-2.0125,-2.0161,-2.0161,-2.0161,-2.0124,-2.005,-1.9962,-1.9885,-1.9809,-1.967,-1.9561,-1.9505,-1.9494,0.0,0.0,-2.0063,-2.0144,-2.003,-2.0136,-2.0234,-2.0238,-2.0085,-2.036,-2.1224,-2.1616,-2.1719,-2.1507,-2.189,-2.1044,-1.8712,-1.7823,-1.7262,-1.7007,-1.742,-1.7221,-1.6407,-1.6531,-1.6056,-1.5033,-1.5104,-1.5142,-1.5173,-1.4882,-1.4914,-1.5096,-1.4229,-1.3485,-1.2716,-1.1035,-0.9626,-0.8204,-0.551,-0.3812,-0.2614,-2.8761,-2.8834,-2.8881,-2.8881,-2.8905,-2.9021,-2.9185,-2.8559,-2.8033,-2.8001,-2.7263,-2.641,-2.5615,-2.6209,-2.6112,-2.4711,-2.3864,-2.3378,-2.3378,-2.1008,-1.9731,-1.9995,-1.991,-2.0176,-2.0842,-2.2117,-2.2469,-2.1896,-2.2677,-2.2318,-2.0907,-2.1794,-2.1673,-2.0753,-2.2155,-2.235,-2.1712,-2.322,-2.2976,-2.1712,-2.2755,-2.2285,-2.1123,-2.2186,-2.1996,-2.1215,-2.1381,-2.1727,-2.1882,-2.0264,-2.0232,-2.077,-2.0073,-1.9843,-1.9866,-1.9971,-2.002,-2.0001,-2.005,-2.006,-2.005,-2.0001,-2.002,-2.002,-2.002,-2.002,-1.9971,-1.9866,-1.9832,-1.9786,-1.9676,-1.954,-1.93,-1.8846,0.0,0.0,0.0,-2.0137,-2.0553,-2.0409,-2.0571,-2.0711,-2.0779,-2.0642,-2.0898,-2.1844,-2.237,-2.2372,-2.1758,-2.2259,-2.1553,-1.9263,-1.7154,-1.6498,-1.7424,-1.7246,-1.6953,-1.6571,-1.6477,-1.5965,-1.5121,-1.4972,-1.4916,-1.495,-1.4683,-1.4177,-1.3493,-1.2868,-1.1426,-0.9567,-0.8835,-0.7602,-0.5984,-0.4044,-0.2449,-0.0987,-2.8712,-2.8761,-2.881,-2.881,-2.881,-2.8834,-2.8929,-2.8874,-2.8562,-2.783,-2.7006,-2.6219,-2.5413,-2.5379,-2.5107,-2.4301,-2.3493,-2.3033,-2.3033,-2.0698,-1.9814,-2.0853,-2.0139,-1.9732,-1.9807,-1.992,-2.0333,-2.1001,-2.1071,-2.1033,-2.0907,-2.099,-2.0596,-1.9795,-1.9939,-1.9957,-1.9945,-2.0872,-2.074,-2.0007,-2.1511,-2.1662,-2.1153,-2.2604,-2.2709,-2.212,-2.2111,-2.2154,-2.1934,-2.0264,-2.0232,-2.0757,-1.9976,-1.9713,-1.9713,-1.9726,-1.9726,-1.9762,-1.9877,-1.9899,-1.9877,-1.9762,-1.9726,-1.9726,-1.9726,-1.9726,-1.9726,-1.9713,-1.9625,-1.9526,-1.9513,-1.9405,-1.9512,-2.0061,0.0,0.0,-2.0863,-2.0963,-2.096,-2.0939,-2.096,-2.0998,-2.1059,-2.0936,-2.1337,-2.2453,-2.2461,-2.2078,-2.1274,-2.1292,-2.0209,-1.7733,-1.6526,-1.6246,-1.6934,-1.6394,-1.6428,-1.7049,-1.6496,-1.6075,-1.5819,-1.5183,-1.4778,-1.4557,-1.4907,-1.2598,-0.8618,-0.8498,-0.5905,-0.2131,-0.3395,-0.2906,-0.1519,-0.1629,-0.0479,0.1287,-2.8594,-2.8687,-2.8737,-2.8737,-2.8761,-2.881,-2.8834,-2.8834,-2.8724,-2.8432,-2.7666,-2.6863,-2.6081,-2.5552,-2.4913,-2.4147,-2.338,-2.2941,-2.2941,-2.1126,-2.0059,-2.0065,-1.9748,-1.9585,-1.9585,-2.0597,-2.1243,-2.1451,-2.2545,-2.2526,-2.1467,-2.1643,-2.09,-1.9504,-2.0629,-2.0782,-2.0285,-2.1671,-2.1451,-2.0248,-2.0815,-2.0625,-2.0014,-2.0656,-2.1012,-2.109,-2.0658,-2.1131,-2.1689,-2.0022,-2.0004,-2.0522,-1.9801,-1.9585,-1.958,-1.9676,-1.9701,-1.9688,-1.9657,-1.9707,-1.9762,-1.9713,-1.9701,-1.9701,-1.9701,-1.9701,-1.9632,-1.9421,-1.9439,-1.9415,-1.9111,-1.9193,-1.947,-1.9974,0.0,-2.0283,-2.1213,-2.0968,-2.0828,-2.1266,-2.1057,-2.1104,-2.1708,-2.1542,-2.1597,-2.214,-2.2312,-2.1919,-2.0823,-2.038,-1.9414,-1.78,-1.6941,-1.6594,-1.6758,-1.6551,-1.662,-1.6966,-1.6243,-1.5782,-1.5564,-1.4803,-1.4402,-1.428,-1.36,-1.1316,-0.8031,-0.7218,-0.4273,-0.0327,-0.0883,-0.0683,0.0134,0.1896,0.2182,0.2037,-2.8264,-2.8344,-2.8404,-2.85,-2.8551,-2.8626,-2.8761,-2.8761,-2.8761,-2.8761,-2.7856,-2.6982,-2.6435,-2.5433,-2.4538,-2.3912,-2.3247,-2.283,-2.2754,-2.1314,-2.015,-1.9471,-1.9674,-1.9804,-1.9804,-2.1211,-2.2015,-2.2171,-2.3379,-2.3361,-2.2188,-2.237,-2.1591,-2.015,-2.1385,-2.1553,-2.0978,-2.1823,-2.1548,-2.0503,-2.0503,-2.0023,-1.936,-1.9996,-2.0172,-2.0113,-1.9889,-2.0486,-2.118,-1.9767,-1.984,-2.0388,-1.9664,-1.9448,-1.9458,-1.9612,-1.9612,-1.9628,-1.9815,-1.9731,-1.9572,-1.9572,-1.9758,-1.9889,-1.9628,-1.9777,-1.9801,-1.924,-1.9436,-1.9533,-1.8914,-1.938,-1.983,-1.9816,-2.0103,-2.0517,-2.1014,-2.0835,-2.0725,-2.0959,-2.0725,-2.0767,-2.1423,-2.1288,-2.1191,-2.1329,-2.173,-2.1498,-2.0343,-1.923,-1.8346,-1.7766,-1.7025,-1.6683,-1.6729,-1.677,-1.6998,-1.7376,-1.6351,-1.5791,-1.5648,-1.4548,-1.4025,-1.3938,-1.269,-0.9741,-0.5725,-0.4557,-0.0948,0.3726,0.2771,0.2778,0.3432,0.4578,0.4485,0.4073,-2.7701,-2.7701,-2.7771,-2.8047,-2.8102,-2.821,-2.8644,-2.8694,-2.8694,-2.8676,-2.7276,-2.6277,-2.6272,-2.486,-2.3816,-2.361,-2.3109,-2.2696,-2.2422,-2.1134,-2.0071,-1.9344,-2.0063,-2.0503,-2.0503,-2.1363,-2.2189,-2.2997,-2.3015,-2.3015,-2.2997,-2.2997,-2.2575,-2.1803,-2.1821,-2.1821,-2.1766,-2.0904,-2.0521,-2.0503,-2.0503,-2.0023,-1.9473,-2.116,-2.0756,-1.9399,-2.0191,-2.0484,-2.0374,-1.9565,-1.984,-2.0356,-1.9546,-1.9289,-1.9335,-1.9462,-1.9405,-1.9519,-2.0448,-2.0037,-1.9308,-1.9323,-1.9913,-2.0283,-1.9491,-1.9932,-2.0215,-1.9211,-1.9632,-1.9903,-1.8968,-1.9998,-2.0678,-1.9731,-2.0645,-2.1179,-2.032,-2.066,-2.0713,-1.9974,-1.9899,-1.9899,-1.9916,-1.9916,-1.9951,-2.0085,-2.0704,-2.0694,-1.984,-1.7825,-1.6901,-1.7384,-1.6559,-1.6313,-1.6791,-1.6906,-1.7493,-1.8475,-1.6941,-1.6232,-1.6229,-1.4485,-1.3665,-1.3522,-1.2437,-0.7731,-0.0751,0.0217,0.4903,1.1154,0.8189,0.8013,0.9047,0.613,0.627,0.7899,-2.7654,-2.7701,-2.773,-2.78,-2.7829,-2.7858,-2.7971,-2.8,-2.7804,-2.7299,-2.6313,-2.5461,-2.4935,-2.3958,-2.3312,-2.3242,-2.3104,-2.2776,-2.2158,-2.0769,-1.9863,-1.9593,-2.0137,-2.0455,-2.0505,-2.1861,-2.2722,-2.2997,-2.3566,-2.3529,-2.2941,-2.2941,-2.2502,-2.1733,-2.2319,-2.2594,-2.263,-2.2373,-2.1932,-2.1363,-2.0758,-1.9925,-1.9152,-1.9808,-1.9648,-1.9134,-1.9522,-1.9928,-2.0172,-1.9356,-1.9524,-1.9957,-1.9302,-1.9196,-1.9415,-2.0031,-2.0165,-2.0285,-2.0987,-2.0988,-2.0825,-2.0999,-2.0675,-2.0245,-2.006,-2.0029,-1.9811,-1.8857,-1.8949,-1.9056,-1.8478,-1.8856,-1.9225,-1.9194,-1.9375,-1.9571,-1.9677,-1.9267,-1.9147,-1.9578,-1.9199,-1.9177,-1.984,-1.9744,-1.9432,-1.8993,-1.8329,-1.8044,-1.8324,-1.7081,-1.6405,-1.6565,-1.6071,-1.5915,-1.6169,-1.6212,-1.6658,-1.7429,-1.635,-1.5687,-1.5339,-1.4266,-1.3275,-1.2304,-1.0426,-0.7201,-0.2962,0.0848,0.4843,0.8669,0.9805,0.989,0.9412,0.9524,0.886,0.8046,-2.7258,-2.7289,-2.7352,-2.7491,-2.7491,-2.7552,-2.7672,-2.7701,-2.7438,-2.6694,-2.5893,-2.5103,-2.4382,-2.359,-2.306,-2.2935,-2.2646,-2.231,-2.1972,-2.0837,-2.0149,-2.0107,-2.0394,-2.0461,-2.0228,-2.1784,-2.2636,-2.2676,-2.3456,-2.3581,-2.3069,-2.3069,-2.2777,-2.2305,-2.2793,-2.3089,-2.3209,-2.2783,-2.2386,-2.1935,-2.0681,-1.9849,-1.9345,-1.9451,-1.9485,-1.9505,-1.9813,-2.0228,-2.0515,-1.9954,-2.0019,-2.0283,-1.9918,-1.9867,-2.0082,-2.0572,-2.0699,-2.0843,-2.1502,-2.1444,-2.1393,-2.2162,-2.167,-2.0908,-2.0639,-2.0471,-2.019,-1.9509,-1.9404,-1.9321,-1.9029,-1.9258,-1.9459,-1.9348,-1.9169,-1.9042,-1.9095,-1.8522,-1.8205,-1.85,-1.8191,-1.8169,-1.8742,-1.8542,-1.8302,-1.8182,-1.7189,-1.6923,-1.7662,-1.6502,-1.5866,-1.6006,-1.5096,-1.4703,-1.4919,-1.4272,-1.4618,-1.5937,-1.4933,-1.4298,-1.3935,-1.3215,-1.251,-1.1727,-0.9478,-0.6854,-0.3879,0.0568,0.4023,0.6807,0.9645,1.0209,0.9562,1.102,1.0618,0.9488,-2.6691,-2.6691,-2.6791,-2.7085,-2.7149,-2.7276,-2.7565,-2.7595,-2.7297,-2.6521,-2.5785,-2.5014,-2.4199,-2.348,-2.2935,-2.2685,-2.1928,-2.1591,-2.1906,-2.1121,-2.0668,-2.0755,-2.073,-2.0398,-1.9734,-2.1281,-2.2123,-2.2206,-2.2927,-2.33,-2.3282,-2.3211,-2.3182,-2.3189,-2.3118,-2.3275,-2.349,-2.2531,-2.2216,-2.221,-2.0557,-1.9858,-1.9775,-1.9866,-2.0003,-2.019,-2.0702,-2.1043,-2.122,-2.1008,-2.0933,-2.0965,-2.0965,-2.0965,-2.1004,-2.1096,-2.1093,-2.127,-2.199,-2.1644,-2.141,-2.2782,-2.2675,-2.2012,-2.1249,-2.1093,-2.1033,-2.0723,-2.0501,-2.0295,-2.0,-2.0406,-2.0492,-1.9696,-1.9396,-1.9075,-1.8416,-1.8137,-1.7737,-1.7071,-1.6991,-1.6991,-1.6924,-1.6633,-1.6752,-1.7468,-1.6862,-1.6741,-1.7396,-1.598,-1.5256,-1.5506,-1.3874,-1.3094,-1.3347,-1.1795,-1.2034,-1.4072,-1.3016,-1.242,-1.2249,-1.1688,-1.1505,-1.1474,-0.9178,-0.6747,-0.4126,-0.0342,0.2673,0.5225,0.8168,0.9354,0.9554,1.0833,1.1439,1.1601,-2.6691,-2.6691,-2.6725,-2.6791,-2.6825,-2.6825,-2.6923,-2.6923,-2.6429,-2.5128,-2.4821,-2.4176,-2.2863,-2.2573,-2.246,-2.2377,-2.1698,-2.1538,-2.217,-2.0926,-2.0432,-2.1046,-2.0483,-1.9826,-1.9104,-2.1015,-2.2056,-2.2123,-2.2863,-2.3189,-2.3124,-2.2564,-2.2576,-2.31,-2.2523,-2.264,-2.3282,-2.3035,-2.2605,-2.2043,-2.1662,-2.0684,-1.9573,-2.0305,-2.0164,-1.9693,-2.0473,-2.1113,-2.1563,-2.1357,-2.0991,-2.0638,-2.0683,-2.0776,-2.1068,-2.1736,-2.1896,-2.1985,-2.2628,-2.2625,-2.2516,-2.2634,-2.253,-2.228,-2.1685,-2.1492,-2.1184,-2.0328,-2.0159,-1.9898,-1.9002,-1.8908,-1.8673,-1.7814,-1.7657,-1.7497,-1.7071,-1.7191,-1.6981,-1.6117,-1.6184,-1.6099,-1.559,-1.5475,-1.5607,-1.6104,-1.5755,-1.5448,-1.5268,-1.5041,-1.4658,-1.416,-1.3756,-1.3316,-1.2872,-1.1665,-1.1576,-1.258,-1.2064,-1.1576,-1.1136,-1.1004,-1.0625,-0.9957,-0.8084,-0.7121,-0.6426,-0.1018,0.1539,0.2481,0.6337,0.8529,0.9442,0.9125,1.0147,1.1564,-2.6385,-2.6303,-2.6285,-2.664,-2.6404,-2.6285,-2.664,-2.6691,-2.6167,-2.4709,-2.4506,-2.3934,-2.2462,-2.231,-2.231,-2.231,-2.1955,-2.1887,-2.2276,-2.1566,-2.1295,-2.1701,-2.0991,-2.0213,-1.9452,-2.0484,-2.09,-2.061,-2.1736,-2.2285,-2.2243,-2.22,-2.2383,-2.2704,-2.2323,-2.2459,-2.295,-2.2824,-2.2598,-2.2272,-2.1809,-2.1081,-2.0329,-2.0852,-2.0795,-2.0529,-2.126,-2.1721,-2.2022,-2.1907,-2.1687,-2.1462,-2.1487,-2.1586,-2.1729,-2.2136,-2.2148,-2.2134,-2.2487,-2.2375,-2.2181,-2.2175,-2.2061,-2.1927,-2.1863,-2.1513,-2.1116,-2.0777,-2.0368,-1.9877,-1.9378,-1.9135,-1.8683,-1.7646,-1.7748,-1.7642,-1.6744,-1.6934,-1.6792,-1.5824,-1.5664,-1.5521,-1.5313,-1.5178,-1.5255,-1.5572,-1.5205,-1.4805,-1.4381,-1.4173,-1.3776,-1.3179,-1.2623,-1.2149,-1.1815,-1.0493,-0.9962,-1.0142,-1.0024,-0.9755,-0.9366,-0.922,-0.8901,-0.8419,-0.7143,-0.6419,-0.5844,-0.1533,0.0529,0.1343,0.5356,0.7353,0.8042,0.8665,0.9705,1.0782,-2.5938,-2.5698,-2.5763,-2.6573,-2.6099,-2.5862,-2.659,-2.6691,-2.6167,-2.4709,-2.4625,-2.4069,-2.2479,-2.231,-2.231,-2.231,-2.231,-2.231,-2.231,-2.2254,-2.2209,-2.2209,-2.1574,-2.0857,-2.0049,-2.0016,-1.9698,-1.8971,-2.0399,-2.1147,-2.1283,-2.1766,-2.2112,-2.231,-2.2175,-2.2313,-2.2623,-2.2377,-2.2432,-2.2554,-2.1725,-2.1305,-2.1213,-2.1392,-2.1498,-2.1617,-2.2187,-2.2377,-2.2377,-2.2377,-2.2405,-2.246,-2.2415,-2.2388,-2.236,-2.2203,-2.2044,-2.1911,-2.1953,-2.1705,-2.1448,-2.1661,-2.1493,-2.1433,-2.1853,-2.1441,-2.1081,-2.1362,-2.0857,-2.03,-2.0044,-1.9908,-1.9389,-1.8118,-1.8371,-1.8253,-1.6936,-1.7018,-1.6848,-1.5876,-1.528,-1.5005,-1.5235,-1.4975,-1.4868,-1.5098,-1.4722,-1.4259,-1.3788,-1.3323,-1.2847,-1.233,-1.1419,-1.0867,-1.068,-0.9317,-0.8419,-0.801,-0.7888,-0.7744,-0.7569,-0.7298,-0.7125,-0.7019,-0.6142,-0.5267,-0.4199,-0.1676,-0.0033,0.1208,0.4618,0.6172,0.6737,0.8813,0.9588,0.9678,-2.5276,-2.5162,-2.5396,-2.6522,-2.6099,-2.5862,-2.659,-2.6691,-2.6167,-2.4709,-2.505,-2.4661,-2.2547,-2.231,-2.231,-2.231,-2.231,-2.231,-2.231,-2.202,-2.1857,-2.1857,-2.1486,-2.0929,-2.0183,-2.0166,-1.975,-1.8917,-1.9756,-2.0517,-2.1204,-2.0602,-2.1042,-2.2276,-2.1634,-2.1729,-2.2366,-2.231,-2.231,-2.2349,-2.2192,-2.1769,-2.1271,-2.1904,-2.1779,-2.1358,-2.2067,-2.231,-2.231,-2.231,-2.231,-2.231,-2.2061,-2.1986,-2.1928,-2.1675,-2.1554,-2.1462,-2.1493,-2.1401,-2.1339,-2.137,-2.1323,-2.1407,-2.174,-2.1553,-2.1287,-2.1102,-2.152,-2.1423,-1.9861,-1.9933,-1.9739,-1.8222,-1.799,-1.7817,-1.7428,-1.7317,-1.6976,-1.6083,-1.4933,-1.4259,-1.4277,-1.3826,-1.353,-1.3514,-1.3492,-1.3156,-1.2319,-1.2543,-1.2235,-1.126,-1.1402,-1.1063,-1.0185,-0.9483,-0.8776,-0.806,-0.688,-0.6426,-0.6661,-0.6622,-0.643,-0.6019,-0.4934,-0.4155,-0.3469,-0.1038,0.062,0.1745,0.3415,0.5376,0.7453,0.9203,0.9315,0.8617,-2.3961,-2.4297,-2.4849,-2.5372,-2.5157,-2.5058,-2.5407,-2.5804,-2.5504,-2.4067,-2.4513,-2.4265,-2.2483,-2.1969,-2.1751,-2.1751,-2.1751,-2.1751,-2.1751,-2.1601,-2.1524,-2.1524,-2.137,-2.0936,-2.0226,-2.021,-1.9792,-1.895,-1.9913,-2.0435,-2.0534,-2.0636,-2.1025,-2.1667,-2.1166,-2.1334,-2.202,-2.1827,-2.1857,-2.202,-2.202,-2.1819,-2.1546,-2.1646,-2.1608,-2.1568,-2.1903,-2.1886,-2.1751,-2.1751,-2.1751,-2.1721,-2.1615,-2.1568,-2.1524,-2.1291,-2.115,-2.1071,-2.115,-2.0958,-2.0811,-2.0958,-2.0877,-2.0709,-2.0698,-2.0596,-2.0699,-2.1337,-2.1013,-2.0487,-1.9974,-1.9827,-1.9466,-1.8437,-1.8587,-1.8489,-1.7541,-1.7314,-1.6723,-1.531,-1.4714,-1.4562,-1.4862,-1.3907,-1.3538,-1.4157,-1.3223,-1.2484,-1.2117,-1.1849,-1.1409,-1.0677,-1.0263,-0.9826,-0.9372,-0.8472,-0.7755,-0.727,-0.6439,-0.613,-0.6201,-0.5744,-0.523,-0.4652,-0.4125,-0.3203,-0.1886,-0.0393,0.0888,0.2069,0.345,0.509,0.689,0.8287,0.8441,0.798]},{"header":{"parameterUnit":"m.s-1","parameterCategory":1,"la1":30.6,"la2":28.766,"lo1":-90.7593,"lo2":-88.6598,"dx":0.0162,"dy":0.0183,"nx":116,"ny":114,"refTime":"2023-02-12T06:00:00:Z","depth":0,"parameterNumber":3,"parameterNumberName":"V-component_of_WINDS"},"data":[0.0,0.0,0.0,0.0,0.0,0.0,0.0,0.0,0.0,0.0,0.0,0.0,0.0,0.0,0.0,0.0,0.0,0.0,0.0,0.0,0.0,0.0,0.0,0.0,0.0,0.0,0.0,0.0,0.0,0.0,0.0,0.0,0.0,0.0,0.0,0.0,0.0,0.0,0.0,0.0,0.0,0.0,0.0,0.0,0.0,0.0,0.0,0.0,0.0,0.0,0.0,0.0,0.0,0.0,0.0,0.0,0.0,0.0,0.0,0.0,0.0,0.0,0.0,0.0,0.0,0.0,0.0,0.0,0.0,0.0,0.0,0.0,0.0,0.0,0.0,0.0,0.0,0.0,0.0,0.0,0.0,0.0,0.0,0.0,0.0,0.0,0.0,0.0,0.0,0.0,0.0,0.0,0.0,0.0,0.0,0.0,0.0,0.0,0.0,0.0,0.0,0.0,0.0,0.0,0.0,0.0,0.0,0.0,0.0,0.0,0.0,0.0,0.0,0.0,0.0,0.0,0.0,0.0,0.0,0.0,0.0,0.0,0.0,0.0,0.0,0.0,0.0,0.0,0.0,0.0,0.0,0.0,0.0,0.0,0.0,0.0,0.0,0.0,0.0,0.0,0.0,0.0,0.0,0.0,0.0,0.0,0.0,0.0,0.0,0.0,0.0,0.0,0.0,0.0,0.0,0.0,0.0,0.0,0.0,0.0,0.0,0.0,0.0,0.0,0.0,0.0,0.0,0.0,0.0,0.0,0.0,0.0,0.0,0.0,0.0,0.0,0.0,0.0,0.0,0.0,0.0,0.0,0.0,0.0,0.0,0.0,0.0,0.0,0.0,0.0,0.0,0.0,0.0,0.0,0.0,0.0,0.0,0.0,0.0,0.0,0.0,0.0,0.0,0.0,0.0,0.0,0.0,0.0,0.0,0.0,0.0,0.0,0.0,0.0,0.0,0.0,0.0,0.0,0.0,0.0,0.0,0.0,0.0,0.0,0.0,0.0,0.0,0.0,0.0,0.0,0.0,0.0,0.0,0.0,0.0,0.0,0.0,0.0,0.0,0.0,0.0,0.0,0.0,0.0,0.0,0.0,0.0,0.0,0.0,0.0,0.0,0.0,0.0,0.0,0.0,0.0,0.0,0.0,0.0,0.0,0.0,0.0,0.0,0.0,0.0,0.0,0.0,0.0,0.0,0.0,0.0,0.0,0.0,0.0,0.0,0.0,0.0,0.0,0.0,0.0,0.0,0.0,0.0,0.0,0.0,0.0,0.0,0.0,0.0,0.0,0.0,0.0,0.0,0.0,0.0,0.0,0.0,0.0,0.0,0.0,0.0,0.0,0.0,0.0,0.0,0.0,0.0,0.0,0.0,0.0,0.0,0.0,0.0,0.0,0.0,0.0,0.0,0.0,0.0,0.0,0.0,0.0,0.0,0.0,0.0,0.0,0.0,0.0,0.0,0.0,0.0,0.0,0.0,0.0,0.0,0.0,0.0,0.0,0.0,0.0,0.0,0.0,0.0,0.0,0.0,0.0,0.0,0.0,0.0,0.0,0.0,0.0,0.0,0.0,0.0,0.0,0.0,0.0,0.0,0.0,0.0,0.0,0.0,0.0,0.0,0.0,0.0,0.0,0.0,0.0,0.0,0.0,0.0,0.0,0.0,0.0,0.0,0.0,0.0,0.0,0.0,0.0,0.0,0.0,0.0,0.0,0.0,0.0,0.0,0.0,0.0,0.0,0.0,0.0,0.0,0.0,0.0,0.0,0.0,0.0,0.0,0.0,0.0,0.0,0.0,0.0,0.0,0.0,0.0,0.0,0.0,0.0,0.0,0.0,0.0,0.0,0.0,0.0,0.0,0.0,0.0,0.0,0.0,0.0,0.0,0.0,0.0,0.0,0.0,0.0,0.0,0.0,0.0,0.0,0.0,0.0,0.0,0.0,0.0,0.0,0.0,0.0,0.0,0.0,0.0,0.0,0.0,0.0,0.0,0.0,0.0,0.0,0.0,0.0,0.0,0.0,0.0,0.0,0.0,0.0,0.0,0.0,0.0,0.0,0.0,0.0,0.0,0.0,0.0,0.0,0.0,0.0,0.0,0.0,0.0,0.0,0.0,0.0,0.0,0.0,0.0,0.0,0.0,0.0,0.0,0.0,0.0,0.0,0.0,0.0,0.0,0.0,0.0,0.0,0.0,0.0,0.0,0.0,0.0,0.0,0.0,0.0,0.0,0.0,0.0,0.0,0.0,0.0,0.0,0.0,0.0,0.0,0.0,0.0,0.0,0.0,0.0,0.0,0.0,0.0,0.0,0.0,0.0,0.0,0.0,0.0,0.0,0.0,0.0,0.0,0.0,0.0,0.0,0.0,0.0,0.0,0.0,0.0,0.0,0.0,0.0,0.0,0.0,0.0,0.0,0.0,0.0,0.0,0.0,0.0,0.0,0.0,0.0,0.0,0.0,0.0,0.0,0.0,0.0,0.0,0.0,0.0,0.0,0.0,0.0,0.0,0.0,0.0,0.0,0.0,0.0,0.0,0.0,0.0,0.0,0.0,0.0,0.0,0.0,0.0,0.0,0.0,0.0,0.0,0.0,0.0,0.0,0.0,0.0,0.0,0.0,0.0,0.0,0.0,0.0,0.0,0.0,0.0,0.0,0.0,0.0,0.0,0.0,0.0,0.0,0.0,0.0,0.0,0.0,0.0,0.0,0.0,0.0,0.0,0.0,0.0,0.0,0.0,0.0,0.0,0.0,0.0,0.0,0.0,0.0,0.0,0.0,0.0,0.0,0.0,0.0,0.0,0.0,0.0,0.0,0.0,0.0,0.0,0.0,0.0,0.0,0.0,0.0,0.0,0.0,0.0,0.0,0.0,0.0,0.0,0.0,0.0,0.0,0.0,0.0,0.0,0.0,0.0,0.0,0.0,0.0,0.0,0.0,0.0,0.0,0.0,0.0,0.0,0.0,0.0,0.0,0.0,0.0,0.0,0.0,0.0,0.0,0.0,0.0,0.0,0.0,0.0,0.0,0.0,0.0,0.0,0.0,0.0,0.0,0.0,0.0,0.0,0.0,0.0,0.0,0.0,0.0,0.0,0.0,0.0,0.0,0.0,0.0,0.0,0.0,0.0,0.0,0.0,0.0,0.0,0.0,0.0,0.0,0.0,0.0,0.0,0.0,0.0,0.0,0.0,0.0,0.0,0.0,0.0,0.0,0.0,0.0,0.0,0.0,0.0,0.0,0.0,0.0,0.0,0.0,0.0,0.0,0.0,0.0,0.0,0.0,0.0,0.0,0.0,0.0,0.0,0.0,0.0,0.0,0.0,0.0,0.0,0.0,0.0,0.0,0.0,0.0,0.0,0.0,0.0,0.0,0.0,0.0,0.0,0.0,0.0,0.0,0.0,0.0,0.0,0.0,0.0,0.0,0.0,0.0,0.0,0.0,0.0,0.0,0.0,0.0,0.0,0.0,0.0,0.0,0.0,0.0,0.0,0.0,0.0,0.0,0.0,0.0,0.0,0.0,0.0,0.0,0.0,0.0,0.0,0.0,0.0,0.0,0.0,0.0,0.0,0.0,0.0,0.0,0.0,0.0,0.0,0.0,0.0,0.0,0.0,0.0,0.0,0.0,0.0,0.0,0.0,0.0,0.0,0.0,0.0,0.0,0.0,0.0,0.0,0.0,0.0,0.0,0.0,0.0,0.0,0.0,0.0,0.0,0.0,0.0,0.0,0.0,0.0,0.0,0.0,0.0,0.0,0.0,0.0,0.0,0.0,0.0,0.0,0.0,0.0,0.0,0.0,0.0,0.0,0.0,0.0,0.0,0.0,0.0,0.0,0.0,0.0,0.0,0.0,0.0,0.0,0.0,0.0,0.0,0.0,0.0,0.0,0.0,0.0,0.0,0.0,0.0,0.0,0.0,0.0,0.0,0.0,0.0,0.0,0.0,0.0,0.0,0.0,0.0,0.0,0.0,0.0,0.0,0.0,0.0,0.0,0.0,0.0,0.0,0.0,0.0,0.0,0.0,0.0,0.0,0.0,0.0,0.0,0.0,0.0,0.0,0.0,0.0,0.0,0.0,0.0,0.0,0.0,0.0,0.0,0.0,0.0,0.0,0.0,0.0,0.0,0.0,0.0,0.0,0.0,0.0,0.0,0.0,0.0,0.0,0.0,0.0,0.0,0.0,0.0,0.0,0.0,0.0,0.0,0.0,0.0,0.0,0.0,0.0,0.0,0.0,0.0,0.0,0.0,0.0,0.0,0.0,0.0,0.0,0.0,0.0,0.0,0.0,0.0,0.0,0.0,0.0,0.0,0.0,0.0,0.0,0.0,0.0,0.0,0.0,0.0,0.0,0.0,0.0,0.0,0.0,0.0,0.0,0.0,0.0,0.0,0.0,0.0,0.0,0.0,0.0,0.0,0.0,0.0,0.0,0.0,0.0,0.0,0.0,0.0,0.0,0.0,0.0,0.0,0.0,0.0,0.0,0.0,0.0,0.0,0.0,0.0,0.0,0.0,0.0,0.0,0.0,0.0,0.0,0.0,0.0,0.0,0.0,0.0,0.0,0.0,0.0,0.0,0.0,0.0,0.0,0.0,0.0,0.0,0.0,0.0,0.0,0.0,0.0,0.0,0.0,0.0,0.0,0.0,0.0,0.0,0.0,0.0,0.0,0.0,0.0,0.0,0.0,0.0,0.0,0.0,0.0,0.0,0.0,0.0,0.0,0.0,0.0,0.0,0.0,0.0,0.0,0.0,0.0,0.0,0.0,0.0,0.0,0.0,0.0,0.0,0.0,0.0,0.0,0.0,0.0,0.0,0.0,0.0,0.0,0.0,0.0,0.0,0.0,0.0,0.0,0.0,0.0,0.0,0.0,0.0,0.0,0.0,0.0,0.0,0.0,0.0,0.0,0.0,0.0,0.0,0.0,0.0,0.0,0.0,0.0,0.0,0.0,0.0,0.0,0.0,0.0,0.0,0.0,0.0,0.0,0.0,0.0,0.0,0.0,0.0,0.0,0.0,0.0,0.0,0.0,0.0,0.0,0.0,0.0,0.0,0.0,0.0,0.0,0.0,0.0,0.0,0.0,0.0,0.0,0.0,0.0,0.0,0.0,0.0,0.0,0.0,0.0,0.0,0.0,0.0,0.0,0.0,0.0,0.0,0.0,0.0,0.0,0.0,0.0,0.0,0.0,0.0,0.0,0.0,0.0,0.0,0.0,0.0,0.0,0.0,0.0,0.0,0.0,0.0,0.0,0.0,0.0,0.0,0.0,0.0,0.0,0.0,0.0,0.0,0.0,0.0,0.0,0.0,0.0,0.0,0.0,0.0,0.0,0.0,0.0,0.0,0.0,0.0,0.0,0.0,0.0,0.0,0.0,0.0,0.0,0.0,0.0,0.0,0.0,0.0,0.0,0.0,0.0,0.0,0.0,0.0,0.0,0.0,0.0,0.0,0.0,0.0,0.0,0.0,0.0,0.0,0.0,0.0,0.0,0.0,0.0,0.0,0.0,0.0,0.0,0.0,0.0,0.0,0.0,0.0,0.0,0.0,0.0,0.0,0.0,0.0,0.0,0.0,0.0,0.0,0.0,0.0,0.0,0.0,0.0,0.0,0.0,0.0,0.0,0.0,0.0,0.0,0.0,0.0,0.0,0.0,0.0,0.0,0.0,0.0,0.0,0.0,0.0,0.0,0.0,0.0,0.0,0.0,0.0,0.0,0.0,0.0,0.0,0.0,0.0,0.0,0.0,0.0,0.0,0.0,0.0,0.0,0.0,0.0,0.0,0.0,0.0,0.0,0.0,0.0,0.0,0.0,0.0,0.0,0.0,0.0,0.0,0.0,0.0,0.0,0.0,0.0,0.0,0.0,0.0,0.0,0.0,0.0,0.0,0.0,0.0,0.0,0.0,0.0,0.0,0.0,0.0,0.0,0.0,0.0,0.0,0.0,0.0,0.0,0.0,0.0,0.0,0.0,0.0,0.0,0.0,0.0,0.0,0.0,0.0,0.0,0.0,0.0,0.0,0.0,0.0,0.0,0.0,0.0,0.0,0.0,0.0,0.0,0.0,0.0,0.0,0.0,0.0,0.0,0.0,0.0,0.0,0.0,-1.3577,0.0,0.0,0.0,0.0,0.0,0.0,0.0,0.0,0.0,0.0,0.0,0.0,0.0,0.0,0.0,0.0,0.0,0.0,0.0,0.0,0.0,0.0,0.0,0.0,0.0,0.0,0.0,0.0,0.0,0.0,0.0,0.0,0.0,0.0,0.0,0.0,0.0,0.0,0.0,0.0,0.0,0.0,0.0,0.0,0.0,0.0,0.0,0.0,0.0,0.0,0.0,0.0,0.0,0.0,0.0,0.0,0.0,0.0,0.0,0.0,0.0,0.0,0.0,0.0,0.0,0.0,0.0,0.0,0.0,0.0,0.0,0.0,0.0,0.0,0.0,0.0,0.0,0.0,0.0,0.0,0.0,0.0,0.0,0.0,0.0,0.0,0.0,0.0,0.0,0.0,0.0,0.0,0.0,0.0,0.0,0.0,0.0,0.0,0.0,0.0,0.0,0.0,0.0,0.0,0.0,0.0,0.0,0.0,0.0,0.0,0.0,0.0,0.0,0.0,0.0,0.0,-1.4485,0.0,0.0,0.0,0.0,0.0,0.0,0.0,0.0,0.0,0.0,0.0,0.0,0.0,0.0,0.0,0.0,0.0,0.0,0.0,0.0,0.0,0.0,0.0,0.0,0.0,0.0,0.0,0.0,0.0,0.0,0.0,0.0,0.0,0.0,0.0,0.0,0.0,0.0,0.0,0.0,0.0,0.0,0.0,0.0,0.0,0.0,0.0,0.0,0.0,0.0,0.0,0.0,0.0,0.0,0.0,0.0,0.0,0.0,0.0,0.0,0.0,0.0,0.0,0.0,0.0,0.0,0.0,0.0,0.0,0.0,0.0,0.0,0.0,0.0,0.0,0.0,0.0,0.0,0.0,0.0,0.0,0.0,0.0,0.0,0.0,0.0,0.0,0.0,0.0,0.0,0.0,0.0,0.0,0.0,0.0,0.0,0.0,0.0,0.0,0.0,0.0,0.0,0.0,0.0,0.0,0.0,0.0,0.0,-1.6917,-1.7885,-1.7864,-1.9441,-1.9762,-1.8963,-1.7352,-1.6148,-1.5358,-1.5696,0.0,0.0,0.0,0.0,0.0,0.0,0.0,0.0,0.0,0.0,0.0,0.0,0.0,0.0,0.0,0.0,0.0,0.0,0.0,0.0,0.0,0.0,0.0,0.0,0.0,0.0,0.0,0.0,0.0,0.0,0.0,0.0,0.0,0.0,0.0,0.0,0.0,0.0,0.0,0.0,0.0,0.0,0.0,0.0,0.0,0.0,0.0,0.0,0.0,0.0,0.0,0.0,0.0,0.0,0.0,0.0,0.0,0.0,0.0,0.0,0.0,0.0,0.0,0.0,0.0,0.0,0.0,0.0,0.0,0.0,0.0,0.0,0.0,0.0,0.0,0.0,0.0,0.0,0.0,0.0,0.0,0.0,0.0,0.0,0.0,0.0,-0.7291,-0.7544,0.0,0.0,0.0,0.0,0.0,0.0,0.0,0.0,0.0,0.0,0.0,0.0,0.0,-1.4524,-1.5203,-1.579,-1.6083,-1.6083,-1.7965,-1.8651,-1.8395,-2.0358,-2.128,-2.1275,-2.1163,0.0,-1.6991,-1.614,0.0,0.0,0.0,0.0,0.0,0.0,0.0,0.0,0.0,0.0,0.0,0.0,0.0,0.0,0.0,0.0,0.0,0.0,0.0,0.0,0.0,0.0,0.0,0.0,0.0,0.0,0.0,0.0,0.0,0.0,0.0,0.0,0.0,0.0,0.0,0.0,0.0,0.0,0.0,0.0,0.0,0.0,0.0,0.0,0.0,0.0,0.0,0.0,0.0,0.0,0.0,0.0,0.0,0.0,0.0,0.0,0.0,0.0,0.0,0.0,0.0,0.0,0.0,0.0,0.0,0.0,0.0,0.0,0.0,0.0,0.0,0.0,0.0,0.0,0.0,0.0,0.0,0.0,0.0,0.0,0.0,0.0,0.0,0.0,0.0,-0.745,-0.7997,-0.781,-0.8087,-0.8279,0.0,0.0,0.0,0.0,0.0,0.0,0.0,0.0,0.0,-1.3859,-1.4921,-1.5579,-1.5689,-1.6551,-1.6982,-1.6991,-1.9153,-2.0014,-1.9567,-2.1778,-2.2694,-2.2545,-2.274,-2.181,-1.9997,-1.8614,-1.813,-1.8197,0.0,0.0,0.0,0.0,-1.9169,-1.8953,0.0,0.0,0.0,0.0,0.0,0.0,0.0,0.0,0.0,0.0,0.0,0.0,0.0,0.0,0.0,0.0,0.0,0.0,0.0,0.0,0.0,0.0,0.0,0.0,0.0,0.0,0.0,0.0,0.0,0.0,0.0,0.0,0.0,0.0,0.0,0.0,0.0,0.0,0.0,0.0,0.0,0.0,0.0,0.0,0.0,0.0,0.0,0.0,0.0,0.0,0.0,0.0,0.0,0.0,0.0,0.0,0.0,0.0,0.0,0.0,0.0,0.0,0.0,0.0,0.0,0.0,0.0,0.0,0.0,0.0,0.0,0.0,0.0,0.0,0.0,0.0,0.0,-0.8055,-0.8435,-0.8045,-0.8525,-0.8753,0.0,0.0,0.0,0.0,0.0,0.0,-1.2339,-1.39,-1.4834,-1.4934,-1.6035,-1.6569,-1.6459,-1.7358,-1.7853,-1.7963,-2.0276,-2.1146,-2.0814,-2.2936,-2.3781,-2.3614,-2.3819,-2.3424,-2.2462,-2.0694,-1.9703,-1.9251,-1.9149,-1.9453,-1.9938,-2.0271,-2.0091,-1.9627,0.0,0.0,0.0,0.0,0.0,0.0,0.0,0.0,0.0,0.0,0.0,0.0,0.0,0.0,0.0,0.0,0.0,0.0,0.0,0.0,0.0,0.0,0.0,0.0,0.0,0.0,0.0,0.0,0.0,0.0,0.0,0.0,0.0,0.0,0.0,0.0,0.0,0.0,0.0,0.0,0.0,0.0,0.0,0.0,0.0,0.0,0.0,0.0,0.0,0.0,0.0,0.0,0.0,0.0,0.0,0.0,0.0,0.0,0.0,0.0,0.0,0.0,0.0,0.0,0.0,0.0,0.0,0.0,0.0,0.0,0.0,0.0,0.0,0.0,0.0,0.0,0.0,0.0,0.0,-0.8273,-0.8962,0.0,0.0,0.0,0.0,-1.026,-1.184,-1.3068,-1.368,-1.5296,-1.6404,-1.678,-1.7211,-1.7798,-1.855,-1.8623,-1.8843,-1.921,-2.0941,-2.179,-2.1769,-2.361,-2.4515,-2.4707,-2.4909,-2.4513,-2.3532,-2.1404,-2.1188,-2.1929,-2.0348,-2.1042,-2.2656,-2.1018,-2.0386,-2.0218,0.0,0.0,0.0,0.0,0.0,0.0,0.0,0.0,0.0,0.0,0.0,0.0,0.0,0.0,0.0,0.0,0.0,0.0,0.0,0.0,0.0,0.0,0.0,0.0,0.0,0.0,0.0,0.0,0.0,0.0,0.0,0.0,0.0,0.0,0.0,0.0,0.0,0.0,0.0,0.0,0.0,0.0,0.0,0.0,0.0,0.0,0.0,0.0,0.0,0.0,0.0,0.0,0.0,0.0,0.0,0.0,0.0,0.0,0.0,0.0,0.0,0.0,0.0,0.0,0.0,0.0,0.0,0.0,0.0,0.0,0.0,0.0,0.0,0.0,0.0,0.0,0.0,0.0,0.0,-0.9538,-1.0176,0.0,-1.0049,-1.0037,-1.0454,-1.1315,-1.2814,-1.4111,-1.5051,-1.6828,-1.7926,-1.8064,-1.8449,-1.8926,-1.9494,-1.9494,-1.9567,-1.9705,-2.1352,-2.2056,-2.1832,-2.3655,-2.4646,-2.4778,-2.4625,-2.4285,-2.3676,-2.2582,-2.2399,-2.2672,-2.1329,-2.1749,-2.2971,-2.1931,-2.1597,-2.1662,0.0,0.0,0.0,0.0,0.0,0.0,0.0,0.0,0.0,0.0,0.0,0.0,0.0,0.0,0.0,0.0,0.0,0.0,0.0,0.0,0.0,0.0,0.0,0.0,0.0,0.0,0.0,0.0,0.0,0.0,0.0,0.0,0.0,0.0,0.0,0.0,0.0,0.0,0.0,0.0,0.0,0.0,0.648,0.0,0.0,0.0,0.0,0.0,0.0,0.0,0.0,0.0,0.0,0.0,0.0,0.0,0.0,0.0,0.0,0.0,0.0,0.0,0.0,0.0,0.0,0.0,0.0,0.0,0.0,0.0,0.0,0.0,0.0,0.0,0.0,0.0,0.0,0.0,-1.0435,-1.0701,-1.1274,-1.151,-1.116,-1.1204,-1.1502,-1.222,-1.407,-1.5473,-1.6312,-1.8224,-1.9265,-1.9127,-1.9375,-1.9577,-1.9714,-1.9723,-1.9723,-1.9714,-2.1372,-2.2066,-2.1832,-2.3582,-2.4574,-2.4778,-2.4555,-2.4217,-2.3749,-2.3388,-2.3443,-2.3642,-2.2437,-2.2681,-2.3659,-2.3041,-2.2912,-2.298,0.0,0.0,0.0,0.0,0.0,0.0,0.0,0.0,0.0,0.0,0.0,0.0,0.0,0.0,0.0,0.0,0.0,0.0,0.0,0.0,0.0,0.0,0.0,0.0,0.0,0.0,0.0,0.0,0.0,0.0,0.0,0.0,0.0,0.0,0.0,0.0,0.0,0.0,0.0,0.0,0.0,0.0,0.816,0.0,0.0,0.0,0.0,0.0,0.0,0.0,0.0,0.0,0.0,0.0,0.0,0.0,0.0,0.0,0.0,0.0,0.0,0.0,0.0,0.0,0.0,0.0,0.0,0.0,0.0,0.0,0.0,0.0,0.0,0.0,0.0,0.0,-0.9332,-1.0419,-1.1181,-1.1546,-1.2182,-1.2445,-1.2023,-1.2594,-1.3076,-1.3089,-1.5454,-1.7056,-1.7391,-1.9316,-2.0272,-1.9962,-1.9943,-1.9751,-1.9347,-1.9338,-1.9329,-1.932,-2.1011,-2.1776,-2.1842,-2.3508,-2.4418,-2.479,-2.4778,-2.4412,-2.3797,-2.3773,-2.4277,-2.4891,-2.3597,-2.3946,-2.4952,-2.4385,-2.4118,-2.4041,0.0,0.0,0.0,0.0,0.0,0.0,0.0,0.0,0.0,0.0,0.0,0.0,0.0,0.0,0.0,0.0,0.0,0.0,0.0,0.0,0.0,0.0,0.0,0.0,0.0,0.0,0.0,0.0,0.0,0.0,0.0,0.0,0.0,0.0,0.0,0.0,0.0,0.0,0.0,0.0,0.0,0.0,0.8482,0.0,0.0,0.0,0.0,0.0,0.0,0.0,0.0,0.0,0.0,0.0,0.0,0.0,0.0,0.0,0.0,0.0,0.0,0.0,0.0,0.0,0.0,0.0,0.0,0.0,0.0,0.0,0.0,0.0,0.0,0.0,0.0,-0.8066,-0.9601,-1.0423,-1.1325,-1.2541,-1.2329,-1.2327,-1.3003,-1.3389,-1.3733,-1.3932,-1.5438,-1.6676,-1.7668,-1.8899,-1.9885,-2.0282,-2.0356,-2.0301,-2.0182,-2.0182,-2.0044,-1.976,-2.1411,-2.2087,-2.1832,-2.3582,-2.449,-2.455,-2.4449,-2.4327,-2.4166,-2.3929,-2.4501,-2.5481,-2.4243,-2.4794,-2.6174,-2.5121,-2.4303,-2.3749,0.0,0.0,0.0,0.0,0.0,0.0,0.0,0.0,0.0,0.0,0.0,0.0,0.0,0.0,0.0,0.0,0.0,0.0,0.0,0.0,0.0,0.0,0.0,0.0,0.0,0.0,0.0,0.0,0.0,0.0,0.0,0.0,0.0,0.0,0.0,0.0,0.0,0.0,0.0,0.0,0.0,0.0,0.9579,0.8603,0.7985,0.7583,0.7433,0.6724,0.5827,0.5456,0.0,0.0,0.0,0.0,0.0,0.0,0.0,0.0,0.0,0.0,0.0,0.0,0.0,0.0,0.0,0.0,0.0,0.0,0.0,0.0,0.0,0.0,0.0,0.0,-0.7273,-0.8384,-0.9455,-1.0218,-1.1025,-1.2026,-1.2183,-1.2516,-1.3082,-1.3746,-1.4192,-1.4446,-1.5551,-1.6827,-1.8016,-1.9101,-2.0017,-2.0692,-2.0769,-2.0686,-2.0521,-2.0356,-2.0154,-1.9925,-2.1401,-2.2025,-2.1832,-2.3582,-2.4418,-2.4478,-2.4531,-2.4412,-2.4312,-2.4138,-2.4912,0.0,0.0,0.0,0.0,0.0,-2.4845,-2.4191,0.0,0.0,0.0,0.0,0.0,0.0,0.0,0.0,0.0,0.0,0.0,0.0,0.0,0.0,0.0,0.0,0.0,0.0,0.0,0.0,0.0,0.0,0.0,0.0,0.0,0.0,0.0,0.0,0.0,0.0,0.0,0.0,0.0,0.0,0.0,0.0,0.0,0.0,0.0,0.0,0.0,0.0,1.0954,0.976,0.886,0.8181,0.8032,0.7158,0.6121,0.6065,0.0,0.0,0.0,0.0,0.0,0.0,0.0,0.0,0.0,0.0,0.0,0.0,0.0,0.0,0.0,0.0,0.0,0.0,0.0,0.0,0.0,0.0,0.0,0.0,-0.7669,-0.8731,-0.9027,-0.9733,-1.0359,-1.0819,-1.1869,-1.2586,-1.2807,-1.3767,-1.4443,-1.4641,-1.573,-1.6821,-1.8118,0.0,0.0,0.0,0.0,-2.0989,-2.0585,-2.0191,-1.9971,-1.9925,-2.1055,-2.168,-2.1842,-2.3361,-2.42,-2.449,-2.4718,-2.4661,-2.435,-2.4546,-2.5423,-2.6568,-2.5529,-2.5842,-2.6736,-2.6118,-2.5514,-2.5099,0.0,0.0,0.0,0.0,0.0,0.0,0.0,0.0,0.0,0.0,0.0,0.0,0.0,0.0,0.0,0.0,0.0,0.0,0.0,0.0,0.0,0.0,0.0,0.0,0.0,0.0,0.0,0.0,0.0,0.0,0.0,0.0,0.0,0.0,0.0,0.0,0.0,0.0,0.0,0.0,0.0,0.0,1.1444,1.0982,1.024,0.9503,0.9521,0.9153,0.8562,0.7502,0.6634,0.5874,0.4944,0.0,0.0,0.0,0.0,0.0,0.0,0.0,0.0,0.0,0.0,0.0,0.0,0.0,0.0,0.0,0.0,0.0,0.0,0.0,0.0,-0.6929,-0.7469,-0.7939,-0.8378,-0.8639,-0.9345,-1.1065,-1.1596,-1.2189,-1.3185,-1.4237,-1.4918,-1.4734,-1.4908,-1.5615,-1.6814,-1.784,-1.9015,-2.0416,-2.1159,-2.142,-2.0998,-2.0604,-2.0246,-1.9925,0.0,0.0,-2.1832,-2.2767,-2.3604,-2.4273,-2.4646,-2.4731,-2.4708,-2.5027,-2.5692,-2.6594,-2.7045,-2.7025,-2.6736,-2.6118,-2.5621,-2.5261,0.0,0.0,0.0,0.0,0.0,0.0,0.0,0.0,0.0,0.0,0.0,0.0,0.0,0.0,0.0,0.0,0.0,0.0,0.0,0.0,0.0,0.0,0.0,0.0,0.0,0.0,0.0,0.0,0.0,0.0,0.0,0.0,0.0,0.0,0.0,0.0,0.0,0.0,0.0,0.0,0.0,0.0,1.2826,1.1901,1.0979,1.008,0.9888,0.924,0.8368,0.7472,0.6662,0.5823,0.4934,0.417,0.3513,0.0,0.0,0.0,0.0,0.0,0.0,0.0,0.0,0.0,0.0,0.0,0.0,0.0,0.0,-0.4077,0.0,0.0,-0.698,-0.7506,-0.7784,-0.8014,-0.8238,-0.8272,-0.8702,-0.9792,-1.1026,-1.1982,-1.2505,-1.4156,-1.4953,-1.4727,-1.4979,-1.5499,-1.6452,-1.7755,-1.8964,-2.0249,-2.1177,-2.153,-2.1108,-2.0714,-2.0319,-1.9925,-2.0289,-2.0924,-2.1832,-2.2606,-2.3446,-2.42,-2.4502,-2.4718,-2.4861,-2.5523,-2.6102,-2.6488,-2.7047,-2.7079,-2.6736,-2.6118,-2.5751,-2.5593,0.0,0.0,0.0,0.0,0.0,0.0,0.0,0.0,0.0,0.0,0.0,0.0,0.0,0.0,0.0,0.0,0.0,0.0,0.0,0.0,0.0,0.0,0.0,0.0,0.0,0.0,0.0,0.0,0.0,0.0,0.0,0.0,0.0,0.0,0.0,0.0,0.0,0.0,0.0,0.0,0.0,0.0,1.4263,1.2846,1.1519,1.03,1.0037,0.9015,0.769,0.7333,0.6515,0.5505,0.4916,0.4483,0.414,0.4061,0.3479,0.0,0.0,0.0,0.0,0.0,0.0,0.0,0.0,0.0,-0.1634,-0.1846,-0.2734,-0.382,-0.4734,-0.5988,-0.7066,-0.7559,-0.8042,-0.8238,-0.8269,-0.8272,-0.8323,-0.8465,-1.0418,-1.1746,-1.1789,-1.3716,-1.4944,-1.4733,-1.5053,-1.559,-1.6183,-1.7762,-1.9063,-1.9977,-2.1087,-2.1575,-2.1236,-2.0833,-2.0475,-2.0154,-2.0292,-2.082,-2.166,-2.2424,-2.3224,-2.397,-2.4418,-2.4704,-2.5075,-2.5853,-2.6346,-2.6642,-2.6532,-2.6791,-2.7088,-2.6343,-2.5992,-2.5921,0.0,0.0,0.0,0.0,0.0,0.0,0.0,0.0,0.0,0.0,0.0,0.0,0.0,0.0,0.0,0.0,0.0,0.0,0.0,0.0,0.0,0.0,0.0,0.0,0.0,0.0,0.0,0.0,0.0,0.0,0.0,0.0,0.0,0.0,0.0,0.0,0.0,0.0,0.0,0.0,0.0,0.0,1.4956,1.401,1.2289,1.0441,1.0586,0.9777,0.8505,0.8117,0.7232,0.6219,0.5895,0.5035,0.4298,0.4384,0.0,0.2757,0.2165,0.0973,-0.0171,-0.0723,-0.0858,-0.0947,0.0,0.0,-0.1246,-0.1342,-0.2154,-0.3028,-0.3269,-0.5002,-0.6343,-0.6509,-0.735,-0.8113,-0.8252,-0.8272,-0.8323,-0.8465,-1.0301,-1.1687,-1.1775,-1.3568,-1.4751,-1.4721,-1.4485,-1.4719,-1.5267,-1.7023,-1.8319,-1.8972,-2.0727,-2.1713,-2.1667,-2.1255,-2.1016,-2.097,-2.0301,-2.0401,-2.1164,-2.1712,-2.2381,-2.3224,-2.4273,-2.5121,-2.5633,-2.5516,-2.6195,-2.73,-2.614,-2.6843,-2.8338,-2.7144,-2.6357,-2.5978,0.0,0.0,0.0,0.0,0.0,0.0,0.0,0.0,0.0,0.0,0.0,0.0,0.0,0.0,0.0,0.0,0.0,0.0,0.0,0.0,0.0,0.0,0.0,0.0,0.0,0.0,0.0,0.0,0.0,0.0,0.0,0.0,0.0,0.0,0.0,0.0,0.0,0.0,0.0,0.0,0.0,0.0,1.6131,1.4698,1.2736,1.0661,1.0049,0.9156,0.0,0.0,0.6437,0.5799,0.5507,0.4888,0.4298,0.4273,0.3895,0.0,0.2066,0.0698,-0.0418,0.0,-0.0898,-0.1015,-0.1151,-0.1194,-0.125,-0.1358,-0.2205,-0.3016,-0.3178,-0.4916,-0.6399,0.0,-0.7456,-0.8197,-0.8262,-0.8272,-0.8228,-0.8106,-0.9502,-1.0528,-1.0837,-1.2746,-1.3959,-1.3805,-1.4392,-1.4855,-1.5089,-1.6567,-1.7762,-1.8788,-2.0167,-2.106,-2.1374,-2.12,-2.0989,-2.0759,-2.02,-2.0566,-2.1888,-2.2097,-2.3154,-2.4812,-2.5436,-2.5863,-2.6241,-2.5925,-2.6115,-2.6589,-2.5858,-2.6139,-2.685,-2.6425,-2.6582,-2.6919,0.0,0.0,0.0,0.0,0.0,0.0,0.0,0.0,0.0,0.0,0.0,0.0,0.0,0.0,0.0,0.0,0.0,0.0,0.0,0.0,0.0,0.0,0.0,0.0,0.0,0.0,0.0,0.0,0.0,0.0,0.0,0.0,0.0,0.0,0.0,0.0,0.0,0.0,0.0,0.0,0.0,0.0,1.6633,1.4865,1.302,1.1063,0.97,0.844,0.0,0.0,0.5868,0.5315,0.5262,0.4824,0.4319,0.4134,0.376,0.3159,0.1846,0.0,0.0,-0.0838,-0.1036,-0.1179,-0.121,-0.1269,-0.1343,-0.143,-0.2113,-0.2647,-0.2777,-0.4294,-0.5622,-0.6131,-0.7074,-0.7899,-0.8208,-0.817,-0.8062,-0.7838,-0.8545,-0.919,-0.9486,-1.1793,-1.3179,-1.2996,-1.4178,-1.4892,-1.4994,-1.6096,-1.721,-1.8234,-1.9604,-2.048,-2.0914,-2.1098,-2.1135,-2.0851,-2.0448,-2.0841,-2.192,-2.2142,-2.3655,-2.5977,-2.6077,-2.6328,-2.6574,-2.6248,-2.6154,-2.6149,-2.5767,-2.5837,-2.6136,-2.5936,-2.6469,-2.7158,0.0,0.0,0.0,0.0,0.0,0.0,0.0,0.0,0.0,0.0,0.0,0.0,0.0,0.0,0.0,0.0,0.0,0.0,0.0,0.0,0.0,0.0,0.0,0.0,0.0,0.0,0.0,0.0,0.0,0.0,0.0,0.0,0.0,0.0,0.0,0.0,0.0,0.0,0.0,0.0,0.0,0.0,1.6015,1.4347,1.2998,1.1716,0.9979,0.0,0.0,0.0,0.5894,0.5181,0.551,0.5106,0.0,0.4209,0.3333,0.0,0.0,0.0,-0.0263,-0.0997,-0.123,-0.1305,-0.1335,-0.141,-0.1475,-0.1478,-0.1504,-0.1534,-0.1664,-0.2551,-0.3646,-0.4714,-0.5734,-0.6842,-0.7846,-0.7919,-0.7821,-0.7814,-0.7695,-0.7668,0.0,-1.0775,-1.2748,-1.2743,-1.3721,-1.4406,-1.4688,-1.5893,-1.664,-1.6936,-1.9147,-2.0339,-2.0331,-2.1257,-2.1713,-2.1695,-2.1273,-2.0869,-2.0559,-2.14,-2.334,-2.5965,-2.5714,-2.6009,-2.6574,-2.6248,-2.621,-2.6327,-2.582,-2.64,-2.742,-2.6343,-2.5921,-2.6034,0.0,0.0,0.0,0.0,0.0,0.0,0.0,0.0,0.0,0.0,0.0,0.0,0.0,0.0,0.0,0.0,0.0,0.0,0.0,0.0,0.0,0.0,0.0,0.0,0.0,0.0,0.0,0.0,0.0,0.0,0.0,0.0,0.0,0.0,0.0,0.0,0.0,0.0,0.0,0.0,0.0,0.0,1.6305,1.4399,1.2866,1.1464,0.0,0.0,0.0,0.0,0.0,0.0,0.5346,0.0,0.0,0.3571,0.0,0.0,0.0,0.0,0.0363,-0.0379,-0.096,-0.134,-0.1369,-0.1414,-0.1451,-0.1451,-0.1442,-0.1439,-0.1449,-0.2382,-0.344,-0.4547,-0.5632,-0.6741,-0.7826,-0.7994,-0.7926,-0.7824,-0.7858,0.0,0.0,0.0,0.0,-1.1648,-1.2635,-1.3709,-1.4688,-1.5255,-1.6001,-1.6835,-1.8411,-1.9613,-2.0249,-2.1266,-2.1741,-2.1731,-2.1532,-2.1632,-2.188,-2.305,-2.4737,-2.6722,-2.6658,-2.6836,-2.7304,-2.6478,-2.613,-2.6113,-2.5335,-2.5498,-2.6188,-2.5551,-2.5564,-2.5921,0.0,0.0,0.0,0.0,0.0,0.0,0.0,0.0,0.0,0.0,0.0,0.0,0.0,0.0,0.0,0.0,0.0,0.0,0.0,0.0,0.0,0.0,0.0,0.0,0.0,0.0,0.0,0.0,0.0,0.0,0.0,0.0,0.0,0.0,0.0,0.0,0.0,0.0,0.0,0.0,0.0,0.0,1.5081,1.3034,1.1662,0.0,0.0,0.0,0.0,0.0,0.0,0.0,0.0,0.0,0.0,0.0,0.0,0.0,0.0,0.1602,0.1017,0.0,-0.0594,-0.105,-0.1329,-0.1438,-0.144,-0.1397,-0.1372,-0.1355,-0.1344,-0.1951,-0.2774,-0.395,-0.5009,-0.6119,-0.7262,-0.7684,-0.7865,-0.7818,-0.7851,-0.7865,0.0,0.0,0.0,-1.1058,-1.2145,-1.3216,-1.449,-1.4885,-1.5452,-1.6197,-1.7956,-1.9063,-1.9795,-2.1087,-2.1741,-2.1731,-2.1541,-2.1967,-2.2925,-2.369,-2.4959,-2.671,-2.6811,-2.6872,-2.694,-2.6382,-2.5985,-2.5744,-2.5016,-2.5078,-2.554,-2.5137,-2.5397,-2.5893,0.0,0.0,0.0,0.0,0.0,0.0,0.0,0.0,0.0,0.0,0.0,0.0,0.0,0.0,0.0,0.0,0.0,0.0,0.0,0.0,0.0,0.0,0.0,0.0,0.0,0.0,0.0,0.0,0.0,0.0,0.0,0.0,0.0,0.0,0.0,0.0,0.0,0.0,0.0,0.0,0.0,0.0,1.2589,1.0437,0.0,0.0,0.0,0.0,0.0,0.0,0.0,0.0,0.0,0.0,0.0,0.0,0.0,0.3538,0.2302,0.2132,0.1827,0.0089,-0.0365,-0.0554,-0.129,-0.1472,-0.1436,-0.132,-0.1294,-0.1284,0.0,0.0,-0.1687,-0.283,-0.3886,-0.4913,-0.6161,-0.7058,-0.7685,0.0,0.0,0.0,0.0,0.0,0.0,-1.096,0.0,-1.3119,-1.4196,-1.479,-1.5083,-1.5083,-1.7404,-1.8696,-1.8788,-2.0727,-2.1722,-2.1695,-2.1291,-2.2016,-2.3567,-2.3227,-2.4151,-2.5977,-2.6194,-2.6064,-2.5837,-2.5973,-2.5721,-2.5238,-2.4843,-2.5027,-2.5501,-2.5123,-2.5397,-2.5893,0.0,0.0,0.0,0.0,0.0,0.0,0.0,0.0,0.0,0.0,0.0,0.0,0.0,0.0,0.0,0.0,0.0,0.0,0.0,0.0,0.0,0.0,0.0,0.0,0.0,0.0,0.0,0.0,0.0,0.0,0.0,0.0,0.0,0.0,0.0,0.0,0.0,0.0,0.0,0.0,0.0,0.0,1.1805,0.0,0.0,0.0,0.0,0.0,0.0,0.0,0.0,0.0,0.0,0.0,0.5498,0.0,0.0,0.5076,0.3123,0.2931,0.2757,0.1028,0.0184,-0.0448,-0.1217,-0.1346,-0.1293,-0.1217,-0.1183,-0.1158,0.0,0.0,0.0,-0.2856,-0.3946,0.0,-0.6426,-0.7488,0.0,-0.8296,0.0,-0.8231,-0.816,-0.8153,0.0,0.0,-1.0974,-1.2047,-1.3022,-1.4196,-1.4885,-1.5083,-1.6567,-1.7863,-1.8788,-2.0727,-2.1575,-2.1264,-2.1163,-2.1532,-2.2201,-2.2839,-2.3833,-2.5027,-2.5506,-2.5734,-2.5777,-2.5181,-2.4843,-2.4683,-2.4273,-2.4455,-2.5014,-2.4976,-2.5397,-2.5893,0.0,0.0,0.0,0.0,0.0,0.0,0.0,0.0,0.0,0.0,0.0,0.0,0.0,0.0,0.0,0.0,0.0,0.0,0.0,0.0,0.0,0.0,0.0,0.0,0.0,0.0,0.0,0.0,0.0,0.0,0.0,0.0,0.0,0.0,0.0,0.0,0.0,0.0,0.0,0.0,0.0,0.0,0.0,0.0,0.0,0.0,0.0,0.0,0.0,0.0,0.0,0.8115,0.782,0.7648,0.7315,0.6023,0.0,0.6027,0.4574,0.4267,0.3959,0.1754,0.0936,0.0267,-0.1032,-0.1299,-0.1213,-0.1126,-0.1095,0.0,-0.1043,-0.1114,0.0,0.0,0.0,0.0,-0.6487,-0.7516,-0.8248,0.0,-0.8482,0.0,-0.837,-0.8306,-0.8537,0.0,-1.034,-1.1658,-1.263,-1.4004,-1.479,-1.5083,-1.6285,-1.7762,-1.943,-2.0907,-2.1621,-2.1383,-2.1383,-2.168,-2.2363,-2.3083,-2.3784,-2.4535,0.0,-2.5401,-2.5311,-2.492,-2.4797,-2.4783,-2.4352,-2.4391,-2.4779,-2.4873,-2.5151,-2.5564,0.0,0.0,0.0,0.0,0.0,0.0,0.0,0.0,0.0,0.0,0.0,0.0,0.0,0.0,0.0,0.0,0.0,0.0,0.0,0.0,0.0,0.0,0.0,0.0,0.0,0.0,0.0,0.0,0.0,0.0,0.0,0.0,0.0,0.0,0.0,0.0,0.0,0.0,0.0,0.0,0.0,0.0,0.0,0.0,0.0,0.0,0.0,0.0,0.0,0.0,1.0072,0.9731,0.9325,0.9368,0.9256,0.7897,0.7168,0.6723,0.6029,0.5755,0.507,0.2415,0.1714,0.1155,-0.095,-0.1277,-0.1157,-0.1044,0.0,-0.1015,-0.0992,-0.1039,-0.1472,-0.2722,0.0,-0.4915,-0.6415,-0.7406,-0.8194,-0.8452,-0.8516,-0.8526,-0.8486,-0.837,-0.8289,-0.8272,-1.0108,-1.156,-1.2436,-1.3902,-1.479,-1.5083,-1.6285,-1.7948,-2.0068,-2.0997,-2.1553,-2.1741,-2.1741,-2.2167,-2.2911,-2.3257,-2.3719,-2.4198,-2.4748,0.0,-2.479,-2.4909,-2.5075,-2.5143,-2.4611,-2.4558,-2.4709,-2.4806,-2.4949,-2.5174,0.0,0.0,0.0,0.0,0.0,0.0,0.0,0.0,0.0,0.0,0.0,0.0,0.0,0.0,0.0,0.0,0.0,0.0,0.0,0.0,0.0,0.0,0.0,0.0,0.0,0.0,0.0,0.0,0.0,0.0,0.0,0.0,0.0,0.0,0.0,0.0,0.0,0.0,0.0,0.0,0.0,0.0,0.0,0.0,0.0,0.0,0.0,0.0,0.0,0.0,1.1277,1.1027,1.0389,1.0475,1.0522,0.8893,0.8273,0.788,0.6711,0.625,0.5229,0.2582,0.1924,0.1405,-0.0814,-0.1168,0.0,0.0,-0.0898,-0.0904,-0.0985,-0.1057,-0.1522,-0.2772,-0.3871,-0.5041,-0.6461,-0.7685,-0.8425,0.0,-0.8706,-0.876,-0.8506,-0.8459,0.0,0.0,-1.0108,-1.1268,-1.1463,-1.3318,-1.4592,-1.5083,-1.6285,-1.7584,-1.9063,-2.0068,-2.0898,-2.1741,-2.1741,-2.182,-2.1971,-2.2032,-2.2441,-2.3241,-2.3536,0.0,-2.4539,-2.4448,-2.4467,-2.4441,-2.4116,-2.4343,-2.478,-2.494,-2.5312,-2.5784,0.0,0.0,0.0,0.0,0.0,0.0,0.0,0.0,0.0,0.0,0.0,0.0,0.0,0.0,0.0,0.0,0.0,0.0,0.0,0.0,0.0,0.0,0.0,0.0,0.0,0.0,0.0,0.0,0.0,0.0,0.0,0.0,0.0,0.0,0.0,0.0,0.0,0.0,0.0,0.0,0.0,0.0,0.0,0.0,0.0,0.0,0.0,0.0,0.0,0.0,1.0504,1.0902,1.0894,1.1443,1.1771,0.988,0.9048,0.8542,0.8046,0.7209,0.5728,0.3048,0.2312,0.1639,-0.072,0.0,0.0,0.0,-0.0874,-0.1012,-0.1472,-0.157,0.0,-0.3899,-0.4531,-0.5423,-0.7009,-0.7785,-0.8248,-0.8564,-0.873,-0.8764,0.0,-0.8462,-0.8343,-0.8275,-1.0108,-1.117,-1.117,-1.3318,-1.4688,-1.5083,-1.6741,-1.8041,-1.8788,-2.0257,-2.1266,-2.1741,-2.1741,-2.1741,-2.1704,-2.2207,-2.2625,-2.2989,-2.3282,0.0,-2.4432,-2.385,-2.4046,-2.4646,-2.3971,-2.4114,-2.4794,-2.4879,-2.5135,-2.5508,0.0,0.0,0.0,0.0,0.0,0.0,0.0,0.0,0.0,0.0,0.0,0.0,0.0,0.0,0.0,0.0,0.0,0.0,0.0,0.0,0.0,0.0,0.0,0.0,0.0,0.0,0.0,0.0,0.0,0.0,0.0,0.0,0.0,0.0,0.0,0.0,0.0,0.0,0.0,0.0,0.0,0.0,0.0,0.0,0.0,0.0,0.0,0.0,0.0,0.0,0.9389,1.0089,1.0629,1.1599,1.2178,1.0367,0.9276,0.8575,0.8676,0.7505,0.562,0.3155,0.2391,0.1615,-0.0713,-0.1132,0.0,0.0,-0.0922,-0.113,-0.1962,-0.2123,-0.2763,0.0,-0.5082,-0.5688,-0.7483,-0.777,-0.7987,0.0,-0.8604,0.0,-0.8618,-0.8408,0.0,-0.8272,-1.0108,0.0,-1.1853,-1.3709,-1.479,-1.5083,-1.6835,-1.8126,-1.8788,-2.0271,-2.115,-2.1603,-2.1511,-2.1475,-2.1447,-2.2041,-2.2504,-2.2845,-2.3032,0.0,0.0,-2.3525,-2.3802,-2.4624,-2.3752,-2.3961,-2.4709,-2.468,-2.4837,-2.5286,0.0,0.0,0.0,0.0,0.0,0.0,0.0,0.0,0.0,0.0,0.0,0.0,0.0,0.0,0.0,0.0,0.0,0.0,0.0,0.0,0.0,0.0,0.0,0.0,0.0,0.0,0.0,0.0,0.0,0.0,0.0,0.0,0.0,0.0,0.0,0.0,0.0,0.0,0.0,0.0,0.0,0.0,0.0,0.0,0.0,0.0,0.0,0.0,0.0,0.0,0.0,0.8861,0.8947,0.9903,1.0742,0.9331,0.0,0.0,0.747,0.5946,0.3901,0.2243,0.1407,0.0593,-0.0853,0.0,0.0,-0.0911,-0.0922,-0.113,-0.1962,-0.2089,-0.2772,-0.4836,0.0,-0.5711,-0.7212,-0.7641,-0.7831,-0.7885,0.0,0.0,-0.8323,-0.8286,0.0,-0.8272,-1.0108,0.0,-1.3908,-1.449,-1.479,-1.5083,-1.554,-1.6749,-1.8788,-1.8576,-1.939,-2.1163,-2.0796,-2.0631,-2.0613,-2.0347,-2.1018,-2.2422,-2.2095,0.0,0.0,-2.3816,-2.3685,-2.3364,-2.3137,-2.3766,-2.4715,-2.4249,-2.4835,-2.5839,0.0,0.0,0.0,0.0,0.0,0.0,0.0,0.0,0.0,0.0,0.0,0.0,0.0,0.0,0.0,0.0,0.0,0.0,0.0,0.0,0.0,0.0,0.0,0.0,0.0,0.0,0.0,0.0,0.0,0.0,0.0,0.0,0.0,0.0,0.0,0.0,0.0,0.0,0.0,0.0,0.0,0.0,0.0,0.0,0.0,0.0,0.0,0.0,0.0,0.0,0.0,0.0,0.6711,0.6966,0.0,0.0,0.7238,0.646,0.6586,0.5597,0.4159,0.2228,0.1654,0.0983,-0.0769,0.0,0.0,-0.0906,-0.0922,-0.1249,-0.245,-0.2711,-0.3377,-0.5126,0.0,0.0,-0.6736,-0.701,-0.7309,-0.7756,-0.797,0.0,0.0,0.0,-0.8628,-0.9917,-1.073,0.0,-1.4202,-1.4592,-1.479,-1.5083,-1.592,-1.675,-1.7652,-1.8814,-1.9626,-1.9962,-2.0576,-2.075,-2.0503,-2.0573,-2.1021,-2.16,-2.1607,0.0,0.0,-2.2488,-2.276,-2.312,-2.2567,-2.3107,-2.4236,-2.4066,-2.4567,-2.5397,0.0,0.0,0.0,0.0,0.0,0.0,0.0,0.0,0.0,0.0,0.0,0.0,0.0,0.0,0.0,0.0,0.0,0.0,0.0,0.0,0.0,0.0,0.0,0.0,0.0,0.0,0.0,0.0,0.0,0.0,0.0,0.0,0.0,0.0,0.0,0.0,0.0,0.0,0.0,0.0,0.0,0.0,0.0,0.0,0.0,0.0,0.0,0.0,0.0,0.0,0.0,0.0,0.0,0.0,0.0,0.0,0.5909,0.536,0.5408,0.4798,0.3647,0.1976,0.1433,0.0878,0.0,0.0,0.0,-0.0915,-0.0935,-0.1386,-0.2851,-0.3189,-0.3699,0.0,0.0,-0.5783,-0.6332,-0.6539,-0.6861,0.0,0.0,-0.7733,0.0,-0.8052,-0.8924,-1.1072,-1.117,0.0,-1.4202,-1.4592,-1.4752,-1.4962,-1.5973,-1.6643,-1.7124,-1.8596,-1.94,-1.9405,-2.0241,-2.0429,-2.0145,-2.0287,-2.0555,-2.0723,-2.1021,0.0,0.0,-2.1735,-2.2098,-2.2697,-2.2222,-2.2751,-2.3946,-2.4001,-2.4446,-2.508,0.0,0.0,0.0,0.0,0.0,0.0,0.0,0.0,0.0,0.0,0.0,0.0,0.0,0.0,0.0,0.0,0.0,0.0,0.0,0.0,0.0,0.0,0.0,0.0,0.0,0.0,0.0,0.0,0.0,0.0,0.0,0.0,0.0,0.0,0.0,0.0,0.0,0.0,0.0,0.0,0.0,0.0,0.0,0.0,0.0,0.0,0.0,0.0,0.0,0.0,0.0,0.0,0.0,0.0,0.0,0.0,0.4365,0.4091,0.3915,0.2858,0.1749,0.1122,0.0435,-0.0238,0.0,0.0,-0.0884,-0.0884,-0.0967,-0.1431,-0.2935,-0.322,-0.3717,-0.5356,-0.5589,0.0,-0.62,-0.6386,-0.659,0.0,0.0,-0.7268,-0.7577,-0.7868,-0.8924,-1.1072,-1.117,0.0,-1.4202,-1.4592,-1.4659,-1.4583,-1.512,-1.6147,-1.7636,-1.7304,-1.8071,-1.9852,-1.9512,-1.932,-1.9301,-1.8898,-1.9164,-1.9938,0.0,0.0,0.0,-2.1958,-2.2145,-2.1773,-2.2073,-2.2944,-2.3975,-2.4021,-2.4404,-2.4994,0.0,0.0,0.0,0.0,0.0,0.0,0.0,0.0,0.0,0.0,0.0,0.0,0.0,0.0,0.0,0.0,0.0,0.0,0.0,0.0,0.0,0.0,0.0,0.0,0.0,0.0,0.0,0.0,0.0,0.0,0.0,0.0,0.0,0.0,0.0,0.0,0.0,0.0,0.0,0.0,0.0,0.0,0.0,0.0,0.0,0.0,0.0,0.0,0.0,0.0,0.0,0.0,0.0,0.0,0.0,0.0,0.0,0.0,0.2928,0.2625,0.215,0.1087,0.0696,0.0212,-0.0806,0.0,0.0,-0.0912,-0.0953,-0.1414,-0.2726,-0.3138,-0.3671,-0.5019,-0.5454,0.0,0.0,0.0,0.0,-0.7014,-0.7478,-0.7794,0.0,0.0,-0.8627,-0.9998,-1.0779,0.0,-1.2886,-1.3838,-1.4472,-1.457,-1.4929,-1.5234,-1.551,-1.6812,-1.7572,-1.7696,-1.9074,-1.9439,-1.8898,-1.877,-1.8711,0.0,0.0,0.0,0.0,-2.0892,-2.1385,-2.1628,-2.1152,-2.1704,-2.2797,-2.2819,-2.321,-2.3797,0.0,0.0,0.0,0.0,0.0,0.0,0.0,0.0,0.0,0.0,0.0,0.0,0.0,0.0,0.0,0.0,0.0,0.0,0.0,0.0,0.0,0.0,0.0,0.0,0.0,0.0,0.0,0.0,0.0,0.0,0.0,0.0,0.0,0.0,0.0,0.0,0.0,0.0,0.0,0.0,0.0,0.0,0.179,0.0,0.0,0.0,0.0,0.0,0.0,0.0,0.0,0.0,0.0,0.0,0.0,0.0,0.0,0.0,0.0,0.2546,0.2203,0.1076,0.0789,0.0,0.0,0.0,0.0,0.0,0.0,-0.1331,-0.2634,-0.3005,-0.3561,-0.488,-0.5291,-0.5508,0.0,0.0,0.0,-0.699,0.0,0.0,0.0,-0.7838,-0.8448,-0.9883,-1.0555,0.0,-1.2729,-1.357,-1.4087,-1.4163,-1.4514,-1.4734,-1.4685,-1.6261,-1.7095,-1.6983,-1.8461,-1.8981,-1.8485,-1.833,-1.8119,0.0,0.0,0.0,0.0,-1.9943,-2.0615,-2.0991,-2.0558,-2.11,-2.2188,-2.2253,-2.2616,-2.3164,0.0,0.0,0.0,0.0,0.0,0.0,0.0,0.0,0.0,0.0,0.0,0.0,0.0,0.0,0.0,0.0,0.0,0.0,0.0,0.0,0.0,0.0,0.0,0.0,0.0,0.0,0.0,0.0,0.1924,0.1425,0.0806,0.0,0.0,0.0,0.0,0.0,0.0,0.0617,0.0842,0.0897,0.1455,0.1679,0.0,0.0,0.0,0.0,0.0,0.0,0.0,0.0,0.0,0.0,0.0,0.0,0.0,0.0,0.0,0.0,0.0,0.0,0.0,0.0,0.0,0.0,0.0,0.0,0.0,0.0,0.0,0.0,0.0,-0.2893,-0.3361,-0.4788,-0.5085,-0.5311,0.0,-0.5979,0.0,0.0,-0.7224,0.0,-0.7373,-0.7519,-0.8445,-1.0366,-1.0551,0.0,-1.3302,-1.3393,-1.344,-1.3411,-1.3841,-1.4394,-1.4928,-1.5698,-1.649,-1.7328,-1.7841,-1.8109,-1.8064,-1.7642,-1.744,0.0,0.0,0.0,0.0,-1.91,-1.9609,-1.9889,-2.0157,-2.0945,-2.1995,-2.2122,-2.2506,-2.2986,0.0,0.0,0.0,0.0,0.0,0.0,0.0,0.0,0.0,0.0,0.0,0.0,0.0,0.0,0.0,0.0,0.0,0.0,0.0,0.0,0.0,0.0,0.0,0.0,0.0,0.0,0.0,0.1264,0.1152,0.0791,0.0198,0.0069,0.0,0.0,0.0,0.0,0.0,0.0168,0.0224,0.0224,0.0392,0.0448,0.0,0.0,0.0,0.0,0.0921,0.1103,0.0,0.0,0.0,0.0,0.0,0.0,0.0,0.0,0.3319,0.0,0.0,0.0,0.0,0.0,0.0,0.0,0.0,0.0,0.0,0.0,0.0,0.0,0.0,0.0,-0.3373,-0.4226,-0.4995,-0.5555,-0.5772,0.0,0.0,-0.7071,-0.756,-0.7746,-0.7404,-0.7607,-0.8185,-0.9266,0.0,-1.1034,-1.1958,-1.2761,-1.2994,-1.2596,-1.2925,-1.3553,-1.4526,-1.5423,-1.6204,-1.6953,-1.7716,-1.7954,-1.7633,-1.7229,-1.6881,0.0,0.0,0.0,-1.7206,-1.8027,-1.8733,-1.9186,-1.9062,-1.9742,-2.0807,-2.0977,-2.1351,-2.1856,0.0,0.0,0.0,0.0,0.0,0.0,0.0,0.0,0.0,0.0,0.0,0.0,0.0,0.0,0.0,0.0,0.0,0.0,0.0,0.0,0.0,0.0,0.0,0.0,0.0,0.0,0.0,0.0,0.0,0.0617,0.0,0.0,0.0,0.0,0.0,0.0,0.0,0.0,0.0,0.0,0.0,0.0,0.0,0.0,0.0,0.0,0.0343,0.046,0.0,0.1274,0.1447,0.153,0.0,0.0,0.0,0.0,0.3244,0.0,0.0,0.0,0.0,0.0,0.0,0.0,0.0,0.0,0.0,0.0,0.0,0.0,0.0,0.0,0.0,0.0,-0.4903,0.0,0.0,0.0,-0.7014,-0.7221,-0.7472,-0.7587,0.0,-0.7492,-0.7805,-0.8629,0.0,-1.0387,-1.1123,-1.2053,-1.2439,-1.2143,-1.23,-1.27,-1.342,-1.4374,-1.4981,-1.5336,-1.653,-1.6839,-1.6447,-1.6597,-1.6413,0.0,0.0,0.0,-1.651,-1.7217,-1.7781,-1.8222,-1.8487,-1.9173,-1.9952,-2.0143,-2.0526,-2.1006,0.0,0.0,0.0,0.0,0.0,0.0,0.0,0.0,0.0,0.0,0.0,0.0,0.0,0.0,0.0,0.0,0.0,0.0,0.0,0.0,0.0,0.0,0.0,0.0,0.0,0.0,0.0,0.0,0.0,0.0,0.0,0.0,0.0,0.0,0.0,0.0,0.0,0.0,0.0,0.0,0.0,0.0,0.0,0.0,0.0,0.0,0.0,0.0,0.0,0.0725,0.0847,0.0891,0.1579,0.0,0.0,0.0,0.0,0.0,0.0,0.0,0.0,0.0,0.0,0.0,0.0,0.0,0.0,0.0,0.0,0.0,0.0,0.0,0.0,0.0,0.0,0.0,-0.6308,-0.6651,-0.6963,-0.7295,-0.7282,0.0,-0.7482,-0.7278,-0.7425,0.0,0.0,-0.9742,-1.0627,-1.1312,-1.17,-1.1866,-1.1781,-1.1824,-1.206,-1.3064,-1.3657,-1.3778,-1.5163,-1.5635,-1.5332,-1.5882,-1.5936,-1.5588,0.0,0.0,-1.5928,-1.6433,-1.6821,-1.7203,-1.8016,-1.8677,-1.9135,-1.9438,-1.9925,-2.0489,0.0,0.0,0.0,0.0,0.0,0.0,0.0,0.0,0.0,0.0,0.0,0.0,0.0,0.0,0.0,0.0,0.0,0.0,0.0,0.0,0.0,0.0,0.0,0.0,0.0,0.0,0.0,0.0,0.0,0.0,0.0,0.0,0.0,0.0,0.0,0.0,0.0,0.0,0.0,0.0,0.0,0.0,0.0,0.0,0.0,0.0,0.0,0.0,0.0,0.0122,0.0185,0.0244,0.0894,0.0,0.0,0.0,0.0,0.0,0.0,0.0,0.0,0.0,0.0,0.0,0.0,0.0,0.0,0.0,0.0,0.0,0.0,0.0,-0.262,0.0,0.0,-0.6329,0.0,0.0,-0.739,-0.7197,0.0,-0.7529,-0.7075,-0.7099,-0.7425,0.0,0.0,-0.901,-1.0616,-1.0586,-1.0874,-1.151,-1.1148,-1.0906,-1.0979,-1.2823,-1.3955,-1.4354,-1.5301,-1.5705,-1.5642,-1.5378,-1.5258,-1.5157,0.0,-1.4664,-1.5508,-1.5369,-1.5828,-1.6633,-1.6951,-1.7412,-1.7958,-1.8611,-1.9521,-2.046,0.0,0.0,0.0,0.0,0.0,0.0,0.0,0.0,0.0,0.0,0.0,0.0,0.0,0.0,0.0,0.0,0.0,0.0,0.0,0.0,0.0,0.0,0.0,0.0,0.0,0.0,0.0,0.0,0.0,0.0,0.0,0.0,0.0,0.0,0.0,0.0,0.0,0.0,0.0,0.0,0.0,0.0,0.0,0.0,0.0,0.0,0.0,0.0,0.0,0.0,0.0,0.006,0.0355,0.0,0.0,0.0,0.0,0.0,0.0,0.0,0.0,0.0,0.0,0.0,0.0,0.0,0.0,0.0,0.0,0.0,0.0,0.0,-0.3336,-0.4986,0.0,-0.6688,-0.6875,-0.7095,-0.7214,0.0,0.0,-0.7258,-0.7061,-0.7034,0.0,0.0,0.0,0.0,-0.8735,-0.9445,-0.9922,-1.0296,-1.0426,-1.0375,-1.0227,-1.1606,-1.258,-1.3109,-1.4107,-1.4491,-1.44,-1.4671,-1.4543,-1.4102,0.0,-1.383,-1.4307,-1.4813,-1.529,-1.5774,-1.653,-1.695,-1.7252,-1.7983,-1.8737,-1.9469,0.0,0.0,0.0,0.0,0.0,0.0,0.0,0.0,0.0,0.0,0.0,0.0,0.0,0.0,0.0,0.0,0.0,0.0,0.0,0.0,0.0,0.0,0.0,0.0,0.0,0.0,0.0,0.0,0.0,0.0,0.0,0.0,0.0,0.0,0.0,0.0,0.0,0.0,0.0,0.0,0.0,0.0,0.0,0.0,0.0,0.0,0.0,0.0,0.0,0.0,0.0,0.0,0.0,0.0,0.0,0.0,0.0,0.1401,0.1355,0.0,0.0,0.0,0.0,0.0,0.0,0.0,0.0,0.0,0.0,0.0,0.0,-0.2894,0.0,-0.5742,-0.6463,-0.6871,-0.6858,-0.699,-0.7112,-0.7187,-0.7065,-0.7007,-0.7085,0.0,0.0,0.0,0.0,0.0,-0.7308,-0.8367,-0.9029,-0.9325,-0.9808,-0.9922,-0.9711,-1.0319,-1.1038,-1.1897,-1.2866,-1.3355,-1.3442,-1.3965,-1.3882,-1.3286,-1.3186,-1.3357,-1.3746,-1.4418,-1.4861,-1.5303,-1.6094,-1.6572,-1.6872,-1.7733,-1.8214,-1.8616,0.0,0.0,0.0,0.0,0.0,0.0,0.0,0.0,0.0,0.0,0.0,0.0,0.0,0.0,0.0,0.0,0.0,0.0,0.0,0.0,0.0,0.0,0.0,0.0,0.0,0.0,0.0,0.0,0.0,0.0,0.0,0.0,0.0,0.0,0.0,0.0,0.0,0.0,0.0,0.0,0.0,0.0,0.0,0.0,0.0,0.0,0.0,0.0,0.0,0.0,0.0,0.0,0.0,0.0,0.0,0.0,0.0,0.0113,0.0116,0.006,0.0,0.0,0.0,0.0,0.0,0.0,0.0,0.0,0.0,0.0,0.0,-0.3158,-0.4482,-0.5156,-0.6113,-0.6858,-0.7265,0.0,-0.7502,-0.737,-0.7217,-0.7078,0.0,0.0,0.0,0.0,0.0,0.0,-0.7601,-0.7782,-0.8297,-0.9479,-0.9286,-0.9266,-0.9432,-0.9339,-1.0162,-1.1794,-1.2355,-1.3037,-1.3853,-1.3552,-1.3351,-1.3277,-1.2936,-1.3542,-1.4842,-1.4006,-1.4553,-1.5804,-1.536,-1.5852,-1.6944,-1.819,-1.8591,-1.8616,0.0,0.0,0.0,0.0,0.0,0.0,0.0,0.0,0.0,0.0,0.0,0.0,0.0,0.0,0.0,0.0,0.0,0.0,0.0,0.0,0.0,0.0,0.0,0.0,0.0,0.0,0.0,0.0,0.0,0.0,0.0,0.0,0.0,0.0,0.0,0.0,0.0,0.0,0.0,0.0,0.0,0.0,0.0,0.0,0.0,0.0,0.0,0.0,0.0,0.0,0.0,0.0,0.0,0.0,0.0,0.0,0.0,0.0,0.0,-0.0415,0.0,0.0,0.0,0.0,0.0,0.0,0.0,0.0,0.0,0.0,0.0,0.0,-0.4868,-0.5182,-0.6194,-0.7004,-0.7085,-0.7305,-0.7366,-0.7126,-0.7044,-0.6878,0.0,0.0,0.0,0.0,0.0,0.0,-0.671,-0.6998,-0.7519,-0.8376,-0.8698,-0.8924,-0.9054,-0.8998,-0.9545,-1.0834,-1.1199,-1.1822,-1.2625,-1.2484,-1.2448,-1.2525,-1.2369,-1.2682,-1.32,-1.3514,-1.3952,-1.4529,-1.5177,-1.5888,-1.6705,-1.7514,-1.8042,-1.8349,0.0,0.0,0.0,0.0,0.0,0.0,0.0,0.0,0.0,0.0,0.0,0.0,0.0,0.0,0.0,0.0,0.0,0.0,0.0,0.0,0.0,0.0,0.0,0.0,0.0,0.0,0.0,0.0,0.0,0.0,0.0,0.0,0.0,0.0,0.0,0.0,0.0,0.0,0.0,0.0,0.0,0.0,0.0,0.0,0.0,0.0,0.0,0.0,0.0,0.0,0.0,0.0,0.0,0.0,0.0,0.0,0.0,0.0,0.0,-0.0463,0.0,0.0,0.0,0.0,0.0,0.0,0.0,0.0,0.0,0.0,0.0,0.0,0.0,0.0,-0.6028,-0.657,-0.6776,-0.7031,-0.7065,-0.6814,-0.6746,0.0,0.0,0.0,0.0,0.0,0.0,0.0,0.0,-0.6585,-0.7067,-0.7747,-0.8282,-0.86,-0.8606,-0.8654,-0.9024,-0.9721,-1.0155,-1.0911,-1.1921,-1.1965,-1.2019,-1.2076,-1.2076,-1.2166,-1.2403,-1.3228,-1.381,-1.4176,-1.5142,-1.5901,-1.6552,-1.6951,-1.7585,-1.8242,0.0,0.0,0.0,0.0,0.0,0.0,0.0,0.0,0.0,0.0,0.0,0.0,0.0,0.0,0.0,0.0,0.0,0.0,0.0,0.0,0.0,0.0,0.0,0.0,0.0,0.0,0.0,0.0,0.0,0.0,0.0,0.0,0.0,0.0,0.0,0.0,0.0,0.0,0.0,0.0,0.0,0.0,0.0,0.0,0.0,0.0,0.0,0.0,0.0,0.0,0.0,0.0,0.0,0.0,0.0,0.0,0.0,0.0,0.0,0.0,0.0,0.0,0.0,0.0,0.0,0.0,0.0,0.0,0.0,0.0,0.0,0.0,0.0,-0.5557,-0.55,-0.5552,-0.6509,-0.6695,-0.6641,-0.6485,0.0,0.0,0.0,0.0,0.0,0.0,0.0,0.0,0.0,-0.6655,-0.716,-0.7866,-0.8153,-0.8269,-0.8221,-0.8321,-0.8474,-0.8626,-0.9302,-1.0405,-1.1912,-1.2049,-1.2076,-1.2076,-1.2076,-1.2353,-1.2861,-1.3362,-1.4176,-1.5108,-1.5255,-1.578,-1.6522,-1.6637,-1.7352,-1.8202,0.0,0.0,0.0,0.0,0.0,0.0,0.0,0.0,0.0,0.0,0.0,0.0,0.0,0.0,0.0,0.0,0.0,0.0,0.0,0.0,0.0,0.0,0.0,0.0,0.0,0.0,0.0,0.0,0.0,0.0,0.0,0.0,0.0,-0.0719,0.0,0.0,0.0,0.0,-0.0248,-0.0607,-0.0181,0.0,0.0,0.0,0.0,0.0,0.0,0.0,0.0,0.0,0.0,0.0,0.0,0.0,0.0,0.0,0.0,0.0,0.0,0.0,0.0,0.0,0.0,0.0,0.0,0.0,0.0,0.0,0.0,0.0,0.0,0.0,0.0,-0.3543,-0.4479,-0.5248,-0.5436,-0.5589,-0.5805,-0.6113,0.0,0.0,0.0,0.0,0.0,0.0,0.0,0.0,0.0,-0.6384,-0.6834,-0.7848,-0.7973,-0.8087,-0.8221,-0.8221,-0.8368,-0.8626,-0.9204,-0.997,-1.0883,-1.131,-1.1728,-1.2076,-1.2076,-1.2166,-1.2353,-1.3228,-1.4176,-1.5108,-1.5424,-1.5647,-1.5944,-1.6655,-1.7089,-1.7421,0.0,0.0,0.0,0.0,0.0,0.0,0.0,0.0,0.0,0.0,0.0,0.0,0.0,0.0,0.0,0.0,0.0,0.0,0.0,0.0,0.0,0.0,0.0,0.0,0.0,0.0,0.0,0.0,0.0,0.0,0.0,0.0,0.0,-0.1069,0.0,-0.1389,0.0,0.0,-0.0634,-0.0862,-0.0247,0.0,0.0,0.0,0.0,0.0,0.0,0.0,0.0,0.0,0.0,0.0,0.0,0.0,0.0,0.0,0.0,0.0,0.0,0.0,0.0,0.0,0.0,0.0,0.0,0.0,0.0,0.0,0.0,0.0,0.0,-0.3071,0.0,-0.2903,-0.3587,-0.4162,-0.4435,-0.4478,-0.4662,0.0,0.0,0.0,0.0,0.0,0.0,0.0,0.0,0.0,0.0,-0.6036,-0.6458,-0.7372,-0.754,-0.7735,-0.7949,-0.7889,-0.7992,-0.8307,-0.8839,-0.9276,-0.9722,-1.0822,-1.1477,-1.1769,-1.1862,-1.2067,-1.2433,-1.3074,-1.3957,-1.488,-1.5232,-1.5591,-1.5913,-1.6466,-1.6964,-1.7434,0.0,0.0,0.0,0.0,0.0,0.0,0.0,0.0,0.0,0.0,0.0,0.0,0.0,0.0,0.0,0.0,0.0,0.0,0.0,0.0,0.0,0.0,0.0,0.0,0.0,0.0,0.0,0.0,0.0,0.0,0.0,0.0,-0.1327,-0.1258,0.0,-0.232,0.0,-0.1426,-0.1134,-0.0981,-0.0431,-0.0182,-0.0177,-0.0177,0.0,0.0,0.0,0.0,0.0,0.0,0.0,0.0,0.0,0.0,0.0,0.0,0.0,0.0,0.0,0.0,0.0,0.0,0.0,0.0,0.0,0.0,0.0,0.0,0.0,0.0,-0.3716,-0.2886,-0.2617,-0.319,-0.2754,-0.2655,-0.3344,-0.347,0.0,0.0,0.0,0.0,0.0,0.0,0.0,0.0,0.0,0.0,0.0,-0.558,-0.5995,-0.66,-0.6936,-0.7267,-0.7502,-0.7413,-0.7516,-0.7772,-0.827,-0.8547,-0.8663,-1.0401,-1.1215,-1.1247,-1.139,-1.1903,-1.2714,-1.2873,-1.3467,-1.4334,-1.479,-1.5372,-1.6009,-1.6102,-1.6786,-1.772,0.0,0.0,0.0,0.0,0.0,0.0,0.0,0.0,0.0,0.0,0.0,0.0,0.0,0.0,0.0,0.0,0.0,0.0,0.0,0.0,0.0,0.0,0.0,0.0,0.0,0.0,0.0,0.0,0.0,0.0,0.0,0.0,0.0,-0.1898,0.0,-0.2636,-0.3384,-0.2181,-0.1893,-0.2258,-0.1647,-0.1391,-0.1411,-0.1411,-0.1498,0.0,0.0,0.0,0.0,0.0,0.0,0.0,0.0,0.0,0.0,0.0,-0.0055,0.0,0.0,0.0,0.0,0.0,0.0,0.0,0.0,0.0,0.0,0.0,0.0,-0.4035,-0.3711,-0.2959,-0.2241,-0.17,-0.2046,-0.2427,-0.2439,-0.2425,0.0,0.0,0.0,0.0,0.0,0.0,0.0,0.0,0.0,0.0,-0.5125,-0.5188,-0.5464,-0.5967,-0.6401,-0.6693,-0.6743,-0.708,-0.7327,0.0,-0.7656,-0.7997,-0.8508,-0.982,-1.0646,-1.0976,-1.1031,-1.1356,-1.1861,-1.2246,-1.2743,-1.3323,-1.3746,-1.4163,-1.4552,-1.5294,-1.5856,-1.6383,0.0,0.0,0.0,0.0,0.0,0.0,0.0,0.0,0.0,0.0,0.0,0.0,0.0,0.0,0.0,0.0,0.0,0.0,0.0,0.0,0.0,0.0,0.0,0.0,0.0,0.0,0.0,0.0,0.0,0.0,0.0,0.0,0.0,-0.2618,0.0,-0.3469,-0.3811,-0.2768,-0.2477,-0.2648,-0.2067,-0.1814,-0.1821,-0.1821,-0.1957,-0.2179,-0.1902,0.0,0.0,0.0,0.0,0.0,0.0,0.0,0.0,0.0,-0.0109,-0.0215,0.0,0.0,0.0,0.0,0.0,0.0,0.0,0.0,0.0,0.0,-0.482,-0.4119,-0.3653,-0.2921,-0.2085,-0.1219,-0.1466,-0.1691,-0.1552,0.0,0.0,0.0,0.0,0.0,0.0,0.0,0.0,0.0,0.0,-0.4369,-0.4539,-0.4711,-0.4922,-0.5166,-0.5582,-0.595,-0.6302,-0.6412,-0.6688,-0.7099,-0.7113,-0.7533,-0.8379,-0.9547,-1.0391,-1.0892,-1.0708,-1.0988,-1.1553,-1.1828,-1.2319,-1.2951,-1.3417,-1.3877,-1.4301,-1.478,-1.5318,-1.5932,0.0,0.0,0.0,0.0,0.0,0.0,0.0,0.0,0.0,0.0,0.0,0.0,0.0,0.0,0.0,0.0,0.0,0.0,0.0,0.0,0.0,0.0,0.0,0.0,0.0,0.0,0.0,0.0,0.0,0.0,0.0,0.0,0.0,-0.3084,0.0,0.0,-0.387,-0.3285,-0.2981,-0.2801,-0.2339,-0.2089,-0.2098,-0.2098,-0.2405,-0.2794,-0.2293,-0.2404,-0.2738,-0.2179,0.0,0.0,0.0,0.0,-0.0112,-0.0056,-0.0109,-0.0268,0.0,0.0,0.0,0.0,0.0,0.0,0.0,0.0,0.0,0.0,-0.4538,-0.4167,-0.3388,-0.2562,-0.1837,-0.1086,-0.0997,-0.097,-0.0881,0.0,0.0,0.0,0.0,0.0,0.0,0.0,0.0,0.0,0.0,-0.4009,-0.3982,-0.4245,-0.4392,-0.4365,-0.4706,-0.5228,-0.5914,-0.5755,-0.6066,-0.6738,-0.6773,-0.7328,-0.834,-0.9338,-1.0153,-1.068,-1.0358,-1.0564,-1.1199,-1.1379,-1.1887,-1.2535,-1.3116,-1.3686,-1.4244,-1.433,-1.4891,-1.5668,0.0,0.0,0.0,0.0,0.0,0.0,0.0,0.0,0.0,0.0,0.0,0.0,0.0,0.0,0.0,0.0,0.0,0.0,0.0,0.0,0.0,0.0,0.0,0.0,0.0,0.0,0.0,0.0,0.0,0.0,0.0,0.0,0.0,0.0,0.0,0.0,0.0,-0.36,-0.3508,-0.3495,-0.3398,-0.3339,-0.3383,-0.3383,-0.3429,-0.3471,-0.3416,-0.3416,-0.3413,-0.2794,-0.2514,0.0,0.0,0.0,-0.0673,-0.028,-0.0274,0.0,0.0,0.0,0.0,0.0,0.0,0.0,0.0,0.0,0.0,0.0,-0.3714,-0.3197,-0.2536,-0.1718,-0.1113,-0.096,-0.0892,-0.0939,0.0,0.0,0.0,0.0,0.0,0.0,0.0,0.0,0.0,0.0,-0.3477,-0.3961,-0.3829,-0.3849,-0.383,-0.3701,-0.4156,-0.4631,-0.514,-0.5496,-0.5938,-0.6465,-0.7018,-0.7663,-0.8324,-0.8873,-0.9415,-0.9839,-0.9784,-0.9833,-1.0,-1.0693,-1.104,-1.1218,-1.2013,-1.2638,-1.3165,-1.3705,-1.4283,-1.483,0.0,0.0,0.0,0.0,0.0,0.0,0.0,0.0,0.0,0.0,0.0,0.0,0.0,0.0,0.0,0.0,0.0,0.0,0.0,0.0,0.0,0.0,0.0,0.0,0.0,0.0,0.0,0.0,0.0,0.0,0.0,-0.2214,-0.2665,0.0,0.0,0.0,0.0,0.0,0.0,-0.3585,-0.3585,-0.3585,-0.3585,-0.3585,-0.3585,-0.3585,-0.3585,-0.3585,-0.3583,-0.3299,-0.2961,-0.2625,-0.2068,0.0,0.0,0.0,0.0,0.0,0.0,0.0,0.0,0.0,0.0,0.0,0.0,0.0,0.0,0.0,-0.3164,-0.2753,-0.2257,-0.1455,-0.0953,-0.0922,-0.0917,0.0,0.0,0.0,0.0,0.0,0.0,0.0,0.0,0.0,0.0,0.0,-0.3005,-0.3361,-0.3303,-0.3533,-0.3646,-0.3581,-0.4056,-0.4535,-0.5005,-0.548,-0.6007,-0.6587,-0.716,-0.7739,-0.8316,-0.8773,-0.9266,-0.9683,-0.9683,-0.9832,-1.0098,-1.0659,-1.1029,-1.1292,-1.1884,-1.2437,-1.292,-1.3201,-1.3677,-1.4219,0.0,0.0,0.0,0.0,0.0,0.0,0.0,0.0,0.0,0.0,0.0,0.0,0.0,0.0,0.0,0.0,0.0,0.0,0.0,0.0,0.0,0.0,0.0,0.0,0.0,0.0,0.0,0.0,0.0,0.0,-0.1231,-0.2276,-0.292,0.0,-0.3756,0.0,0.0,0.0,0.0,0.0,0.0,0.0,0.0,0.0,0.0,-0.3542,-0.3572,-0.3585,-0.3585,-0.3585,-0.3299,-0.2905,-0.2736,-0.2069,0.0,0.0,0.0,0.0,0.0,0.0,0.0,0.0,0.0,0.0,0.0,0.0,0.0,0.0,-0.277,-0.2477,-0.185,-0.128,-0.0924,-0.0901,0.0,0.0,0.0,0.0,0.0,0.0,0.0,0.0,0.0,0.0,0.0,0.0,-0.2499,-0.2765,-0.2898,-0.3214,-0.3486,-0.3581,-0.3928,-0.436,-0.4836,-0.5394,-0.6002,-0.6666,-0.707,-0.7523,-0.807,-0.8521,-0.9016,-0.9475,-0.9643,-0.9872,-1.0176,-1.0697,-1.1067,-1.1404,-1.1884,-1.2437,-1.2896,-1.2896,-1.3288,-1.3873,0.0,0.0,0.0,0.0,0.0,0.0,0.0,0.0,0.0,0.0,0.0,0.0,0.0,0.0,0.0,0.0,0.0,0.0,0.0,0.0,0.0,0.0,0.0,0.0,0.0,0.0,0.0,0.0,0.0,0.0,-0.1971,-0.209,-0.2536,-0.3211,-0.3836,-0.3979,-0.382,0.0,0.0,0.0,0.0,0.0,0.0,0.0,0.0,0.0,-0.3542,-0.3585,-0.3585,-0.3585,-0.3583,-0.3471,-0.2905,-0.2681,-0.2514,0.0,0.0,0.0,0.0,0.0,0.0,0.0,0.0,0.0,0.0,0.0,0.0,0.0,-0.2627,-0.2348,-0.118,-0.09,-0.0899,0.0,0.0,0.0,0.0,0.0,0.0,0.0,0.0,0.0,0.0,0.0,0.0,0.0,-0.188,-0.2366,-0.2854,-0.2943,-0.3126,-0.3578,-0.3622,-0.384,-0.4316,-0.5221,-0.5959,-0.6526,-0.6526,-0.6859,-0.7454,-0.7855,-0.8308,-0.8805,-0.9426,-0.9723,-0.9793,-1.0582,-1.0916,-1.0992,-1.1774,-1.2437,-1.2896,-1.2896,-1.3288,-1.3854,0.0,0.0,0.0,0.0,0.0,0.0,0.0,0.0,0.0,0.0,0.0,0.0,0.0,0.0,0.0,0.0,0.0,0.0,0.0,0.0,0.0,0.0,0.0,0.0,0.0,0.0,0.0,0.0,0.0,-0.1032,-0.1853,-0.2388,-0.2717,-0.2899,-0.367,-0.3952,-0.386,-0.371,0.0,0.0,0.0,0.0,0.0,0.0,0.0,0.0,0.0,-0.3585,-0.3585,-0.3585,-0.3585,-0.3583,-0.3357,-0.3019,-0.2569,0.0,0.0,0.0,0.0,0.0,0.0,0.0,0.0,0.0,0.0,0.0,-0.3303,-0.3121,-0.2792,-0.2437,-0.2005,-0.1381,0.0,0.0,0.0,0.0,0.0,0.0,0.0,0.0,0.0,0.0,0.0,0.0,0.0,0.0,0.0,-0.1744,-0.1923,-0.2544,-0.2987,-0.3126,-0.3602,-0.4128,-0.4734,-0.5357,-0.5844,-0.6225,-0.6487,-0.6914,-0.7419,-0.7538,-0.8028,-0.8716,-0.8967,-0.9208,-0.9536,-1.0495,-1.084,-1.0878,-1.1737,-1.2318,-1.265,-1.2826,-1.3173,-1.3607,0.0,0.0,0.0,0.0,0.0,0.0,0.0,0.0,0.0,0.0,0.0,0.0,0.0,0.0,0.0,0.0,0.0,0.0,0.0,0.0,0.0,0.0,0.0,0.0,0.0,0.0,0.0,0.0,0.0,0.0,0.0,0.0,-0.2657,-0.2805,-0.3555,-0.3852,0.0,0.0,0.0,-0.3585,0.0,0.0,-0.3528,0.0,0.0,0.0,-0.3569,-0.3585,-0.3585,-0.3585,-0.3558,-0.3528,-0.3572,0.0,0.0,0.0,0.0,0.0,0.0,0.0,0.0,0.0,0.0,0.0,0.0,0.0,-0.323,-0.3211,-0.2951,-0.2663,-0.2455,0.0,0.0,0.0,0.0,0.0,0.0,0.0,0.0,0.0,0.0,0.0,0.0,0.0,0.0,0.0,0.0,0.0,-0.1389,-0.2188,-0.2747,-0.3057,-0.357,-0.4102,-0.4585,-0.5026,-0.5425,-0.5752,-0.6225,-0.6645,-0.6928,-0.7314,-0.7814,-0.839,-0.8716,-0.9039,-0.9359,-1.0264,-1.0649,-1.0791,-1.1579,-1.221,-1.265,-1.2826,-1.3185,-1.3594,0.0,0.0,0.0,0.0,0.0,0.0,0.0,0.0,0.0,0.0,0.0,0.0,0.0,0.0,0.0,0.0,0.0,0.0,0.0,0.0,0.0,0.0,0.0,0.0,0.0,0.0,0.0,0.0,0.0,0.0,0.0,0.0,-0.2327,0.0,-0.3564,-0.3686,-0.3591,0.0,-0.374,-0.3585,0.0,-0.3512,-0.342,0.0,0.0,0.0,-0.3542,-0.3585,0.0,-0.3585,0.0,0.0,0.0,0.0,0.0,0.0,0.0,0.0,0.0,0.0,0.0,0.0,0.0,0.0,0.0,0.0,-0.3036,-0.2945,-0.3037,-0.2913,0.0,0.0,0.0,0.0,0.0,0.0,0.0,0.0,0.0,0.0,0.0,0.0,0.0,0.0,0.0,0.0,-0.0674,-0.0898,-0.1344,-0.1834,-0.2495,-0.3354,-0.3497,-0.3641,-0.3787,-0.4315,-0.4759,-0.5012,-0.5685,-0.5997,-0.6037,-0.7168,-0.7675,-0.775,-0.8756,-0.9208,-0.9319,-0.9883,-1.0341,-1.0753,-1.1282,-1.2066,-1.2896,-1.2896,-1.3288,-1.3854,0.0,0.0,0.0,0.0,0.0,0.0,0.0,0.0,0.0,0.0,0.0,0.0,0.0,0.0,0.0,0.0,0.0,0.0,0.0,0.0,0.0,0.0,0.0,0.0,0.0,0.0,0.0,0.0,0.0,0.0,0.0,0.0,0.0,0.0,-0.2956,-0.3215,-0.3585,-0.3618,0.0,-0.3585,-0.3585,-0.3564,0.0,0.0,0.0,0.0,0.0,-0.3585,-0.3585,0.0,-0.3561,-0.3539,0.0,0.0,0.0,0.0,0.0,0.0,-0.3302,0.0,0.0,0.0,0.0,0.0,0.0,0.0,0.0,-0.3441,-0.3241,-0.304,0.0,0.0,0.0,0.0,0.0,0.0,0.0,0.0,0.0,0.0,0.0,0.0,0.0,0.0,0.0,0.0,-0.036,-0.0494,-0.0853,-0.1655,-0.2321,-0.2811,-0.3182,-0.3481,-0.3663,-0.4315,-0.4873,-0.5217,-0.5955,-0.6309,-0.6389,-0.6922,-0.7394,-0.7788,-0.8447,-0.8886,-0.9257,-0.9843,-1.0341,-1.0753,-1.1505,-1.2138,-1.265,-1.3104,-1.3357,-1.3628,0.0,0.0,0.0,0.0,0.0,0.0,0.0,0.0,0.0,0.0,0.0,0.0,0.0,0.0,0.0,0.0,0.0,0.0,0.0,0.0,0.0,0.0,0.0,0.0,0.0,0.0,0.0,0.0,0.0,0.0,0.0,0.0,0.0,0.0,0.0,0.0,0.0,0.0,0.0,0.0,-0.3585,0.0,0.0,-0.3585,-0.3585,0.0,0.0,0.0,-0.3585,-0.3585,-0.3585,0.0,0.0,0.0,0.0,0.0,0.0,0.0,0.0,0.0,0.0,0.0,0.0,0.0,-0.2759,-0.2887,-0.3033,0.0,-0.3191,-0.3075,0.0,0.0,0.0,0.0,0.0,0.0,0.0,0.0,0.0,0.0,0.0,0.0,0.0,0.0626,0.0448,0.009,-0.009,-0.0449,-0.0943,-0.17,-0.2234,-0.2602,-0.3158,-0.3506,-0.3663,-0.4239,-0.4685,-0.5007,-0.5632,-0.5999,-0.6143,-0.682,-0.7375,-0.7778,-0.8423,-0.8886,-0.9217,-0.9734,-1.0196,-1.0639,-1.1244,-1.1909,-1.2544,-1.2896,-1.3207,-1.3547,0.0,0.0,0.0,0.0,0.0,0.0,0.0,0.0,0.0,0.0,0.0,0.0,0.0,0.0,0.0,0.0,0.0,0.0,0.0,0.0,0.0,0.0,0.0,0.0,0.0,0.0,0.0,0.0,0.0,0.0,0.0,0.0,0.0,0.0,0.0,0.0,0.0,0.0,0.0,-0.3564,-0.3577,-0.3585,0.0,0.0,-0.3585,-0.3585,-0.3585,-0.3585,-0.3583,-0.3569,-0.3572,0.0,0.0,0.0,0.0,0.0,-0.3234,0.0,0.0,0.0,0.0,0.0,0.0,0.0,-0.3098,-0.3128,-0.3169,-0.3035,-0.3079,-0.3109,0.0,0.0,0.0,0.0,0.0,0.0,0.0,0.0,0.0,0.0,0.0,0.0,0.0984,0.094,0.0805,0.0492,0.0045,-0.0539,-0.1299,-0.1789,-0.2196,-0.2537,-0.32,-0.362,-0.377,-0.4112,-0.4399,-0.4634,-0.5115,-0.5444,-0.5726,-0.681,-0.7437,-0.7755,-0.8586,-0.9056,-0.9217,-0.9554,-0.998,-1.0418,-1.0802,-1.1579,-1.2508,-1.2532,-1.2953,-1.3547,0.0,0.0,0.0,0.0,0.0,0.0,0.0,0.0,0.0,0.0,0.0,0.0,0.0,0.0,0.0,0.0,0.0,0.0,0.0,0.0,0.0,0.0,0.0,0.0,0.0,0.0,0.0,0.0,0.0,0.0,0.0,0.0,0.0,0.0,0.0,0.0,0.0,0.0,0.0,-0.3444,-0.3545,-0.3585,-0.3585,-0.3585,-0.3585,-0.3585,-0.3585,-0.3585,-0.3569,-0.3471,-0.3504,-0.3564,0.0,0.0,0.0,-0.3555,0.0,0.0,0.0,0.0,0.0,0.0,0.0,0.0,-0.3183,-0.318,-0.3175,0.0,-0.3163,-0.3173,-0.32,0.0,0.0,0.0,0.0,0.0,0.0,0.0,0.0,0.0,0.0,0.0,0.1294,0.1299,0.1164,0.0805,0.0179,-0.0404,-0.0809,-0.13,-0.1738,-0.2163,-0.2755,-0.3234,-0.3623,-0.4423,-0.4866,-0.4949,-0.5755,-0.6204,-0.635,-0.6841,-0.7323,-0.7827,-0.8351,-0.8805,-0.9217,-0.9554,-0.998,-1.0457,-1.1019,-1.1763,-1.2532,-1.2731,-1.3113,-1.3581,0.0,0.0,0.0,0.0,0.0,0.0,0.0,0.0,0.0,0.0,0.0,0.0,0.0,0.0,0.0,0.0,0.0,0.0,0.0,0.0,0.0,0.0,0.0,0.0,0.0,0.0,0.0,0.0,0.0,0.0,0.0,0.0,0.0,0.0,0.0,0.0,0.0,0.0,-0.3269,-0.3493,-0.3493,0.0,-0.3493,-0.3493,-0.3531,-0.3585,-0.3585,-0.3585,-0.3574,-0.3515,-0.3534,0.0,-0.3439,-0.34,-0.3414,0.0,-0.3449,-0.3428,0.0,0.0,0.0,-0.3509,0.0,0.0,0.0,-0.3088,-0.3102,-0.3021,-0.3043,-0.3111,-0.3089,0.0,-0.2705,0.0,0.0,0.0,0.0,0.0,0.0,0.0,0.0,0.0,0.1342,0.1371,0.1254,0.094,0.0403,-0.0045,-0.045,-0.1076,-0.1521,-0.1744,-0.2499,-0.3123,-0.3615,-0.4183,-0.4562,-0.481,-0.5367,-0.5693,-0.5719,-0.67,-0.7281,-0.7617,-0.8407,-0.8895,-0.9136,-0.9634,-0.998,-1.0273,-1.0905,-1.1616,-1.233,-1.2626,-1.2988,-1.3459,0.0,0.0,0.0,0.0,0.0,0.0,0.0,0.0,0.0,0.0,0.0,0.0,0.0,0.0,0.0,0.0,0.0,0.0,0.0,0.0,0.0,0.0,0.0,-0.286,0.0,0.0,0.0,0.0,0.0,0.0,0.0,0.0,0.0,0.0,0.0,0.0,0.0,0.0,0.0,-0.3232,0.0,-0.3199,-0.3436,-0.3166,-0.3224,-0.3413,-0.3302,-0.336,-0.3524,-0.3277,-0.3395,-0.3506,-0.3278,-0.3279,0.0,0.0,0.0,0.0,0.0,0.0,0.0,0.0,0.0,-0.3224,0.0,0.0,0.0,-0.2831,-0.2893,0.0,0.0,0.0,0.0,0.0,0.0,0.0,0.0,0.0,0.0,0.0,0.0,0.0,0.0,0.13,0.1198,0.085,0.0537,0.0179,-0.027,-0.0897,-0.1299,-0.1389,-0.226,-0.2961,-0.3473,-0.3845,-0.4272,-0.4674,-0.5026,-0.517,-0.5214,-0.6514,-0.7223,-0.7427,-0.8351,-0.8895,-0.9128,-0.9573,-0.9904,-1.0127,-1.084,-1.1505,-1.215,-1.2496,-1.2861,-1.3301,0.0,0.0,0.0,0.0,0.0,0.0,0.0,0.0,0.0,0.0,0.0,0.0,0.0,0.0,0.0,0.0,0.0,0.0,-0.3064,0.0,0.0,0.0,0.0,0.0,-0.2916,0.0,0.0,0.0,0.0,0.0,0.0,0.0,0.0,0.0,-0.0976,0.0,0.0,0.0,-0.1888,0.0,-0.1785,-0.2489,0.0,-0.2391,-0.2339,-0.2738,-0.2181,-0.2629,-0.3287,0.0,-0.2563,-0.334,0.0,-0.2911,-0.3281,-0.3498,0.0,0.0,0.0,0.0,0.0,0.0,-0.3482,0.0,-0.3227,0.0,-0.2995,-0.2918,0.0,0.0,0.0,0.0,0.0,0.0,0.0,0.0,-0.0967,0.0,0.0,0.0,0.0,0.0,0.0,0.1139,0.1074,0.0491,0.0403,0.009,-0.0584,-0.0719,-0.0988,-0.1389,-0.1809,-0.2319,-0.2984,-0.4047,-0.4712,-0.4971,-0.5812,-0.6235,-0.6235,-0.6434,-0.6939,-0.7672,-0.7792,-0.8456,-0.9412,-0.9062,-0.9497,-1.0418,-1.118,-1.17,-1.215,-1.2496,-1.2861,-1.3267,0.0,0.0,0.0,0.0,0.0,0.0,0.0,0.0,0.0,0.0,0.0,0.0,0.0,0.0,0.0,0.0,0.0,-0.3011,0.0,0.0,0.0,0.0,0.0,0.0,0.0,0.0,0.0,0.0,-0.056,0.0,0.0,0.0,0.0,0.0,-0.0804,0.0,-0.1526,0.0,-0.1264,0.0,0.0,0.0,0.0,-0.1915,-0.1869,-0.2124,-0.1902,-0.2014,-0.2287,0.0,-0.1934,0.0,0.0,0.0,0.0,-0.2748,0.0,0.0,0.0,0.0,0.0,0.0,0.0,0.0,-0.3319,0.0,-0.3218,0.0,0.0,0.0,0.0,0.0,0.0,0.0,-0.2215,0.0,0.0,0.0,-0.0936,0.0,0.0,0.0,0.0,0.0,0.0,0.0,0.0177,-0.009,-0.0405,-0.0584,-0.0809,-0.0988,-0.1586,-0.2092,-0.2453,-0.3458,-0.4181,-0.4618,-0.5275,-0.5636,-0.5796,-0.6451,-0.7017,-0.7499,-0.7903,-0.8635,-0.9509,-0.9502,-0.9839,-1.0495,-1.1468,-1.1957,-1.215,-1.2496,-1.2665,-1.2821,0.0,0.0,0.0,0.0,0.0,0.0,0.0,0.0,0.0,0.0,0.0,0.0,-0.3401,-0.3401,0.0,0.0,-0.3224,-0.3101,0.0,0.0,-0.2746,0.0,0.0,0.0,0.0,0.0,0.0,0.0,0.0,0.0,0.0,0.0,0.0,0.0,0.0,-0.0629,-0.092,0.0,-0.0626,-0.1089,-0.0651,-0.0833,-0.1339,-0.1361,-0.1479,-0.1512,-0.1343,-0.1399,-0.1454,-0.1174,-0.1286,0.0,-0.1128,0.0,-0.1572,0.0,0.0,0.0,-0.3322,0.0,0.0,0.0,0.0,0.0,0.0,0.0,0.0,0.0,0.0,0.0,0.0,0.0,0.0,0.0,0.0,-0.2269,0.0,0.0,0.0,0.0,0.0,0.0,0.0,0.0,0.0,0.0428,0.0088,-0.018,-0.018,-0.0539,-0.0764,-0.0898,-0.1543,-0.205,-0.2319,-0.3161,-0.3887,-0.4491,-0.4966,-0.5354,-0.5616,-0.6594,-0.7148,-0.7472,-0.8206,-0.8926,-0.9637,-0.9848,-1.0176,-1.0611,-1.1435,-1.1788,-1.1872,-1.2196,-1.2275,-1.2253,0.0336,-0.0056,0.0,0.0,0.0,0.0,0.0,0.0,0.0,0.0,0.0,0.0,0.0,0.0,-0.3528,-0.3609,0.0,-0.3128,-0.3215,0.0,-0.2785,0.0,0.0,-0.2781,0.0,0.0,0.0,0.0,0.0,0.0,0.0,0.0,0.0,0.0,0.0,0.016,0.0159,0.0154,0.0149,0.0145,0.0,-0.0054,-0.0112,0.0,-0.0952,-0.0842,-0.028,0.0,0.0,-0.0168,-0.0392,0.0,0.0,0.0,0.0,0.0,0.0,0.0,0.0,0.0,0.0,-0.3583,0.0,0.0,0.0,0.0,-0.3011,0.0,0.0,0.0,0.0,0.0,0.0,0.0,0.0,0.0,0.0,0.0,0.0,0.0,0.0,0.0,0.0,0.0,0.0,0.049,0.0179,-0.0045,-0.018,-0.0539,-0.0898,-0.1344,-0.1714,-0.222,-0.2854,-0.3623,-0.4299,-0.4961,-0.5437,-0.5916,-0.6355,-0.6816,-0.7266,-0.7743,-0.8448,-0.9239,-0.9991,-0.9871,-1.021,-1.0878,-1.0859,-1.1011,-1.1251,-1.1535,-1.172,-1.1664,0.0,0.0,0.0,0.0,0.0,0.0,0.0,-0.0268,0.0,0.0,-0.2284,0.0,0.0,-0.3403,-0.375,0.0,0.0,-0.3409,-0.3322,-0.3062,0.0,-0.233,-0.2604,-0.2609,0.0,0.0,0.0,0.0,0.0,0.0,0.0,0.0,0.0,0.0,0.0,0.0473,0.0,0.0,0.0,0.0,0.0,0.0272,0.0224,0.0,-0.0168,-0.0112,0.0164,0.0165,0.0,0.0382,0.0275,0.0111,0.0377,0.0158,-0.026,-0.0824,-0.1017,0.0,0.0,0.0,-0.2598,-0.3207,0.0,0.0,0.0,0.0,0.0,0.0,0.0,0.0,0.0,0.0,0.0,0.0,0.0,0.0,0.0,0.0,0.0,0.0,0.0,0.0,0.0,0.0,0.0,-0.0086,0.0,-0.0135,-0.0405,-0.0584,-0.0898,-0.1389,-0.1714,-0.222,-0.2896,-0.3331,-0.3883,-0.4535,-0.5009,-0.548,-0.5964,-0.6398,-0.6823,-0.7266,-0.7841,-0.8496,-0.9262,-0.9732,-1.0338,-1.1019,-1.1486,-1.163,-1.1574,-1.1455,-1.1127,-1.0573,0.129,0.0,0.0,0.0,0.0,0.0,0.0,0.0,0.0,0.0,-0.1485,0.0,-0.2101,0.0,-0.3378,0.0,-0.3526,-0.3538,-0.333,-0.295,0.0,-0.2031,-0.209,-0.1933,0.0,0.0,0.0,0.0,0.0,0.0393,0.0,0.0,0.0,0.0,0.0,0.0634,0.0605,0.0706,0.0642,0.0,0.0,0.0381,0.0,0.0,0.0336,0.028,0.0,0.055,0.0671,0.0656,0.0716,0.0779,0.0849,0.0738,0.0475,-0.005,-0.0399,-0.0806,-0.1761,-0.2126,0.0,-0.2939,-0.2943,0.0,-0.3141,0.0,-0.3088,0.0,0.0,0.0,0.0,0.0,0.0,0.0,0.0,0.0,0.0,-0.2637,0.0,0.0,0.0,0.0,0.0,0.0,-0.1103,-0.0728,-0.0479,-0.053,0.0,0.0,-0.1103,-0.1655,-0.1826,-0.2214,-0.2812,-0.3129,-0.3559,-0.418,-0.4526,-0.5005,-0.5658,-0.6142,-0.6611,-0.7021,-0.7758,-0.8374,-0.8861,-0.9755,-1.0457,-1.1084,-1.1811,-1.1861,-1.1532,-1.1566,-1.0855,-0.9716,0.1798,0.0,0.0,0.0,0.1483,0.0,0.0,0.0,0.0224,0.0,-0.0623,-0.1117,-0.1066,-0.1976,-0.2493,-0.2433,-0.3067,-0.337,-0.3109,-0.2484,0.0,0.0,-0.1252,-0.0957,-0.0842,0.0,0.0,0.0,0.0,0.0,0.0,0.0,0.0,0.0,0.0729,0.0,0.0605,0.0605,0.0594,0.0579,0.0466,0.0435,0.0449,0.0617,0.0617,0.0449,0.0448,0.056,0.0729,0.0728,0.0783,0.0885,0.0825,0.0827,0.0785,0.0146,-0.0391,-0.0907,-0.1656,-0.2211,-0.262,-0.2823,0.0,0.0,0.0,0.0,-0.2903,0.0,0.0,0.0,0.0,0.0,0.0,0.0,0.0,0.0,0.0,0.0,0.0,0.0,0.0,0.0,0.0,-0.1658,-0.1606,-0.1426,-0.1204,-0.1241,0.0,0.0,-0.1499,-0.2047,-0.2053,-0.2233,-0.2677,-0.3034,-0.3432,-0.3862,-0.4045,-0.457,-0.5448,-0.5996,-0.6507,-0.7021,-0.8244,-0.874,-0.8861,-0.9942,-1.0591,-1.1014,-1.1766,-1.1616,-1.1094,-1.1706,-1.0805,-0.9128,0.1805,0.1831,0.1875,0.0,0.1618,0.1358,0.0,0.0,0.0,0.0,0.0161,-0.0404,-0.0319,-0.1227,-0.179,-0.1763,-0.185,0.0,0.0,0.0,0.0,-0.0543,-0.0854,-0.0786,-0.0233,-0.0581,-0.0517,0.0,0.0,0.0,0.0898,0.0,0.0,0.0,0.0,0.0,0.0756,0.0756,0.0752,0.075,0.0785,0.0762,0.0785,0.0,0.0842,0.0783,0.0763,0.0823,0.0838,0.0871,0.0864,0.091,0.0819,0.0812,0.0811,0.0629,0.0147,-0.0401,-0.0876,-0.1477,-0.2062,-0.257,-0.2652,-0.2639,0.0,0.0,0.0,0.0,0.0,0.0,0.0,0.0,0.0,0.0,0.0,0.0,0.0,0.0,0.0,-0.3262,0.0,-0.2539,-0.2159,-0.2477,-0.2387,-0.16,-0.1947,-0.2077,0.0,0.0,0.0,-0.1879,-0.2201,-0.2422,-0.256,-0.2991,-0.3258,-0.3388,-0.3873,-0.422,-0.4482,-0.5432,-0.6081,-0.655,-0.7551,-0.8185,-0.857,-0.9646,-1.0068,-1.0112,-1.1027,-1.1324,-1.1172,-1.0055,-0.922,-0.8577,0.1839,0.1882,0.0,0.2006,0.0,0.0,0.1453,0.1458,0.0,0.1355,0.0881,0.0,0.0631,-0.0237,-0.0778,-0.0746,-0.1118,0.0,-0.1195,0.0,0.0,-0.0059,-0.012,0.0,0.0404,0.0,0.0,0.0393,0.0,0.0,0.0898,0.0,0.0,0.0,0.0,0.0871,0.0827,0.0827,0.0827,0.0829,0.086,0.0882,0.0,0.0898,0.0898,0.0896,0.0878,0.0883,0.0893,0.0916,0.0905,0.0897,0.0802,0.0806,0.0819,0.0826,0.0397,-0.0051,-0.0296,-0.0991,-0.1612,-0.1712,-0.2116,-0.2469,-0.2269,-0.2399,-0.2553,0.0,0.0,0.0,0.0,0.0,0.0,0.0,0.0,0.0,0.0,0.0,0.0,0.0,-0.3001,0.0,-0.2595,-0.2692,-0.2633,-0.2315,-0.2415,-0.2435,0.0,0.0,0.0,-0.2143,-0.2365,-0.2519,-0.2502,-0.2874,-0.3055,-0.2999,-0.3403,-0.3832,-0.4197,-0.4919,-0.5653,-0.6422,-0.7182,-0.7731,-0.8167,-0.9328,-0.9772,-0.9864,-1.0563,-1.0819,-1.0638,-0.9289,-0.8858,-0.8825,0.1905,0.0,0.0,0.0,0.0,0.0,0.0,0.1677,0.0,0.1411,0.0,0.1548,0.1505,0.0885,0.0363,0.0361,-0.0493,-0.0951,-0.0771,-0.032,0.0,0.0113,0.0638,0.0872,0.0904,0.0896,0.0894,0.0,0.0894,0.0,0.0,0.0,0.0,0.0,0.0,0.0,0.0,0.0905,0.0905,0.0908,0.0885,0.0898,0.0898,0.0898,0.0898,0.0898,0.0898,0.0898,0.0894,0.0921,0.0906,0.0891,0.084,0.0859,0.0889,0.0839,0.0458,0.0106,0.0103,-0.0662,-0.1278,-0.0763,-0.1426,-0.209,-0.1619,-0.1973,-0.2405,-0.2463,-0.2488,-0.2476,0.0,0.0,0.0,0.0,0.0,0.0,0.0,0.0,0.0,0.0,0.0,0.0,-0.2889,-0.2603,-0.2591,-0.3126,-0.2719,0.0,0.0,0.0,0.0,-0.2537,-0.2531,-0.2499,-0.2438,0.0,-0.2849,-0.2769,-0.2974,-0.353,-0.4304,-0.4573,-0.5351,-0.6513,-0.7056,-0.7482,-0.7878,-0.9079,-0.9696,-0.9943,-1.0212,-1.0148,-0.9842,-0.9131,-0.9133,-0.9321,0.2095,0.0,0.0,0.0,0.0,0.2218,0.2017,0.1864,0.1722,0.175,0.1755,0.1723,0.1644,0.1515,0.1433,0.137,0.1154,0.0,0.0,0.0,0.0,0.0761,0.0823,0.0882,0.0877,0.0885,0.0927,0.0898,0.0927,0.0873,0.0,0.0,0.0,0.0,0.0,0.0,0.0905,0.0905,0.0,0.0908,0.0885,0.0898,0.0898,0.0898,0.0898,0.0898,0.0898,0.0898,0.0897,0.0891,0.0856,0.0817,0.0884,0.0878,0.0817,0.0884,0.0485,0.0055,0.0107,-0.0431,-0.0982,-0.0797,-0.0969,-0.1245,-0.1432,-0.1694,-0.1931,-0.2175,-0.2313,-0.2328,-0.2339,0.0,0.0,0.0,0.0,0.0,0.0,0.0,0.0,0.0,0.0,-0.2813,0.0,-0.2919,-0.2901,-0.3034,0.0,0.0,0.0,0.0,0.0,0.0,-0.258,0.0,0.0,0.0,-0.2979,-0.3099,-0.3407,-0.3788,-0.4172,-0.4867,-0.5642,-0.6537,-0.7328,-0.7931,-0.8373,-0.9527,-0.9979,-0.9928,-0.9511,-0.9411,-0.9484,-0.9357,-0.9036,-0.8639,0.2305,0.0,0.0,0.0,0.0,0.0,0.0,0.2172,0.2017,0.1815,0.1873,0.1903,0.183,0.1821,0.179,0.1717,0.1624,0.1518,0.1331,0.1306,0.1227,0.1093,0.1034,0.0977,0.0977,0.0946,0.0883,0.0898,0.0883,0.0883,0.0,0.0,0.0,0.0,0.0,0.089,0.0,0.0,0.0,0.0877,0.0892,0.0898,0.0898,0.0898,0.0898,0.0898,0.0898,0.0898,0.0895,0.0879,0.0855,0.083,0.0829,0.083,0.0833,0.0901,0.071,0.0447,0.0495,0.0055,-0.0335,0.0,-0.0387,-0.0887,-0.0752,-0.1224,-0.1718,-0.1795,-0.2097,-0.2301,-0.2297,-0.2103,0.0,0.0,0.0,0.0,0.0,0.0,-0.1938,0.0,0.0,0.0,0.0,0.0,0.0,0.0,0.0,-0.2927,0.0,0.0,0.0,0.0,0.0,0.0,0.0,0.0,0.0,-0.2832,-0.3088,-0.3333,-0.3631,-0.409,-0.4942,-0.6033,-0.6615,-0.7128,-0.7586,-0.8621,-0.9365,-0.985,-0.9947,-0.9754,-0.9462,-0.9987,-0.98,-0.9229,0.0,0.271,0.0,0.0,0.249,0.2368,0.2413,0.2409,0.2248,0.194,0.1979,0.2001,0.1936,0.196,0.1912,0.1856,0.168,0.1573,0.1476,0.1429,0.1347,0.1291,0.1178,0.1122,0.1122,0.1059,0.0998,0.0943,0.0943,0.0943,0.0,0.0,0.0,0.0,0.0,0.0,0.0,0.0,0.0898,0.0898,0.0898,0.0898,0.0898,0.0898,0.0898,0.0898,0.0898,0.0898,0.0894,0.0924,0.0911,0.0902,0.0832,0.0838,0.0907,0.0913,0.0879,0.0898,0.0898,0.0561,0.028,0.0785,0.0168,-0.0447,-0.0056,-0.0705,-0.1313,-0.1308,-0.169,-0.1952,-0.1979,-0.1566,0.0,0.0,0.0,0.0,0.0,0.0,0.0,0.0,0.0,0.0,-0.2504,0.0,0.0,0.0,0.0,-0.2733,-0.2526,-0.2802,-0.2933,0.0,0.0,-0.2988,-0.2988,0.0,-0.276,0.0,-0.276,-0.2983,-0.3273,-0.3468,-0.4227,-0.5471,-0.5887,-0.6382,-0.703,-0.7975,-0.8942,-0.9863,-1.073,-1.0638,-1.0087,-1.0883,-1.0799,-1.0219,0.0,0.0,0.0,0.0,0.0,0.0,0.2418,0.2376,0.225,0.2198,0.2186,0.214,0.2093,0.2075,0.2046,0.1986,0.1925,0.1831,0.1651,0.1601,0.1515,0.1291,0.129,0.129,0.129,0.1252,0.1178,0.0,0.1071,0.1017,0.091,0.0,0.0,0.0,0.0,0.0,0.0,0.0898,0.0898,0.0898,0.0898,0.0898,0.0898,0.0898,0.0898,0.0898,0.0898,0.0898,0.0897,0.0894,0.0875,0.091,0.0881,0.0872,0.0911,0.0885,0.0896,0.0898,0.0898,0.0842,0.0842,0.0898,0.0842,0.0612,0.0162,-0.0053,-0.0261,-0.068,-0.0834,-0.0854,-0.0851,-0.0805,-0.0626,0.0,0.0,0.0,0.0,0.0,-0.1614,-0.1612,0.0,0.0,0.0,-0.237,0.0,0.0,-0.2652,-0.2639,-0.2493,-0.2769,-0.2849,-0.2713,0.0,-0.2984,-0.2984,-0.2813,-0.2797,-0.2962,-0.3095,-0.3293,-0.358,-0.3885,-0.4515,-0.536,-0.5927,-0.681,-0.7955,-0.8891,-0.9595,-1.019,-1.1543,-1.2021,-1.1942,-1.2037,-1.1695,-1.1217,0.0,0.0,0.0,0.0,0.0,0.0,0.0,0.361,0.3498,0.3278,0.2637,0.2158,0.2137,0.2093,0.1984,0.1924,0.1895,0.1868,0.1778,0.1754,0.1685,0.1628,0.1515,0.1459,0.1459,0.1384,0.1252,0.0,0.0,0.1142,0.0959,0.0994,0.0,0.0,0.0,0.0898,0.0898,0.0898,0.0898,0.0898,0.0898,0.0898,0.0898,0.0898,0.1121,0.14,0.1009,0.1121,0.1456,0.1456,0.1222,0.0881,0.0894,0.0889,0.0882,0.0894,0.0898,0.0898,0.0898,0.0898,0.0898,0.0898,0.0884,0.0867,0.0641,0.0262,-0.0101,-0.0241,-0.0507,-0.0716,-0.0716,-0.0492,-0.0224,0.0,0.0,0.0,0.0,0.0,0.0,-0.103,0.0,-0.1341,0.0,0.0,0.0,0.0,0.0,-0.2584,-0.2121,-0.2607,-0.2711,-0.2353,0.0,-0.2835,-0.2567,-0.2408,-0.2211,-0.1989,-0.2045,-0.2218,-0.254,-0.2644,-0.3498,-0.4894,-0.5211,-0.6165,-0.7567,-0.8285,-0.8907,-0.9603,-1.1208,-1.1703,-1.1561,-1.2183,-1.2,-1.1473,0.5854,0.0,0.5281,0.0,0.4949,0.4565,0.4565,0.441,0.4231,0.3995,0.3247,0.2668,0.2614,0.2537,0.2467,0.2472,0.2445,0.2352,0.2357,0.2354,0.2242,0.2074,0.1962,0.0,0.1685,0.1515,0.1435,0.1385,0.138,0.1268,0.1067,0.0,0.0,0.0,0.0954,0.1009,0.1177,0.1177,0.1288,0.1456,0.1456,0.1456,0.1456,0.1456,0.1734,0.2069,0.1623,0.179,0.2178,0.2178,0.19,0.1511,0.1232,0.1065,0.0896,0.0887,0.089,0.0896,0.0887,0.089,0.0898,0.0898,0.0875,0.0905,0.0905,0.0514,0.0196,0.0189,-0.0046,-0.0269,-0.0224,0.0045,0.0269,0.0269,0.0,0.0,0.0,-0.0134,0.0,-0.0492,-0.0626,-0.0671,-0.0626,-0.1074,0.0,0.0,0.0,0.0,-0.1887,-0.2366,0.0,0.0,0.0,0.0,0.0,-0.1932,-0.1683,-0.1301,-0.1274,-0.1421,-0.174,-0.2161,-0.3079,-0.4377,-0.4784,-0.571,-0.7002,-0.7999,-0.8834,-0.9656,-1.1389,-1.1886,-1.171,-1.2599,-1.254,-1.2073,0.748,0.678,0.616,0.6163,0.5318,0.4565,0.4565,0.4268,0.3977,0.3974,0.3944,0.3878,0.3875,0.3768,0.3696,0.3754,0.3642,0.3572,0.3569,0.3569,0.3292,0.0,0.0,0.2404,0.1797,0.1797,0.1712,0.1493,0.0,0.0,0.128,0.0,0.1234,0.1122,0.1122,0.1345,0.179,0.179,0.2124,0.2681,0.2681,0.2681,0.2681,0.2681,0.2792,0.2905,0.2905,0.2956,0.3063,0.3063,0.3063,0.2899,0.2068,0.14,0.0892,0.0915,0.0874,0.0891,0.0915,0.0875,0.0898,0.0898,0.0875,0.0905,0.0958,0.0908,0.0757,0.0726,0.0675,0.0719,0.0855,0.09,0.09,0.09,0.0,0.0,0.0,-0.0403,0.0,-0.0045,-0.0403,-0.0537,-0.0045,-0.0537,0.0,0.0,0.0,0.0,0.0,0.0,0.0,-0.1433,-0.1538,0.0,-0.1615,-0.1397,-0.1298,-0.1307,-0.1174,-0.1278,-0.1642,-0.2958,-0.366,-0.3876,-0.493,-0.5751,-0.648,-0.8536,-0.9862,-1.0744,-1.251,-1.3134,-1.3113,-1.3542,-1.3505,-1.3361,0.7147,0.7088,0.7022,0.6791,0.6444,0.619,0.6073,0.584,0.5528,0.5315,0.5304,0.5279,0.5279,0.4358,0.3719,0.0,0.3649,0.3624,0.0,0.3624,0.3514,0.3347,0.3292,0.3014,0.2406,0.2404,0.2148,0.1653,0.0,0.0,0.0,0.2556,0.2458,0.2348,0.2348,0.2404,0.2571,0.2571,0.2734,0.2954,0.2954,0.2954,0.2954,0.2954,0.3231,0.3622,0.3178,0.3242,0.35,0.35,0.3179,0.2805,0.2909,0.2686,0.2318,0.172,0.163,0.1618,0.1122,0.0966,0.0975,0.0975,0.0949,0.0969,0.1044,0.1045,0.0957,0.0856,0.0855,0.0855,0.09,0.09,0.09,0.09,0.0763,0.0,0.0045,0.0,0.0671,0.0492,0.0894,0.1162,0.0985,0.0759,0.0,0.0,0.0,0.0,0.0,0.0,0.0,0.0,-0.1105,0.0,-0.084,-0.0751,-0.0545,-0.0191,-0.0176,-0.047,-0.1074,-0.2006,-0.2793,-0.3407,-0.3933,-0.4909,-0.6198,-0.7442,-0.8514,-0.952,-1.0885,-1.1718,-1.2207,-1.2717,-1.2855,-1.295,0.7044,0.7204,0.7212,0.7064,0.6966,0.681,0.67,0.6477,0.6213,0.5925,0.5888,0.5835,0.5701,0.4997,0.0,0.4461,0.43,0.4236,0.4236,0.4236,0.4128,0.3959,0.3959,0.368,0.307,0.3014,0.0,0.2289,0.2715,0.3087,0.34,0.3345,0.3178,0.307,0.307,0.3125,0.3292,0.3292,0.3511,0.3785,0.3785,0.3785,0.3785,0.3785,0.403,0.4314,0.3929,0.39,0.41,0.41,0.3831,0.3497,0.3795,0.3834,0.3547,0.2451,0.2073,0.1928,0.1459,0.12,0.11,0.1115,0.1077,0.1026,0.1081,0.114,0.112,0.0987,0.0988,0.1033,0.1256,0.13,0.13,0.13,0.1256,0.1075,0.0671,0.0,0.1343,0.0,0.0,0.0,0.0,0.1652,0.1294,0.0,0.0,0.0,0.0,0.0,0.0,-0.0186,-0.0227,0.0,0.0091,0.0126,0.0316,0.0571,0.0245,-0.0168,-0.0639,-0.1609,-0.2338,-0.2925,-0.3921,-0.5048,-0.6279,-0.7396,-0.8459,-0.9442,-1.0297,-1.1148,-1.1938,-1.2409,-1.2774,-1.3134,0.7199,0.7158,0.717,0.0,0.6921,0.0,0.6744,0.6437,0.6145,0.5912,0.5876,0.5742,0.5353,0.5669,0.5868,0.5868,0.0,0.0,0.0,0.5297,0.5077,0.4574,0.4574,0.4291,0.3669,0.3669,0.3561,0.3345,0.3345,0.3458,0.3738,0.3738,0.3624,0.34,0.34,0.3674,0.4064,0.4064,0.4398,0.4956,0.4956,0.4956,0.4956,0.4956,0.4904,0.4916,0.4916,0.4848,0.4788,0.4788,0.478,0.4739,0.4534,0.4637,0.4488,0.3,0.2329,0.2004,0.1954,0.1655,0.1317,0.1363,0.1302,0.1173,0.1175,0.1253,0.1298,0.1208,0.1208,0.1386,0.1964,0.2053,0.2053,0.2053,0.1964,0.1832,0.1657,0.0,0.1655,0.0,0.0,0.0,0.0,0.2233,0.2055,0.0,0.0,0.0,0.0,0.0,0.0047,0.0405,0.085,0.1095,0.1138,0.113,0.1117,0.1015,0.0173,-0.027,-0.0336,-0.1605,-0.2203,-0.2402,-0.448,-0.5777,-0.6521,-0.8042,-0.9245,-1.0197,-1.0505,-1.1246,-1.2187,-1.256,-1.3126,-1.3815,0.0,0.0,0.8725,0.8214,0.776,0.745,0.7295,0.6673,0.6145,0.5912,0.5766,0.5644,0.5559,0.5624,0.5677,0.5677,0.56,0.5438,0.5309,0.5297,0.5242,0.5132,0.5132,0.479,0.4075,0.4071,0.4055,0.3971,0.3971,0.4314,0.4908,0.4908,0.4794,0.468,0.468,0.4736,0.4846,0.4846,0.4959,0.5183,0.5183,0.5183,0.5183,0.5183,0.5131,0.508,0.508,0.4827,0.4558,0.4558,0.4516,0.4394,0.4353,0.4365,0.43,0.3533,0.3352,0.322,0.2644,0.2451,0.2361,0.2384,0.2117,0.1855,0.188,0.1876,0.1876,0.1787,0.2053,0.2361,0.2497,0.2539,0.2539,0.2539,0.2495,0.2408,0.219,0.2413,0.0,0.0,0.3037,0.3262,0.3252,0.3561,0.3558,0.0,0.0,0.0,0.0,0.1855,0.1308,0.063,0.0999,0.1207,0.1323,0.1569,0.1546,0.1233,0.0539,0.014,-0.0101,-0.0669,-0.1301,-0.2034,-0.3037,-0.4241,-0.5586,-0.6724,-0.7769,-0.8706,-0.9701,-1.0773,-1.1805,-1.2345,-1.3209,-1.411,0.8603,0.8797,0.8942,0.8554,0.827,0.792,0.754,0.7213,0.6821,0.6324,0.6132,0.598,0.5888,0.581,0.5673,0.545,0.5438,0.5361,0.5242,0.5149,0.5048,0.5048,0.5048,0.4935,0.4602,0.4602,0.4602,0.4602,0.4525,0.4691,0.5052,0.519,0.5177,0.5119,0.5148,0.5183,0.5183,0.5183,0.5242,0.5297,0.5297,0.5249,0.5238,0.5269,0.5084,0.4849,0.4926,0.4727,0.4422,0.4422,0.4357,0.4316,0.4316,0.4316,0.4228,0.4005,0.3801,0.3609,0.3251,0.2993,0.2812,0.2812,0.263,0.2455,0.2455,0.2455,0.2453,0.2408,0.263,0.2851,0.3073,0.329,0.3399,0.3248,0.346,0.3567,0.3248,0.351,0.0,0.3909,0.414,0.4272,0.422,0.4487,0.4439,0.3898,0.4055,0.0,0.2843,0.2775,0.2305,0.1265,0.1731,0.1988,0.1957,0.1988,0.1777,0.1278,0.0736,0.039,0.0202,-0.0234,-0.0734,-0.1331,-0.3127,-0.424,-0.4953,-0.696,-0.797,-0.8364,-0.9703,-1.0855,-1.1834,-1.2535,-1.3444,-1.4306,0.9011,0.884,0.8851,0.8818,0.8748,0.849,0.7907,0.7906,0.7737,0.6971,0.6764,0.6562,0.6341,0.624,0.6032,0.5601,0.5567,0.545,0.5133,0.4922,0.4816,0.4844,0.482,0.4865,0.4999,0.4974,0.4974,0.4999,0.484,0.478,0.4808,0.4966,0.5039,0.5048,0.5148,0.5217,0.5221,0.5245,0.5241,0.5221,0.5354,0.5272,0.5096,0.5304,0.5027,0.4594,0.4759,0.4593,0.4313,0.4324,0.4316,0.4316,0.4316,0.4316,0.4316,0.4316,0.4005,0.3725,0.3767,0.3478,0.312,0.312,0.3075,0.2987,0.2987,0.2987,0.2987,0.2987,0.312,0.3337,0.3737,0.4216,0.4427,0.4173,0.4588,0.4843,0.4591,0.0,0.4822,0.5096,0.514,0.514,0.514,0.5226,0.5106,0.4688,0.4934,0.4538,0.336,0.3627,0.3333,0.2282,0.2719,0.289,0.271,0.2352,0.1944,0.1546,0.0966,0.0673,0.0638,0.0033,-0.0301,-0.0566,-0.3335,-0.432,-0.4166,-0.731,-0.8353,-0.8167,-0.9915,-1.1111,-1.1968,-1.2891,-1.3725,-1.4417,1.0531,1.0555,1.0516,1.034,0.9779,0.9326,0.9198,0.8594,0.8038,0.7687,0.7459,0.7231,0.6998,0.7266,0.7302,0.6851,0.6815,0.6367,0.5311,0.4991,0.4873,0.5031,0.4885,0.4751,0.4586,0.4479,0.4475,0.4582,0.4554,0.4614,0.4804,0.4832,0.4844,0.4849,0.4877,0.4889,0.4897,0.5056,0.5031,0.4901,0.547,0.5466,0.5136,0.5575,0.5431,0.4983,0.4849,0.4674,0.4437,0.4325,0.4316,0.4316,0.4316,0.4316,0.4316,0.4316,0.4228,0.4192,0.4216,0.416,0.4096,0.4096,0.3785,0.3476,0.3476,0.3476,0.3476,0.3476,0.4132,0.47,0.4787,0.5178,0.5527,0.5729,0.5618,0.5576,0.5655,0.0,0.5356,0.5265,0.5265,0.5394,0.5658,0.5953,0.6217,0.64,0.6356,0.6083,0.5596,0.5283,0.4759,0.3936,0.3408,0.3196,0.3294,0.2665,0.2465,0.2634,0.1533,0.1167,0.1399,0.0703,0.0067,-0.0434,-0.1221,-0.1842,-0.2463,-0.5138,-0.6201,-0.6411,-0.9429,-1.1023,-1.1792,-1.2941,-1.3779,-1.4373,1.1024,1.0917,1.0843,1.0708,1.0358,0.997,0.9582,0.9357,0.9077,0.8589,0.8352,0.8097,0.7842,0.7799,0.7585,0.7122,0.6913,0.6576,0.6048,0.5547,0.5338,0.5438,0.5069,0.4894,0.4866,0.5078,0.5275,0.5543,0.5322,0.5357,0.551,0.4999,0.4995,0.5382,0.5413,0.5444,0.5599,0.5987,0.5934,0.5599,0.6071,0.5971,0.5531,0.5589,0.5661,0.56,0.517,0.5239,0.5533,0.5159,0.5169,0.5197,0.4785,0.4661,0.4622,0.436,0.4316,0.4316,0.4316,0.4316,0.4316,0.4316,0.414,0.3965,0.3965,0.3965,0.4049,0.4308,0.47,0.5096,0.5308,0.5733,0.6027,0.601,0.624,0.0,0.0,0.6762,0.6642,0.6799,0.6542,0.6428,0.6478,0.6818,0.716,0.7412,0.7708,0.7532,0.6678,0.6693,0.6184,0.5101,0.4238,0.3709,0.3499,0.3111,0.2882,0.2893,0.2066,0.1936,0.2347,0.1988,0.1491,0.0828,-0.0195,-0.0912,-0.1553,-0.3946,-0.5517,-0.662,-0.8936,-1.0833,-1.2394,-1.3467,-1.4103,-1.4453,1.1185,1.0996,1.087,1.087,1.0807,1.0491,0.9907,1.0043,1.0065,0.9505,0.9188,0.8965,0.8695,0.839,0.7983,0.7555,0.7182,0.7036,0.7036,0.6373,0.5938,0.5733,0.5382,0.5218,0.5293,0.5668,0.6021,0.633,0.6076,0.598,0.6094,0.5434,0.5353,0.5853,0.5833,0.5936,0.6123,0.6603,0.6534,0.6123,0.6525,0.639,0.5908,0.5945,0.6048,0.6083,0.5629,0.5923,0.6378,0.5858,0.5897,0.6005,0.5379,0.5178,0.5091,0.4748,0.4622,0.4618,0.4491,0.4447,0.4491,0.4618,0.4622,0.4622,0.4622,0.4622,0.4748,0.5091,0.5221,0.5394,0.5782,0.6161,0.6458,0.6397,0.0,0.0,0.0,0.8085,0.8096,0.8401,0.8103,0.7795,0.7666,0.7975,0.8232,0.8276,0.8812,0.87,0.7598,0.7882,0.7474,0.6259,0.5081,0.4382,0.4143,0.3784,0.3565,0.3485,0.2831,0.2815,0.3352,0.3114,0.2798,0.2368,0.0834,0.0278,0.0265,-0.2153,-0.3768,-0.4927,-0.7579,-0.9774,-1.1681,-1.3652,-1.4442,-1.4576,1.131,1.1185,1.1059,1.1059,1.1059,1.0996,1.0744,1.0724,1.0608,1.0336,1.003,0.9738,0.9438,0.9363,0.9138,0.8725,0.8435,0.827,0.827,0.7432,0.6582,0.593,0.5727,0.5658,0.568,0.5712,0.583,0.6121,0.6092,0.6081,0.6094,0.6019,0.5906,0.5723,0.5717,0.5723,0.5766,0.5936,0.5898,0.5832,0.6731,0.6571,0.6016,0.6965,0.6889,0.6186,0.6288,0.6353,0.6341,0.5858,0.5897,0.605,0.5728,0.5653,0.5653,0.561,0.561,0.548,0.5048,0.4961,0.5048,0.548,0.561,0.561,0.561,0.561,0.561,0.5653,0.5953,0.6204,0.6246,0.6634,0.715,0.7852,0.0,0.0,0.918,0.9388,0.9442,0.9487,0.9442,0.9404,0.9266,0.9541,0.9556,0.9129,0.9419,0.9371,0.8812,0.882,0.8474,0.7757,0.5933,0.524,0.5831,0.4895,0.4711,0.5294,0.4075,0.3822,0.435,0.3435,0.3276,0.3697,0.2394,0.2822,0.425,0.1403,0.1041,0.165,-0.4485,-0.7104,-0.8002,-1.2807,-1.4621,-1.4709,1.1553,1.1373,1.1247,1.1247,1.1185,1.1059,1.0996,1.0996,1.0954,1.0843,1.0551,1.0244,0.9881,0.9681,0.9439,0.9088,0.8741,0.852,0.852,0.7742,0.6956,0.6182,0.6085,0.6081,0.6081,0.6445,0.68,0.723,0.7217,0.7211,0.7183,0.6565,0.639,0.6526,0.6603,0.6702,0.6837,0.7251,0.723,0.6824,0.7218,0.7051,0.66,0.6711,0.6878,0.6954,0.6513,0.6764,0.7257,0.6699,0.6693,0.6867,0.6243,0.6081,0.6033,0.5782,0.5696,0.5739,0.5776,0.5604,0.548,0.5653,0.5696,0.5696,0.5696,0.5696,0.5862,0.6404,0.641,0.6543,0.7384,0.7224,0.7376,0.8479,0.0,0.9137,1.0461,1.034,1.0271,1.0661,1.0157,0.9785,0.9779,1.0275,1.0476,1.0148,1.0882,1.0928,0.9877,0.9395,0.9156,0.9119,0.8035,0.7044,0.6265,0.5861,0.5723,0.58,0.5121,0.509,0.5665,0.5061,0.4784,0.4778,0.495,0.4979,0.4874,0.4445,0.3476,0.2005,-0.0462,-0.4025,-0.7675,-0.7075,-1.0159,-1.4269,1.229,1.2104,1.1911,1.1732,1.1608,1.1421,1.1185,1.1185,1.1185,1.1185,1.0763,1.0425,1.0214,0.9827,0.9542,0.948,0.8982,0.8706,0.8849,0.8075,0.7284,0.6562,0.6631,0.6674,0.6674,0.7148,0.7634,0.807,0.805,0.8044,0.8021,0.7376,0.712,0.7284,0.7363,0.7474,0.7635,0.7997,0.7896,0.7513,0.7513,0.7288,0.6999,0.6837,0.7045,0.7271,0.6848,0.7154,0.7709,0.7194,0.7221,0.737,0.6723,0.6507,0.6416,0.5996,0.5996,0.6142,0.6391,0.6269,0.6124,0.6124,0.6182,0.6223,0.6142,0.6188,0.6434,0.7098,0.7074,0.7206,0.8126,0.8027,0.8113,0.9031,0.9481,1.0062,1.1232,1.1195,1.1194,1.1499,1.0904,1.0524,1.0565,1.0964,1.1149,1.0926,1.1798,1.1856,1.0873,1.0387,1.017,1.0205,1.0079,0.9343,0.7935,0.7423,0.7041,0.6888,0.64,0.638,0.6723,0.6363,0.6098,0.5952,0.6712,0.6758,0.633,0.6984,0.6158,0.4343,0.3051,-0.0286,-0.4182,-0.2656,-0.5766,-1.034,1.3511,1.3511,1.3321,1.2634,1.2512,1.2266,1.1428,1.1303,1.1303,1.1296,1.0744,1.0351,1.0415,0.9792,0.9562,0.9961,0.9278,0.8997,0.946,0.8432,0.7554,0.7041,0.7352,0.7513,0.7513,0.7776,0.8076,0.8427,0.8377,0.8377,0.8427,0.8427,0.8216,0.7882,0.7888,0.7888,0.7868,0.7609,0.752,0.7513,0.7513,0.7288,0.7088,0.7649,0.7503,0.7061,0.7399,0.7506,0.7466,0.7121,0.7221,0.7459,0.7114,0.7021,0.6894,0.6465,0.6634,0.696,0.6842,0.6899,0.7027,0.6985,0.7248,0.7432,0.7094,0.7255,0.7558,0.7664,0.8031,0.8295,0.8297,0.9009,0.9588,0.9624,1.0633,1.138,1.1322,1.1988,1.2323,1.1884,1.178,1.178,1.179,1.179,1.1693,1.1421,1.1834,1.2008,1.1804,1.1854,1.1616,1.0916,1.1866,1.2071,1.1326,0.9663,0.8817,0.8812,0.799,0.7569,0.7482,0.7104,0.7038,0.7227,0.7363,0.8146,0.9286,0.904,0.947,0.9912,0.5841,0.4149,0.3518,-0.0523,-0.2128,-0.2284,1.3563,1.3511,1.345,1.326,1.3199,1.3139,1.2895,1.2834,1.2744,1.2441,1.2061,1.167,1.1364,1.0918,1.0685,1.0838,1.0529,1.026,1.0156,0.9247,0.8688,0.8621,0.8085,0.7699,0.7565,0.8119,0.8383,0.8427,0.8577,0.8622,0.852,0.852,0.8357,0.8072,0.8289,0.8335,0.8237,0.8143,0.7983,0.7776,0.7555,0.7499,0.7496,0.7308,0.7346,0.7489,0.7348,0.76,0.7997,0.7722,0.8037,0.842,0.7701,0.7273,0.7018,0.7093,0.724,0.7483,0.8003,0.8162,0.8098,0.7747,0.7833,0.8026,0.7801,0.8194,0.8563,0.8594,0.8437,0.8484,0.9163,0.9146,0.9325,1.0205,1.0851,1.1414,1.1999,1.2215,1.2257,1.2234,1.1881,1.1694,1.1804,1.204,1.2025,1.1582,1.1903,1.2228,1.2476,1.241,1.2306,1.209,1.2613,1.2716,1.2295,1.068,1.0009,1.0318,0.9017,0.8562,0.8901,0.8529,0.8498,0.8817,0.9981,1.0527,1.059,1.1081,1.1205,1.0898,0.9103,0.6608,0.4215,0.5951,0.2815,-0.1876,1.4341,1.4282,1.4163,1.3932,1.3932,1.3812,1.3571,1.3511,1.3382,1.2947,1.2629,1.2244,1.1761,1.1379,1.1309,1.156,1.1353,1.1063,1.0598,0.9939,0.9611,0.9699,0.908,0.858,0.8224,0.8857,0.9146,0.9047,0.9358,0.9467,0.9379,0.9379,0.9318,0.9182,0.9383,0.9329,0.9026,0.9147,0.8931,0.853,0.8303,0.8222,0.8211,0.7958,0.7873,0.798,0.8156,0.8379,0.8603,0.8625,0.8913,0.9137,0.8609,0.828,0.8063,0.8259,0.831,0.8474,0.9127,0.9213,0.9136,0.9067,0.9031,0.8929,0.8761,0.8954,0.9201,0.941,0.9359,0.9528,1.0224,1.0293,1.0456,1.1058,1.1404,1.1726,1.2048,1.2144,1.2164,1.2071,1.1757,1.1575,1.1655,1.2042,1.2229,1.2092,1.2092,1.2295,1.2773,1.295,1.2963,1.2789,1.3297,1.3414,1.3084,1.1765,1.1268,1.1526,1.0168,0.9644,0.9894,0.9557,0.9427,0.9539,1.1246,1.1694,1.1265,1.2389,1.2473,1.1789,1.0999,0.9152,0.7238,0.9412,0.6995,0.2969,1.541,1.541,1.5235,1.4706,1.4588,1.435,1.3743,1.3683,1.3536,1.3079,1.2716,1.2336,1.1868,1.1516,1.156,1.2126,1.1844,1.148,1.1041,1.0646,1.0417,1.0461,1.0336,0.9949,0.9255,0.9867,1.014,1.0003,1.0448,1.0618,1.061,1.0578,1.0687,1.0813,1.078,1.0485,1.0092,1.0327,1.0124,0.9657,0.9477,0.9313,0.9169,0.9158,0.8854,0.857,0.9489,0.959,0.9337,0.9852,0.9873,0.9665,0.9665,0.9665,0.9628,0.9614,0.9668,0.975,1.0196,1.015,1.0098,1.0806,1.0574,1.0148,0.9796,0.9668,0.9752,1.0219,1.0615,1.0962,1.1373,1.196,1.2313,1.1893,1.212,1.2152,1.1732,1.1948,1.202,1.1678,1.1623,1.1623,1.1686,1.2029,1.2396,1.2808,1.2477,1.2444,1.2872,1.3468,1.3617,1.3302,1.3996,1.4227,1.3882,1.2928,1.2462,1.245,1.1314,1.0749,1.0648,1.034,1.0045,0.9843,1.1642,1.2048,1.1571,1.3062,1.3288,1.2613,1.1829,1.15,1.1386,1.06,1.0209,1.0084,1.541,1.541,1.5352,1.5235,1.5177,1.5177,1.5001,1.5001,1.4725,1.3929,1.3758,1.347,1.2738,1.2577,1.2578,1.2725,1.2339,1.2186,1.2416,1.1719,1.1442,1.1786,1.1471,1.1046,1.0535,1.0421,1.0285,1.014,1.054,1.0813,1.0906,1.0582,1.0648,1.0956,1.0623,1.0557,1.061,1.068,1.0541,1.022,1.0159,1.0032,0.9812,0.9739,0.9672,0.9658,0.993,1.0355,1.081,1.1296,1.0985,1.0346,1.0256,1.0021,0.9768,0.9906,0.9979,1.0252,1.1036,1.1219,1.1349,1.1972,1.2043,1.1722,1.0871,1.0951,1.1205,1.1268,1.129,1.1315,1.1531,1.1758,1.1839,1.1513,1.1576,1.1746,1.1953,1.1815,1.1945,1.2649,1.2531,1.2578,1.3082,1.3217,1.3213,1.3041,1.322,1.3488,1.3808,1.4026,1.4342,1.4727,1.4946,1.5184,1.5409,1.4278,1.3435,1.2858,1.1855,1.1626,1.1994,1.1904,1.1748,1.1607,1.2751,1.3047,1.2749,1.3301,1.3506,1.3385,1.2641,1.1957,1.1454,1.1732,1.1074,1.0008,1.5853,1.5417,1.5176,1.5381,1.5244,1.5176,1.5381,1.541,1.5107,1.4194,1.4077,1.3818,1.2969,1.2881,1.2881,1.2881,1.2676,1.2637,1.2861,1.2451,1.2295,1.2529,1.2119,1.167,1.123,1.1064,1.0822,1.0445,1.1075,1.1416,1.1456,1.1495,1.1652,1.1882,1.1683,1.1505,1.1443,1.1692,1.1576,1.1226,1.1232,1.115,1.0981,1.0913,1.0768,1.0687,1.1186,1.161,1.1957,1.2206,1.1959,1.1472,1.1425,1.1237,1.1131,1.1279,1.1468,1.1707,1.2083,1.253,1.2871,1.2997,1.319,1.311,1.2244,1.211,1.2253,1.267,1.2665,1.2602,1.2584,1.2846,1.2781,1.2015,1.2141,1.2296,1.211,1.2247,1.2539,1.3045,1.3085,1.3433,1.4279,1.3908,1.3735,1.4083,1.3994,1.4049,1.4318,1.4741,1.5166,1.5636,1.5588,1.569,1.5894,1.4779,1.403,1.3706,1.2715,1.243,1.2774,1.2808,1.2771,1.272,1.3434,1.3687,1.3602,1.3998,1.4248,1.4273,1.334,1.2737,1.2383,1.2148,1.1514,1.0735,1.6208,1.5517,1.5025,1.5342,1.5068,1.4932,1.5352,1.541,1.5107,1.4194,1.4145,1.3896,1.2978,1.2881,1.2881,1.2881,1.2881,1.2881,1.2881,1.2978,1.3017,1.3017,1.2708,1.2347,1.1987,1.1967,1.1545,1.0733,1.1541,1.1964,1.2041,1.2377,1.2638,1.2881,1.2803,1.256,1.2283,1.2725,1.2627,1.2246,1.2291,1.2239,1.2124,1.2165,1.1856,1.1555,1.2425,1.2725,1.2725,1.2725,1.2676,1.2578,1.2618,1.2666,1.2715,1.2949,1.318,1.3362,1.3256,1.3695,1.4129,1.38,1.4025,1.4186,1.3788,1.3268,1.3109,1.3939,1.4135,1.4083,1.3905,1.4266,1.4217,1.3043,1.3225,1.3322,1.2705,1.3177,1.3643,1.368,1.394,1.449,1.5369,1.4716,1.4547,1.523,1.4915,1.4766,1.4916,1.5462,1.5935,1.6289,1.6157,1.6111,1.6212,1.5204,1.4805,1.4986,1.3871,1.3346,1.3311,1.3372,1.3399,1.3411,1.3877,1.4087,1.4176,1.4709,1.4961,1.4932,1.4004,1.3543,1.3293,1.2186,1.1788,1.174,1.5794,1.5571,1.5563,1.539,1.5068,1.4932,1.5352,1.541,1.5107,1.4194,1.4463,1.4238,1.3018,1.2881,1.2881,1.2881,1.2881,1.2881,1.2881,1.3296,1.3525,1.3525,1.382,1.3852,1.3422,1.3411,1.2582,1.0867,1.1406,1.1846,1.218,1.1895,1.2148,1.2861,1.249,1.2482,1.2783,1.2881,1.2881,1.2774,1.2812,1.2568,1.2219,1.2646,1.2511,1.2146,1.2676,1.2881,1.2881,1.2881,1.2881,1.2881,1.319,1.3276,1.3372,1.3742,1.3931,1.4071,1.4025,1.4165,1.4258,1.4212,1.4247,1.4507,1.5364,1.4744,1.4089,1.4503,1.486,1.5,1.463,1.5089,1.5215,1.4365,1.4374,1.4557,1.4689,1.479,1.5151,1.6013,1.6225,1.6331,1.6496,1.6698,1.6487,1.5684,1.6367,1.6613,1.6273,1.6126,1.6385,1.7093,1.6905,1.7035,1.7552,1.6761,1.6592,1.6994,1.5729,1.4691,1.381,1.3806,1.3789,1.3761,1.4227,1.4372,1.4312,1.4847,1.4948,1.4741,1.4646,1.4004,1.304,1.1993,1.203,1.2421,1.6238,1.6158,1.6137,1.6008,1.5873,1.581,1.5953,1.6202,1.6092,1.5185,1.5466,1.5384,1.4254,1.3861,1.3658,1.3658,1.3658,1.3658,1.3658,1.3894,1.3978,1.3978,1.4212,1.4122,1.3707,1.3696,1.3162,1.2131,1.2323,1.2218,1.1855,1.1914,1.2139,1.251,1.2593,1.2882,1.3296,1.3573,1.3525,1.3296,1.3296,1.3175,1.2946,1.2624,1.2728,1.3024,1.3226,1.3478,1.3658,1.3658,1.3658,1.3705,1.3836,1.3873,1.3978,1.4294,1.4536,1.4686,1.4536,1.4812,1.5051,1.4812,1.496,1.5324,1.5954,1.5733,1.5598,1.6372,1.6344,1.6223,1.6393,1.6417,1.6118,1.5402,1.5527,1.5583,1.5248,1.5796,1.6505,1.7305,1.7381,1.7509,1.787,1.7563,1.7406,1.7639,1.7155,1.7027,1.7385,1.7001,1.6994,1.7509,1.7687,1.7911,1.8197,1.7663,1.7521,1.777,1.6775,1.5764,1.4788,1.4489,1.4371,1.4425,1.4625,1.4754,1.4822,1.5014,1.5052,1.4955,1.4798,1.4276,1.3522,1.276,1.2753,1.3023]}]]